[[{"header":{"parameterUnit":"m.s-1","parameterCategory":1,"la1":30.6,"la2":28.766,"lo1":-90.7593,"lo2":-88.6598,"dy":0.0162,"dx":0.0183,"nx":116,"ny":114,"refTime":"2023-03-06T06:00:00:Z","depth":0,"parameterNumber":2,"parameterNumberName":"U-component_of_WINDS"},"data":[0.0,0.0,0.0,0.0,0.0,0.0,0.0,0.0,0.0,0.0,0.0,0.0,0.0,0.0,0.0,0.0,0.0,0.0,0.0,0.0,0.0,0.0,0.0,0.0,0.0,0.0,0.0,0.0,0.0,0.0,0.0,0.0,0.0,0.0,0.0,0.0,0.0,0.0,0.0,0.0,0.0,0.0,0.0,0.0,0.0,0.0,0.0,0.0,0.0,0.0,0.0,0.0,0.0,0.0,0.0,0.0,0.0,0.0,0.0,0.0,0.0,0.0,0.0,0.0,0.0,0.0,0.0,0.0,0.0,0.0,0.0,0.0,0.0,0.0,0.0,0.0,0.0,0.0,0.0,0.0,0.0,0.0,0.0,0.0,0.0,0.0,0.0,0.0,0.0,0.0,0.0,0.0,0.0,0.0,0.0,0.0,0.0,0.0,0.0,0.0,0.0,0.0,0.0,0.0,0.0,0.0,0.0,0.0,0.0,0.0,0.0,0.0,0.0,0.0,0.0,0.0,0.0,0.0,0.0,0.0,0.0,0.0,0.0,0.0,0.0,0.0,0.0,0.0,0.0,0.0,0.0,0.0,0.0,0.0,0.0,0.0,0.0,0.0,0.0,0.0,0.0,0.0,0.0,0.0,0.0,0.0,0.0,0.0,0.0,0.0,0.0,0.0,0.0,0.0,0.0,0.0,0.0,0.0,0.0,0.0,0.0,0.0,0.0,0.0,0.0,0.0,0.0,0.0,0.0,0.0,0.0,0.0,0.0,0.0,0.0,0.0,0.0,0.0,0.0,0.0,0.0,0.0,0.0,0.0,0.0,0.0,0.0,0.0,0.0,0.0,0.0,0.0,0.0,0.0,0.0,0.0,0.0,0.0,0.0,0.0,0.0,0.0,0.0,0.0,0.0,0.0,0.0,0.0,0.0,0.0,0.0,0.0,0.0,0.0,0.0,0.0,0.0,0.0,0.0,0.0,0.0,0.0,0.0,0.0,0.0,0.0,0.0,0.0,0.0,0.0,0.0,0.0,0.0,0.0,0.0,0.0,0.0,0.0,0.0,0.0,0.0,0.0,0.0,0.0,0.0,0.0,0.0,0.0,0.0,0.0,0.0,0.0,0.0,0.0,0.0,0.0,0.0,0.0,0.0,0.0,0.0,0.0,0.0,0.0,0.0,0.0,0.0,0.0,0.0,0.0,0.0,0.0,0.0,0.0,0.0,0.0,0.0,0.0,0.0,0.0,0.0,0.0,0.0,0.0,0.0,0.0,0.0,0.0,0.0,0.0,0.0,0.0,0.0,0.0,0.0,0.0,0.0,0.0,0.0,0.0,0.0,0.0,0.0,0.0,0.0,0.0,0.0,0.0,0.0,0.0,0.0,0.0,0.0,0.0,0.0,0.0,0.0,0.0,0.0,0.0,0.0,0.0,0.0,0.0,0.0,0.0,0.0,0.0,0.0,0.0,0.0,0.0,0.0,0.0,0.0,0.0,0.0,0.0,0.0,0.0,0.0,0.0,0.0,0.0,0.0,0.0,0.0,0.0,0.0,0.0,0.0,0.0,0.0,0.0,0.0,0.0,0.0,0.0,0.0,0.0,0.0,0.0,0.0,0.0,0.0,0.0,0.0,0.0,0.0,0.0,0.0,0.0,0.0,0.0,0.0,0.0,0.0,0.0,0.0,0.0,0.0,0.0,0.0,0.0,0.0,0.0,0.0,0.0,0.0,0.0,0.0,0.0,0.0,0.0,0.0,0.0,0.0,0.0,0.0,0.0,0.0,0.0,0.0,0.0,0.0,0.0,0.0,0.0,0.0,0.0,0.0,0.0,0.0,0.0,0.0,0.0,0.0,0.0,0.0,0.0,0.0,0.0,0.0,0.0,0.0,0.0,0.0,0.0,0.0,0.0,0.0,0.0,0.0,0.0,0.0,0.0,0.0,0.0,0.0,0.0,0.0,0.0,0.0,0.0,0.0,0.0,0.0,0.0,0.0,0.0,0.0,0.0,0.0,0.0,0.0,0.0,0.0,0.0,0.0,0.0,0.0,0.0,0.0,0.0,0.0,0.0,0.0,0.0,0.0,0.0,0.0,0.0,0.0,0.0,0.0,0.0,0.0,0.0,0.0,0.0,0.0,0.0,0.0,0.0,0.0,0.0,0.0,0.0,0.0,0.0,0.0,0.0,0.0,0.0,0.0,0.0,0.0,0.0,0.0,0.0,0.0,0.0,0.0,0.0,0.0,0.0,0.0,0.0,0.0,0.0,0.0,0.0,0.0,0.0,0.0,0.0,0.0,0.0,0.0,0.0,0.0,0.0,0.0,0.0,0.0,0.0,0.0,0.0,0.0,0.0,0.0,0.0,0.0,0.0,0.0,0.0,0.0,0.0,0.0,0.0,0.0,0.0,0.0,0.0,0.0,0.0,0.0,0.0,0.0,0.0,0.0,0.0,0.0,0.0,0.0,0.0,0.0,0.0,0.0,0.0,0.0,0.0,0.0,0.0,0.0,0.0,0.0,0.0,0.0,0.0,0.0,0.0,0.0,0.0,0.0,0.0,0.0,0.0,0.0,0.0,0.0,0.0,0.0,0.0,0.0,0.0,0.0,0.0,0.0,0.0,0.0,0.0,0.0,0.0,0.0,0.0,0.0,0.0,0.0,0.0,0.0,0.0,0.0,0.0,0.0,0.0,0.0,0.0,0.0,0.0,0.0,0.0,0.0,0.0,0.0,0.0,0.0,0.0,0.0,0.0,0.0,0.0,0.0,0.0,0.0,0.0,0.0,0.0,0.0,0.0,0.0,0.0,0.0,0.0,0.0,0.0,0.0,0.0,0.0,0.0,0.0,0.0,0.0,0.0,0.0,0.0,0.0,0.0,0.0,0.0,0.0,0.0,0.0,0.0,0.0,0.0,0.0,0.0,0.0,0.0,0.0,0.0,0.0,0.0,0.0,0.0,0.0,0.0,0.0,0.0,0.0,0.0,0.0,0.0,0.0,0.0,0.0,0.0,0.0,0.0,0.0,0.0,0.0,0.0,0.0,0.0,0.0,0.0,0.0,0.0,0.0,0.0,0.0,0.0,0.0,0.0,0.0,0.0,0.0,0.0,0.0,0.0,0.0,0.0,0.0,0.0,0.0,0.0,0.0,0.0,0.0,0.0,0.0,0.0,0.0,0.0,0.0,0.0,0.0,0.0,0.0,0.0,0.0,0.0,0.0,0.0,0.0,0.0,0.0,0.0,0.0,0.0,0.0,0.0,0.0,0.0,0.0,0.0,0.0,0.0,0.0,0.0,0.0,0.0,0.0,0.0,0.0,0.0,0.0,0.0,0.0,0.0,0.0,0.0,0.0,0.0,0.0,0.0,0.0,0.0,0.0,0.0,0.0,0.0,0.0,0.0,0.0,0.0,0.0,0.0,0.0,0.0,0.0,0.0,0.0,0.0,0.0,0.0,0.0,0.0,0.0,0.0,0.0,0.0,0.0,0.0,0.0,0.0,0.0,0.0,0.0,0.0,0.0,0.0,0.0,0.0,0.0,0.0,0.0,0.0,0.0,0.0,0.0,0.0,0.0,0.0,0.0,0.0,0.0,0.0,0.0,0.0,0.0,0.0,0.0,0.0,0.0,0.0,0.0,0.0,0.0,0.0,0.0,0.0,0.0,0.0,0.0,0.0,0.0,0.0,0.0,0.0,0.0,0.0,0.0,0.0,0.0,0.0,0.0,0.0,0.0,0.0,0.0,0.0,0.0,0.0,0.0,0.0,0.0,0.0,0.0,0.0,0.0,0.0,0.0,0.0,0.0,0.0,0.0,0.0,0.0,0.0,0.0,0.0,0.0,0.0,0.0,0.0,0.0,0.0,0.0,0.0,0.0,0.0,0.0,0.0,0.0,0.0,0.0,0.0,0.0,0.0,0.0,0.0,0.0,0.0,0.0,0.0,0.0,0.0,0.0,0.0,0.0,0.0,0.0,0.0,0.0,0.0,0.0,0.0,0.0,0.0,0.0,0.0,0.0,0.0,0.0,0.0,0.0,0.0,0.0,0.0,0.0,0.0,0.0,0.0,0.0,0.0,0.0,0.0,0.0,0.0,0.0,0.0,0.0,0.0,0.0,0.0,0.0,0.0,0.0,0.0,0.0,0.0,0.0,0.0,0.0,0.0,0.0,0.0,0.0,0.0,0.0,0.0,0.0,0.0,0.0,0.0,0.0,0.0,0.0,0.0,0.0,0.0,0.0,0.0,0.0,0.0,0.0,0.0,0.0,0.0,0.0,0.0,0.0,0.0,0.0,0.0,0.0,0.0,0.0,0.0,0.0,0.0,0.0,0.0,0.0,0.0,0.0,0.0,0.0,0.0,0.0,0.0,0.0,0.0,0.0,0.0,0.0,0.0,0.0,0.0,0.0,0.0,0.0,0.0,0.0,0.0,0.0,0.0,0.0,0.0,0.0,0.0,0.0,0.0,0.0,0.0,0.0,0.0,0.0,0.0,0.0,0.0,0.0,0.0,0.0,0.0,0.0,0.0,0.0,0.0,0.0,0.0,0.0,0.0,0.0,0.0,0.0,0.0,0.0,0.0,0.0,0.0,0.0,0.0,0.0,0.0,0.0,0.0,0.0,0.0,0.0,0.0,0.0,0.0,0.0,0.0,0.0,0.0,0.0,0.0,0.0,0.0,0.0,0.0,0.0,0.0,0.0,0.0,0.0,0.0,0.0,0.0,0.0,0.0,0.0,0.0,0.0,0.0,0.0,0.0,0.0,0.0,0.0,0.0,0.0,0.0,0.0,0.0,0.0,0.0,0.0,0.0,0.0,0.0,0.0,0.0,0.0,0.0,0.0,0.0,0.0,0.0,0.0,0.0,0.0,0.0,0.0,0.0,0.0,0.0,0.0,0.0,0.0,0.0,0.0,0.0,0.0,0.0,0.0,0.0,0.0,0.0,0.0,0.0,0.0,0.0,0.0,0.0,0.0,0.0,0.0,0.0,0.0,0.0,0.0,0.0,0.0,0.0,0.0,0.0,0.0,0.0,0.0,0.0,0.0,0.0,0.0,0.0,0.0,0.0,0.0,0.0,0.0,0.0,0.0,0.0,0.0,0.0,0.0,0.0,0.0,0.0,0.0,0.0,0.0,0.0,0.0,0.0,0.0,0.0,0.0,0.0,0.0,0.0,0.0,0.0,0.0,0.0,0.0,0.0,0.0,0.0,0.0,0.0,0.0,0.0,0.0,0.0,0.0,0.0,0.0,0.0,0.0,0.0,0.0,0.0,0.0,0.0,0.0,0.0,0.0,0.0,0.0,0.0,0.0,0.0,0.0,0.0,0.0,0.0,0.0,0.0,0.0,0.0,0.0,0.0,0.0,0.0,0.0,0.0,0.0,0.0,0.0,0.0,0.0,0.0,0.0,0.0,0.0,0.0,0.0,0.0,0.0,0.0,0.0,0.0,0.0,0.0,0.0,0.0,0.0,0.0,0.0,0.0,0.0,0.0,0.0,0.0,0.0,0.0,0.0,0.0,0.0,0.0,0.0,0.0,0.0,0.0,0.0,0.0,0.0,0.0,0.0,0.0,0.0,0.0,0.0,0.0,0.0,0.0,0.0,0.0,0.0,0.0,0.0,0.0,0.0,0.0,0.0,0.0,0.0,0.0,0.0,0.0,0.0,0.0,0.0,0.0,0.0,0.0,0.0,0.0,0.0,0.0,0.0,0.0,0.0,0.0,0.0,0.0,0.0,0.0,0.0,0.0,0.0,0.0,0.0,0.0,0.0,0.0,0.0,0.0,0.0,0.0,0.0,0.0,0.0,0.0,0.0,0.0,0.0,0.0,0.0,0.0,0.0,0.0,0.0,0.0,0.0,0.0,0.0,0.0,0.0,0.0,0.0,0.0,0.0,0.0,0.0,0.0,0.0,0.0,0.0,0.0,0.0,0.0,0.0,0.0,0.0,0.0,0.0,0.0,0.0,0.0,0.0,0.0,0.0,0.0,0.0,0.0,0.0,0.0,0.0,0.0,0.0,0.0,0.0,0.0,0.0,0.0,0.0,0.0,0.0,0.0,0.0,0.0,0.0,0.0,0.0,0.0,0.0,0.0,0.0,0.0,0.0,0.0,0.0,0.0,-3.2417,0.0,0.0,0.0,0.0,0.0,0.0,0.0,0.0,0.0,0.0,0.0,0.0,0.0,0.0,0.0,0.0,0.0,0.0,0.0,0.0,0.0,0.0,0.0,0.0,0.0,0.0,0.0,0.0,0.0,0.0,0.0,0.0,0.0,0.0,0.0,0.0,0.0,0.0,0.0,0.0,0.0,0.0,0.0,0.0,0.0,0.0,0.0,0.0,0.0,0.0,0.0,0.0,0.0,0.0,0.0,0.0,0.0,0.0,0.0,0.0,0.0,0.0,0.0,0.0,0.0,0.0,0.0,0.0,0.0,0.0,0.0,0.0,0.0,0.0,0.0,0.0,0.0,0.0,0.0,0.0,0.0,0.0,0.0,0.0,0.0,0.0,0.0,0.0,0.0,0.0,0.0,0.0,0.0,0.0,0.0,0.0,0.0,0.0,0.0,0.0,0.0,0.0,0.0,0.0,0.0,0.0,0.0,0.0,0.0,0.0,0.0,0.0,0.0,0.0,0.0,0.0,-3.3319,0.0,0.0,0.0,0.0,0.0,0.0,0.0,0.0,0.0,0.0,0.0,0.0,0.0,0.0,0.0,0.0,0.0,0.0,0.0,0.0,0.0,0.0,0.0,0.0,0.0,0.0,0.0,0.0,0.0,0.0,0.0,0.0,0.0,0.0,0.0,0.0,0.0,0.0,0.0,0.0,0.0,0.0,0.0,0.0,0.0,0.0,0.0,0.0,0.0,0.0,0.0,0.0,0.0,0.0,0.0,0.0,0.0,0.0,0.0,0.0,0.0,0.0,0.0,0.0,0.0,0.0,0.0,0.0,0.0,0.0,0.0,0.0,0.0,0.0,0.0,0.0,0.0,0.0,0.0,0.0,0.0,0.0,0.0,0.0,0.0,0.0,0.0,0.0,0.0,0.0,0.0,0.0,0.0,0.0,0.0,0.0,0.0,0.0,0.0,0.0,0.0,0.0,0.0,0.0,0.0,0.0,0.0,0.0,-3.6828,-3.6981,-3.772,-3.8163,-3.8018,-3.7386,-3.548,-3.5156,-3.5734,-3.4216,0.0,0.0,0.0,0.0,0.0,0.0,0.0,0.0,0.0,0.0,0.0,0.0,0.0,0.0,0.0,0.0,0.0,0.0,0.0,0.0,0.0,0.0,0.0,0.0,0.0,0.0,0.0,0.0,0.0,0.0,0.0,0.0,0.0,0.0,0.0,0.0,0.0,0.0,-2.9316,-3.0201,-2.9686,-2.7979,-2.7518,0.0,0.0,0.0,0.0,0.0,0.0,0.0,0.0,0.0,0.0,0.0,0.0,0.0,0.0,0.0,0.0,0.0,0.0,0.0,0.0,0.0,0.0,0.0,0.0,0.0,0.0,0.0,0.0,0.0,0.0,0.0,0.0,0.0,0.0,0.0,0.0,0.0,0.0,0.0,0.0,0.0,0.0,0.0,-3.4326,-3.5796,0.0,0.0,0.0,0.0,0.0,0.0,0.0,0.0,0.0,0.0,0.0,0.0,0.0,-3.5493,-3.5906,-3.734,-3.8046,-3.7969,-3.8178,-3.8663,-3.9347,-3.8819,-3.8525,-3.8422,-3.7475,0.0,-3.4453,-3.4373,0.0,0.0,0.0,0.0,0.0,0.0,0.0,0.0,0.0,0.0,0.0,0.0,0.0,0.0,0.0,0.0,0.0,0.0,0.0,0.0,0.0,0.0,0.0,0.0,0.0,0.0,0.0,0.0,0.0,0.0,0.0,0.0,0.0,0.0,0.0,0.0,-2.8551,-2.9162,-2.9195,-2.9666,-2.8987,-2.7362,-2.7159,-2.6831,-2.6371,-2.5662,0.0,0.0,0.0,0.0,0.0,0.0,0.0,0.0,0.0,0.0,0.0,0.0,0.0,0.0,0.0,0.0,0.0,0.0,0.0,0.0,0.0,0.0,0.0,0.0,0.0,0.0,0.0,0.0,0.0,0.0,0.0,0.0,0.0,0.0,0.0,0.0,0.0,0.0,0.0,-3.3602,-3.5656,-3.5663,-3.5584,-3.4984,0.0,0.0,0.0,0.0,0.0,0.0,0.0,0.0,0.0,-3.5969,-3.662,-3.7172,-3.7613,-3.8518,-3.9065,-3.9323,-3.9251,-3.9595,-4.0348,-3.9328,-3.8836,-3.8764,-3.7628,-3.6342,-3.5044,-3.4659,-3.379,-3.2479,0.0,0.0,0.0,0.0,-2.8661,-2.9052,0.0,0.0,0.0,0.0,0.0,0.0,0.0,0.0,0.0,0.0,0.0,0.0,0.0,0.0,0.0,-2.5983,0.0,0.0,0.0,0.0,0.0,0.0,0.0,0.0,0.0,0.0,0.0,0.0,-2.8253,-2.8668,-2.8692,-2.8839,-2.8139,-2.6776,-2.6796,-2.6763,-2.6696,-2.6475,-2.5495,0.0,0.0,0.0,0.0,0.0,0.0,0.0,0.0,0.0,0.0,0.0,0.0,0.0,0.0,0.0,0.0,0.0,0.0,0.0,0.0,0.0,0.0,0.0,0.0,0.0,0.0,0.0,0.0,0.0,0.0,0.0,0.0,0.0,0.0,0.0,0.0,0.0,0.0,-3.5709,-3.7038,-3.5789,-3.727,-3.7318,0.0,0.0,0.0,0.0,0.0,0.0,-3.6328,-3.684,-3.7169,-3.7289,-3.8038,-3.8417,-3.8378,-3.9158,-3.9779,-4.0288,-3.9683,-3.9802,-4.038,-3.9231,-3.8522,-3.8187,-3.7383,-3.6463,-3.5466,-3.4793,-3.3964,-3.299,-3.156,-3.0271,-2.9101,-2.8611,-2.8616,-2.8853,0.0,0.0,0.0,0.0,0.0,0.0,0.0,0.0,0.0,0.0,0.0,0.0,0.0,0.0,-2.6563,-2.7342,-2.6685,-2.6305,0.0,0.0,0.0,0.0,0.0,0.0,0.0,0.0,0.0,-2.6301,-2.7034,-2.7457,-2.7572,-2.7783,-2.7459,-2.6702,-2.677,-2.6277,-2.5421,-2.5847,-2.5502,-2.4599,0.0,0.0,0.0,0.0,0.0,0.0,0.0,0.0,0.0,0.0,0.0,0.0,0.0,0.0,0.0,0.0,0.0,0.0,0.0,0.0,0.0,0.0,0.0,0.0,0.0,0.0,0.0,0.0,0.0,0.0,0.0,0.0,0.0,0.0,0.0,0.0,0.0,0.0,0.0,-3.78,-3.8861,0.0,0.0,0.0,0.0,-3.5551,-3.6534,-3.7192,-3.7131,-3.8232,-3.8693,-3.8328,-3.9043,-3.888,-3.7775,-3.9545,-4.0398,-4.0299,-3.9199,-3.8849,-3.9179,-3.8286,-3.7319,-3.6372,-3.7367,-3.6679,-3.4898,-3.4593,-3.3243,-3.1294,-3.0717,-2.9629,-2.8193,-2.766,-2.8148,-2.8953,0.0,0.0,0.0,0.0,0.0,0.0,0.0,0.0,0.0,0.0,0.0,0.0,0.0,-2.6244,-2.6243,-2.6577,-2.5775,-2.5356,-2.5512,0.0,0.0,0.0,0.0,0.0,0.0,0.0,-2.5901,-2.5882,-2.666,-2.6825,-2.6408,-2.6574,-2.6256,-2.5562,-2.5696,-2.5617,-2.5364,-2.5492,-2.5248,-2.471,-2.4043,-2.3312,0.0,0.0,0.0,0.0,0.0,0.0,0.0,0.0,0.0,0.0,0.0,0.0,0.0,0.0,0.0,0.0,0.0,0.0,0.0,0.0,0.0,0.0,0.0,0.0,0.0,0.0,0.0,0.0,0.0,0.0,0.0,0.0,0.0,0.0,0.0,0.0,0.0,-3.9967,-4.1282,0.0,-3.8702,-3.8785,-3.8633,-3.7692,-3.814,-3.8765,-3.947,-3.9249,-3.8984,-3.8844,-3.9039,-3.8995,-3.8752,-3.8636,-3.8538,-3.8512,-3.7586,-3.7041,-3.6882,-3.5748,-3.5116,-3.4864,-3.4234,-3.3834,-3.3599,-3.3301,-3.2404,-3.1263,-3.0753,-2.9682,-2.8377,-2.7686,-2.7448,-2.7331,0.0,0.0,0.0,0.0,0.0,0.0,0.0,0.0,0.0,0.0,0.0,-2.6129,-2.6467,-2.6042,-2.5939,-2.6437,-2.5491,-2.4937,-2.511,0.0,0.0,0.0,0.0,0.0,0.0,-2.4848,-2.4968,-2.4815,-2.5351,-2.5428,-2.506,-2.5218,-2.5076,-2.4737,-2.5,-2.5146,-2.5249,-2.5305,-2.5195,-2.4918,-2.4266,-2.3621,-2.2934,0.0,0.0,0.0,0.0,0.0,0.0,0.0,0.0,0.0,0.0,0.0,0.0,0.0,0.0,0.0,0.0,0.0,0.0,0.0,0.0,0.0,0.0,0.0,0.0,0.0,0.0,0.0,0.0,0.0,0.0,0.0,0.0,0.0,0.0,0.0,-4.0397,-4.0399,-4.2503,-4.2567,-3.8992,-3.9768,-3.9918,-3.8479,-3.911,-3.9528,-3.9415,-3.9212,-3.8746,-3.7977,-3.8466,-3.84,-3.7694,-3.7641,-3.7343,-3.6723,-3.5778,-3.5087,-3.4661,-3.3636,-3.3174,-3.3174,-3.253,-3.2373,-3.2522,-3.2266,-3.1455,-3.036,-2.9694,-2.8968,-2.8183,-2.7279,-2.6832,-2.6553,0.0,0.0,0.0,0.0,0.0,0.0,0.0,0.0,0.0,0.0,-2.5109,-2.5439,-2.6533,-2.578,-2.571,-2.7013,-2.5886,-2.519,-2.5314,-2.4829,0.0,0.0,0.0,0.0,-2.3932,-2.3601,-2.3302,-2.3053,-2.3053,-2.3234,-2.3559,-2.3741,-2.3989,-2.4329,-2.4666,-2.4834,-2.4881,-2.5238,-2.5349,-2.5258,-2.4812,-2.4189,-2.3474,0.0,0.0,0.0,0.0,0.0,0.0,0.0,0.0,0.0,0.0,0.0,0.0,0.0,0.0,0.0,0.0,0.0,0.0,0.0,0.0,0.0,0.0,0.0,0.0,0.0,0.0,0.0,0.0,0.0,0.0,0.0,0.0,0.0,-3.7334,-3.9596,-4.0625,-3.9166,-4.2435,-4.3088,-3.8716,-4.1022,-4.1343,-3.7824,-3.9303,-3.9295,-3.6861,-3.8197,-3.8007,-3.5774,-3.7377,-3.7076,-3.4541,-3.6609,-3.6835,-3.5238,-3.3936,-3.3085,-3.2619,-3.2082,-3.155,-3.1223,-3.2426,-3.2473,-3.1659,-3.1554,-3.0238,-2.8296,-2.7563,-2.74,-2.7393,-2.6243,-2.6185,-2.6654,0.0,0.0,0.0,0.0,0.0,0.0,0.0,0.0,0.0,0.0,-2.5395,-2.5589,-2.5616,-2.5244,-2.501,-2.5098,-2.4324,-2.3811,-2.3728,0.0,0.0,0.0,0.0,0.0,-2.2355,-2.2088,-2.1938,-2.1872,-2.1872,-2.2109,-2.2574,-2.2189,-2.226,-2.2682,-2.3159,-2.3453,-2.3652,-2.4635,-2.5132,-2.5284,-2.5163,-2.4759,-2.4132,0.0,0.0,0.0,0.0,0.0,0.0,0.0,0.0,0.0,0.0,0.0,0.0,0.0,0.0,0.0,0.0,0.0,0.0,0.0,0.0,0.0,0.0,0.0,0.0,0.0,0.0,0.0,0.0,0.0,0.0,0.0,0.0,-3.7736,-3.8516,-3.9373,-4.071,-4.2953,-4.297,-4.2791,-4.2743,-4.1379,-4.0094,-3.9102,-3.7902,-3.7247,-3.728,-3.734,-3.6901,-3.589,-3.6146,-3.5951,-3.5216,-3.4651,-3.415,-3.3696,-3.2383,-3.153,-3.1099,-3.0598,-3.0122,-2.9675,-2.9942,-2.9875,-2.959,-2.8947,-2.8309,-2.7639,-2.713,-2.665,-2.6012,-2.4489,-2.3973,-2.4065,0.0,0.0,0.0,0.0,0.0,0.0,0.0,0.0,0.0,0.0,-2.526,-2.5367,-2.5338,-2.4617,-2.4147,-2.412,-2.3377,-2.2745,-2.2444,0.0,0.0,0.0,0.0,-2.1016,-2.0667,-2.0544,-2.0447,-2.0382,-2.0321,-2.0503,-2.092,-2.0562,-2.0584,-2.0952,-2.1815,-2.2388,-2.277,-2.4119,-2.4876,-2.5176,-2.5114,-2.4858,-2.4433,-2.3821,-2.3216,-2.2652,-2.2296,-2.2286,-2.2352,-2.1708,0.0,0.0,0.0,0.0,0.0,0.0,0.0,0.0,0.0,0.0,0.0,0.0,0.0,0.0,0.0,0.0,0.0,0.0,0.0,0.0,0.0,0.0,0.0,0.0,-3.5732,-3.7151,-3.7909,-3.9418,-4.1522,-4.4386,-4.3337,-4.2123,-4.1468,-4.0321,-3.9008,-3.7566,-3.6795,-3.6335,-3.6186,-3.5833,-3.5479,-3.5036,-3.5253,-3.5059,-3.4361,-3.3705,-3.312,-3.2678,-3.146,-3.0723,-3.0477,-2.9793,-2.938,-2.9075,-2.9013,-2.8779,-2.8373,-2.7859,-2.7118,0.0,0.0,0.0,0.0,0.0,-2.3352,-2.3137,0.0,0.0,0.0,0.0,0.0,0.0,0.0,0.0,0.0,0.0,0.0,-2.4958,-2.5342,-2.4099,-2.3383,-2.3789,-2.29,-2.2051,0.0,0.0,0.0,-2.0142,-2.0026,-1.9623,-1.892,-1.8935,-1.8834,-1.8677,-1.8479,-1.8549,-1.8915,-1.8754,-1.8831,-1.9141,-2.045,-2.133,-2.1914,-2.3545,-2.45,-2.4919,-2.4779,-2.4617,-2.4451,-2.4081,-2.3544,-2.3003,-2.3038,-2.2873,-2.2574,-2.2695,0.0,0.0,0.0,0.0,0.0,0.0,0.0,0.0,0.0,0.0,0.0,0.0,0.0,0.0,0.0,0.0,0.0,0.0,0.0,0.0,0.0,0.0,0.0,0.0,-3.5717,-3.5689,-3.6279,-3.9286,-4.204,-4.366,-4.2739,-4.0757,-3.7679,-3.839,-3.7766,-3.4745,-3.5876,-3.6002,-3.4409,0.0,0.0,0.0,0.0,-3.435,-3.2876,-3.3359,-3.3072,-3.2073,-3.1067,-3.051,-3.0344,-2.9476,-2.9009,-2.8854,-2.8854,-2.8462,-2.776,-2.7561,-2.6395,-2.4762,-2.5228,-2.5322,-2.5128,-2.4323,-2.3554,-2.2986,0.0,0.0,0.0,0.0,0.0,0.0,0.0,0.0,0.0,-2.4939,-2.4903,-2.4822,-2.4637,-2.428,-2.3839,-2.3231,-2.2888,-2.1908,0.0,0.0,-1.8772,-1.8337,-1.8032,-1.7651,-1.7195,-1.7195,-1.6991,-1.6578,-1.6481,-1.6677,-1.7088,-1.6475,-1.6558,-1.7267,-1.8224,-1.9192,-2.0226,-2.2303,-2.3655,-2.4426,-2.4282,-2.4283,-2.4238,-2.3322,-2.2951,-2.2884,-2.2466,-2.2591,-2.297,-2.2838,-2.2972,-2.3045,-2.2062,0.0,0.0,0.0,0.0,0.0,0.0,0.0,0.0,0.0,0.0,0.0,0.0,0.0,0.0,0.0,0.0,0.0,0.0,0.0,0.0,-3.3832,-3.521,-3.6058,-3.568,-3.7285,-3.8869,-3.9881,-3.7745,-3.698,-3.8921,-3.6972,-3.5281,-3.4614,-3.4817,-3.4832,-3.4491,-3.4363,-3.4269,-3.4197,-3.4131,-3.3807,-3.3214,-3.3005,-3.2629,-3.2073,0.0,0.0,-2.9582,-2.9105,-2.8377,-2.7494,-2.7494,-2.7328,-2.7052,-2.6385,-2.5255,-2.3955,-2.3692,-2.3042,-2.233,-2.309,-2.2661,-2.1794,0.0,0.0,0.0,0.0,0.0,0.0,0.0,0.0,0.0,0.0,-2.4568,-2.4531,-2.4491,-2.423,-2.3905,-2.3545,-2.2454,0.0,0.0,-1.8229,-1.7518,-1.6625,-1.6676,-1.6532,-1.6133,-1.6089,-1.5903,-1.544,-1.5553,-1.5484,-1.5248,-1.4833,-1.5053,-1.5833,-1.6611,-1.771,-1.9193,-2.1554,-2.2838,-2.332,-2.3579,-2.3379,-2.2833,-2.2312,-2.199,-2.1919,-2.2536,-2.3126,-2.3675,-2.4145,-2.4498,-2.4559,-2.3385,-2.3038,-2.2962,0.0,0.0,0.0,0.0,0.0,0.0,0.0,0.0,0.0,0.0,0.0,0.0,0.0,0.0,-2.9661,0.0,0.0,-3.2411,-3.2929,-3.3569,-3.3938,-3.3835,-3.4358,-3.511,-3.6049,-3.6239,-3.6452,-3.6864,-3.5895,-3.5064,-3.462,-3.4561,-3.4517,-3.445,-3.4404,-3.4316,-3.4245,-3.4099,-3.3868,-3.355,-3.3154,-3.2553,-3.1788,-3.1035,-3.0159,-2.9185,-2.8502,-2.7888,-2.7332,-2.7169,-2.6851,-2.6356,-2.5013,-2.3896,-2.2951,-2.2442,-2.2103,-2.1939,-2.2549,-2.2196,-2.1367,0.0,0.0,0.0,0.0,0.0,0.0,0.0,0.0,0.0,0.0,-2.4224,-2.4366,-2.4607,-2.4257,-2.3961,0.0,0.0,0.0,0.0,-1.7276,-1.6348,-1.5207,-1.5487,-1.5555,-1.5289,-1.5289,-1.5096,-1.472,-1.4849,-1.4482,-1.3773,-1.3605,-1.3976,-1.4794,-1.5262,-1.6418,-1.8119,-1.8857,-1.9216,-1.927,-1.8694,-1.7678,-1.6628,-1.8037,-1.9398,-2.0722,-2.2299,-2.3272,-2.3991,-2.5293,-2.5774,-2.567,-2.4694,-2.3978,-2.3498,-2.3388,-2.3134,0.0,0.0,0.0,0.0,0.0,0.0,0.0,0.0,0.0,-2.9918,-2.9819,-2.984,-3.0066,-3.0663,-3.1029,-3.1477,-3.2119,-3.192,-3.1703,-3.1877,-3.1709,-3.191,-3.2865,-3.5319,-3.6254,-3.4445,-3.5146,-3.5418,-3.4703,-3.467,-3.4649,-3.4545,-3.4498,-3.4409,-3.4298,-3.4078,-3.3907,-3.3788,-3.3245,-3.2475,-3.1493,-3.0647,-2.9736,-2.8742,-2.7888,-2.7389,-2.7195,-2.6783,-2.6215,-2.5451,-2.3789,-2.274,-2.2137,-2.1616,-2.1708,-2.2129,-2.2028,-2.1718,-2.1166,0.0,0.0,0.0,0.0,0.0,0.0,0.0,0.0,0.0,0.0,0.0,0.0,0.0,0.0,0.0,0.0,0.0,0.0,-1.8055,-1.6267,-1.4982,-1.4351,-1.4247,-1.4351,-1.4512,-1.4512,-1.4362,-1.4107,-1.3635,-1.3377,-1.3268,-1.2786,-1.3159,-1.4262,-1.3986,-1.4882,-1.6203,-1.0673,-0.8462,-0.8198,-0.3251,-0.0163,0.0801,-0.5635,-1.2852,-1.9667,-2.0661,-2.1711,-2.2962,-2.4903,-2.5267,-2.4944,-2.4994,-2.4874,-2.4526,-2.3507,0.0,-2.3971,-2.3713,-2.5241,-2.7363,-2.9139,-3.0281,-3.1297,0.0,0.0,-3.2177,-3.229,-3.1938,-3.1444,-3.0808,-3.1322,-3.1603,-3.0994,-3.1434,-3.1601,-3.0894,-3.0751,-3.0921,-3.1402,-3.2483,-3.3549,-3.4463,-3.4827,-3.4964,-3.487,-3.498,-3.5047,-3.5011,-3.4794,-3.4653,-3.4632,-3.3657,-3.3352,-3.3788,-3.2746,-3.1954,-3.1416,-3.0991,-2.9799,-2.7909,-2.7481,-2.6709,-2.5707,-2.5067,-2.4528,-2.407,-2.3127,-2.2526,-2.2137,-2.1616,-2.1464,-2.1469,-2.1099,-2.0911,-2.0759,0.0,0.0,0.0,0.0,0.0,0.0,0.0,0.0,0.0,0.0,0.0,0.0,0.0,0.0,0.0,0.0,0.0,0.0,-1.7713,-1.622,-1.4744,-1.3236,-1.3399,-1.3695,-1.4025,-1.3836,-1.36,-1.3399,-1.3263,-1.2739,-1.1807,-1.1973,-1.2212,-1.2461,-1.1711,-1.1334,-1.0984,-0.7196,-0.4657,-0.2878,0.0577,0.2959,0.4213,0.1873,-0.3555,-1.0791,-1.7538,-2.1008,0.0,0.0,-2.6021,-2.6155,-2.6154,-2.5518,-2.4707,-2.4351,-2.407,0.0,-2.5421,-2.6374,0.0,0.0,-3.0167,-3.0627,-3.1503,-3.1261,-3.0767,-3.0624,-3.0144,-2.9711,-2.96,-2.9638,-2.9921,0.0,-3.043,-3.023,-3.0243,-2.9809,-2.9569,-2.9796,-3.1075,-3.2474,-3.3825,-3.4427,-3.4773,-3.4889,-3.5032,-3.5078,-3.5045,-3.4942,-3.487,-3.4813,-3.3801,-3.3325,-3.3506,-3.2254,-3.1238,-3.0463,-3.0057,-2.9089,-2.7614,-2.7131,-2.6369,-2.5465,-2.4791,-2.4135,-2.3435,-2.292,-2.2342,-2.1712,-2.1471,-2.1423,-2.1361,-2.0957,-2.0795,-2.0646,0.0,0.0,0.0,0.0,0.0,0.0,0.0,0.0,0.0,0.0,0.0,0.0,0.0,0.0,0.0,0.0,0.0,0.0,0.0,-1.661,-1.4855,-1.2783,-1.2871,-1.317,-1.3532,-1.3102,-1.2861,-1.2851,-1.2599,-1.1895,-1.0731,-1.1103,-1.1085,-1.0601,-0.8967,-0.7395,-0.5691,-0.1173,0.2256,0.4893,0.8154,1.0349,1.1495,0.9869,0.5282,-0.1663,-1.2442,-1.8524,0.0,0.0,-2.6042,-2.6068,-2.6205,-2.517,-2.3997,-2.4348,-2.4157,-2.4306,-2.6385,0.0,0.0,-2.9321,-2.9909,-3.0047,-3.0153,-2.9715,-2.9119,-2.8574,-2.8025,-2.7729,-2.7902,-2.8062,-2.8561,-2.9765,-2.9571,-2.9413,-2.9686,-2.9162,-2.8881,-2.9223,-3.0478,-3.1908,-3.3424,-3.4278,-3.4794,-3.4944,-3.5149,-3.5239,-3.5209,-3.5108,-3.5062,-3.4996,-3.379,-3.3183,-3.3308,-3.1807,-3.0656,-2.9882,-2.9372,-2.8576,-2.7569,-2.6841,-2.6104,-2.5313,-2.4558,-2.3824,-2.3039,-2.2603,-2.2016,-2.1396,-2.1247,-2.1083,-2.096,-2.0558,-2.0466,-2.0434,0.0,0.0,0.0,0.0,0.0,0.0,0.0,0.0,0.0,0.0,0.0,0.0,0.0,0.0,0.0,0.0,0.0,0.0,0.0,-1.7233,-1.5144,-1.3453,-1.2842,-1.2608,-1.2812,-1.2307,-1.215,-1.2415,-1.1223,-1.0671,-1.062,-1.0143,-0.966,-0.9037,-0.574,-0.3433,-0.1228,1.0164,1.5917,1.8028,2.479,2.8398,2.8761,1.9995,1.2611,0.5549,-0.4746,0.0,0.0,0.0,-2.4569,-2.3551,-2.4337,-2.3377,0.0,-2.2848,-2.3729,0.0,0.0,0.0,-2.7804,-2.871,-2.9761,-3.0358,-2.9539,-2.8928,-2.8228,-2.7114,-2.6592,-2.6238,-2.5803,-2.7192,-2.8328,-2.8122,-2.9179,-2.9806,-2.9132,-2.8941,-2.9287,-3.0304,-3.0721,-3.1664,0.0,-3.4543,-3.5098,-3.5098,-3.5451,-3.5673,-3.5673,-3.5432,-3.5288,-3.5281,-3.3413,-3.2712,-3.3289,-3.1406,-3.0319,-3.0076,-2.9466,-2.8705,-2.776,-2.6623,-2.5709,-2.495,-2.4032,-2.3275,-2.2649,-2.2077,-2.1664,-2.1355,-2.0738,-2.0321,-2.0012,-1.952,-1.9733,-1.9991,0.0,0.0,0.0,0.0,0.0,0.0,0.0,0.0,0.0,0.0,0.0,0.0,0.0,0.0,0.0,0.0,0.0,0.0,0.0,-1.8908,-1.6987,-1.4963,-1.4204,-1.3596,-1.3092,-1.346,-1.3157,-1.2066,-1.2733,-1.2462,-1.1266,-0.6894,-0.438,-0.3298,0.2451,0.6724,0.9962,1.5317,1.9345,2.2499,2.6878,2.8711,2.8092,2.117,1.3773,0.5894,0.0,0.0,0.0,0.0,0.0,0.0,-2.4726,0.0,0.0,-2.4005,0.0,0.0,0.0,0.0,-2.8152,-2.8541,-2.888,-2.8713,-2.7075,-2.6013,-2.4974,-2.3466,-2.3024,-2.3391,-2.4868,-2.5743,-2.6906,-2.8828,-2.9863,-3.0215,-2.9621,-3.0247,-3.089,-3.1254,-3.2833,0.0,0.0,0.0,0.0,-3.5216,-3.5528,-3.5704,-3.5704,-3.506,-3.4685,-3.4629,-3.2799,-3.1848,-3.1916,-3.0546,-2.9704,-2.936,-2.8676,-2.7912,-2.7132,-2.6402,-2.5689,-2.495,-2.4188,-2.3436,-2.262,-2.1826,-2.1434,-2.1328,-2.0351,-1.9959,-1.9885,-1.9068,-1.8735,-1.8659,0.0,0.0,0.0,0.0,0.0,0.0,0.0,0.0,0.0,0.0,0.0,0.0,0.0,0.0,0.0,0.0,0.0,0.0,0.0,0.0,-1.9049,-1.6946,-1.6389,-1.569,-1.4778,-1.5262,-1.4938,-1.3837,-1.4304,-1.411,-1.323,-0.8973,-0.6399,-0.5031,0.2735,0.8564,1.2864,1.8095,2.2157,2.5289,2.7559,2.6986,2.4266,1.9717,1.183,0.0,0.0,0.0,0.0,0.0,0.0,0.0,0.0,0.0,0.0,0.0,0.0,0.0,0.0,-2.5129,-2.5408,-2.5742,-2.5904,-2.5547,-2.3775,-2.2604,-2.1558,-2.0294,-2.0543,-2.1522,-2.3369,-2.4972,-2.6596,-2.8461,-2.9699,-3.0391,-3.0314,-3.0956,-3.1706,-3.2372,-3.3871,-3.4808,0.0,0.0,0.0,-3.5316,-3.5565,-3.5549,-3.524,-3.4698,-3.4243,-3.3881,-3.2389,-3.1473,-3.12,-3.02,-2.9398,-2.8827,-2.829,-2.7631,-2.6824,-2.6333,-2.5689,-2.4934,-2.3928,-2.3256,-2.2756,-2.16,-2.1315,-2.1397,-2.003,-1.9514,-1.9368,-1.8367,-1.7681,-1.7201,0.0,0.0,0.0,0.0,0.0,0.0,0.0,0.0,0.0,0.0,0.0,0.0,0.0,0.0,0.0,0.0,0.0,0.0,0.0,0.0,0.0,-1.9341,-1.917,-1.8675,-1.7697,-1.7559,-1.742,-1.7319,-1.5897,-1.5634,-1.642,-1.5443,-1.4475,-1.3134,-0.3971,0.2777,0.7899,1.8336,2.3883,2.5774,2.687,2.3636,1.7947,1.5552,0.0,0.0,0.0,0.0,0.0,0.0,0.0,0.0,0.0,0.0,0.0,0.0,0.0,-2.0575,-1.9629,-1.9514,-1.9788,-2.0324,-2.0846,-2.0939,-1.9726,-1.8871,-1.827,-1.7836,-1.9245,-2.0786,0.0,0.0,-2.7371,-2.7273,-2.8881,-3.0392,-3.1079,-3.1145,-3.1796,0.0,0.0,0.0,0.0,0.0,0.0,-3.5372,0.0,-3.5328,-3.4457,-3.435,-3.3933,-3.307,-3.2199,-3.1527,-3.114,-3.03,-2.9382,-2.8431,-2.8322,-2.7745,-2.6853,-2.6266,-2.564,-2.4918,-2.3331,-2.2827,-2.2995,-2.1538,-2.1282,-2.1622,-1.9779,-1.8885,-1.8511,-1.7443,-1.6528,-1.5811,0.0,0.0,0.0,0.0,0.0,0.0,0.0,0.0,0.0,0.0,0.0,0.0,0.0,0.0,0.0,0.0,0.0,0.0,0.0,0.0,0.0,0.0,0.0,0.0,0.0,0.0,0.0,0.0,0.0,-1.8885,-1.8128,-1.3048,-1.0522,-0.9896,-0.2674,0.21,0.5185,1.2253,1.3915,1.2243,0.0,1.5065,0.8074,0.0,0.0,0.0,0.0,0.0,0.0,0.0,0.0,0.0,0.0,0.0,-1.8116,0.0,0.0,-1.707,-1.4417,-1.4343,-1.4705,-1.3416,-1.4099,-1.5204,-1.5782,-1.6246,-1.6689,-1.7115,-1.9147,-2.138,0.0,0.0,0.0,-2.9059,-3.0185,0.0,-3.07,-3.2077,0.0,-3.3054,0.0,-3.4316,-3.4673,-3.4747,0.0,0.0,-3.5364,-3.5318,-3.4449,-3.378,-3.3024,-3.2164,-3.1293,-3.0648,-3.0316,-2.9794,-2.8913,-2.7677,-2.7536,-2.6994,-2.6038,-2.5547,-2.5183,-2.495,-2.4045,-2.346,-2.298,-2.1735,-2.1453,-2.1594,-1.9364,-1.8793,-1.8964,-1.7155,-1.6443,-1.624,0.0,0.0,0.0,0.0,0.0,0.0,0.0,0.0,0.0,0.0,0.0,0.0,0.0,0.0,0.0,0.0,0.0,0.0,0.0,0.0,0.0,0.0,0.0,0.0,0.0,0.0,0.0,0.0,0.0,0.0,0.0,-1.6604,-1.4884,-1.4628,-0.7702,-0.3417,-0.1031,0.4906,0.0,0.0,0.0,0.0,0.0,0.0,0.0,0.0,0.0,0.0,0.0,0.0,0.0,-1.7666,-1.6617,-1.6227,-1.596,-1.5021,0.0,-1.2181,-0.8497,-0.7216,-0.6745,-0.5914,-0.7336,-0.9379,-1.1114,-1.3365,-1.5505,-1.6738,-1.9296,0.0,0.0,0.0,0.0,0.0,0.0,0.0,-3.0668,-3.1826,-3.2714,0.0,-3.3244,0.0,-3.3863,-3.3949,-3.4139,0.0,-3.4944,-3.4785,-3.3921,-3.3016,-3.2145,-3.1294,-3.0762,-3.0321,-2.9958,-2.9662,-2.9047,-2.8099,-2.7845,-2.7272,-2.6444,-2.5816,-2.5406,-2.5182,0.0,-2.3525,-2.3348,-2.1662,-2.1287,-2.1479,-1.9383,-1.8776,-1.8929,-1.7375,-1.6696,-1.6443,0.0,0.0,0.0,0.0,0.0,0.0,0.0,0.0,0.0,0.0,0.0,0.0,0.0,0.0,0.0,0.0,0.0,0.0,0.0,0.0,0.0,0.0,0.0,0.0,0.0,0.0,0.0,0.0,0.0,0.0,0.0,0.0,0.0,0.0,0.0,0.0,0.0,0.0,0.0,0.0,0.0,0.0,0.0,0.0,0.0,0.0,0.0,0.0,0.0,0.0,-1.5566,-1.61,-1.4381,-1.4311,-1.4268,-1.1553,-0.9349,-0.6812,-0.2388,0.0443,0.1933,0.1027,-0.1129,-0.3864,-0.6963,-1.1084,-1.4837,-1.7029,0.0,-2.2625,-2.3879,-2.6836,-2.872,-2.7648,0.0,-3.0071,-3.0356,-3.0779,-3.1377,-3.2194,-3.2398,-3.2589,-3.2859,-3.3005,-3.3371,-3.412,-3.4173,-3.3894,-3.3239,-3.2324,-3.1439,-3.0636,-3.052,-3.0278,-2.9927,-2.9767,-2.9418,-2.8838,-2.8451,-2.7888,-2.7178,-2.6404,-2.5881,-2.5508,-2.3864,0.0,-2.3837,-2.1643,-2.1076,-2.139,-1.9377,-1.871,-1.8747,-1.7412,-1.6788,-1.6468,0.0,0.0,0.0,0.0,0.0,0.0,0.0,0.0,0.0,0.0,-2.2032,-2.1811,0.0,0.0,0.0,0.0,0.0,0.0,0.0,0.0,0.0,0.0,0.0,0.0,0.0,0.0,0.0,0.0,0.0,0.0,0.0,0.0,0.0,0.0,0.0,0.0,0.0,0.0,0.0,0.0,0.0,0.0,0.0,0.0,0.0,0.0,0.0,0.0,0.0,0.0,-1.2412,-1.3253,-1.0841,-1.0132,-0.9514,-0.5817,-0.4451,-0.2887,0.2778,0.5672,0.6495,0.4056,0.2733,0.0122,-0.7086,-1.1727,0.0,0.0,0.0,-2.4832,-2.6111,-2.7152,0.0,-2.7377,0.0,0.0,0.0,0.0,-3.0131,0.0,0.0,0.0,0.0,0.0,0.0,0.0,0.0,-3.2726,-3.3186,-3.2368,-3.1491,-3.0636,-3.0428,-3.0222,-2.9992,-2.9784,-2.9138,-2.7993,-2.7658,-2.7251,-2.6788,-2.5741,-2.5559,-2.5892,-2.4458,0.0,-2.3882,-2.2122,-2.152,-2.1356,-1.8567,-1.8275,-1.9031,-1.5599,-1.5345,-1.6408,0.0,0.0,0.0,0.0,0.0,0.0,0.0,-2.1117,-2.1694,-2.2402,-2.2527,-2.2309,-2.1768,-2.1768,-2.1811,0.0,0.0,0.0,0.0,0.0,0.0,0.0,0.0,0.0,0.0,0.0,0.0,0.0,0.0,0.0,0.0,0.0,0.0,0.0,0.0,0.0,0.0,0.0,0.0,0.0,0.0,0.0,0.0,0.0,0.0,0.0,0.0,0.0,0.0,0.0,-1.1104,-1.0637,-0.8012,-0.6969,-0.6201,-0.3607,-0.1844,0.0127,0.3957,0.7646,0.9761,0.6898,0.4465,0.1104,-0.5329,0.0,0.0,0.0,0.0,-2.5914,-2.7068,0.0,0.0,0.0,0.0,0.0,0.0,0.0,0.0,0.0,0.0,0.0,0.0,0.0,0.0,0.0,0.0,-3.1738,-3.2583,-3.1721,-3.0828,-2.994,-3.0269,-3.0316,-3.0007,-2.9899,-2.9382,-2.8415,-2.8082,-2.7741,-2.7341,-2.6277,-2.5809,-2.5822,-2.4542,0.0,-2.3216,-2.1606,-2.0604,-1.9826,-1.7798,-1.7375,-1.7752,-1.587,-1.562,-1.6031,0.0,0.0,0.0,0.0,0.0,0.0,0.0,-2.1116,-2.1824,-2.2868,-2.3237,-2.3102,-2.2233,-2.2011,-2.1899,0.0,0.0,0.0,0.0,0.0,0.0,0.0,0.0,0.0,0.0,0.0,0.0,0.0,0.0,0.0,0.0,0.0,0.0,0.0,0.0,0.0,0.0,0.0,0.0,0.0,0.0,0.0,0.0,0.0,0.0,0.0,0.0,0.0,0.0,0.0,-1.1719,-1.0126,-0.7937,-0.6129,-0.4501,-0.3136,-0.109,0.1099,0.2669,0.7092,1.0409,0.6943,0.3858,0.0347,-0.4741,-1.2377,0.0,0.0,-2.4813,-2.6649,-2.7748,0.0,0.0,0.0,0.0,0.0,0.0,0.0,0.0,0.0,0.0,0.0,0.0,0.0,0.0,0.0,0.0,0.0,-3.1774,-3.0886,-3.0101,-2.9588,-3.0247,-3.0419,-2.9988,-3.0007,-2.966,-2.9003,-2.867,-2.8298,-2.788,-2.6838,-2.6125,-2.557,-2.4461,0.0,0.0,-2.0997,-1.982,-1.8759,-1.7103,-1.6492,-1.6459,-1.5722,-1.5419,-1.5214,0.0,0.0,0.0,0.0,0.0,0.0,0.0,-2.1409,-2.2434,-2.378,-2.4264,-2.4247,-2.367,-2.2805,-2.222,0.0,0.0,0.0,0.0,0.0,0.0,0.0,0.0,0.0,0.0,0.0,0.0,0.0,0.0,0.0,0.0,0.0,0.0,0.0,0.0,0.0,0.0,0.0,0.0,0.0,0.0,0.0,0.0,0.0,0.0,0.0,0.0,0.0,0.0,0.0,0.0,-1.4257,-1.3371,-0.9764,-0.548,-0.3969,0.0,0.0,-0.1243,0.3155,0.6203,0.089,-0.0385,-0.1931,-0.8025,0.0,0.0,-2.3414,-2.5639,-2.7435,-2.879,-2.7799,0.0,0.0,0.0,0.0,0.0,0.0,0.0,0.0,0.0,0.0,0.0,0.0,0.0,0.0,0.0,0.0,-3.0911,-3.0017,-2.9805,-3.045,-3.0567,-3.0405,-2.9999,-2.9988,-2.9677,-2.8993,-2.8652,-2.8201,-2.7613,-2.679,-2.6019,-2.5303,-2.4395,0.0,0.0,-2.0918,-2.0154,-1.9722,-1.6451,-1.5818,-1.6365,-1.3174,-1.2817,-1.373,0.0,0.0,0.0,0.0,0.0,0.0,-2.0366,-2.1209,-2.2219,-2.3504,-2.4051,-2.4199,-2.3944,-2.3467,-2.2869,-2.2215,0.0,0.0,0.0,0.0,0.0,0.0,0.0,0.0,0.0,0.0,0.0,0.0,0.0,0.0,0.0,0.0,0.0,0.0,0.0,0.0,0.0,0.0,0.0,0.0,0.0,0.0,0.0,0.0,0.0,0.0,0.0,0.0,0.0,0.0,0.0,0.0,-1.6188,-1.3808,0.0,0.0,-0.6709,-0.465,-0.4876,0.1417,0.6232,-0.095,-0.1579,-0.2203,-0.8996,0.0,0.0,-2.3689,-2.5633,-2.7411,-2.8965,-2.82,-2.7232,0.0,0.0,0.0,0.0,0.0,0.0,0.0,0.0,0.0,0.0,0.0,0.0,0.0,0.0,0.0,-3.082,-3.0478,-3.0123,-2.9888,-3.0277,-3.0325,-3.0013,-2.9912,-2.9495,-2.8766,-2.8467,-2.8021,-2.7444,-2.6334,-2.5566,-2.4987,-2.4059,0.0,0.0,-1.9792,-1.8363,-1.6654,-1.4866,-1.4234,-1.4228,-1.2798,-1.2509,-1.2732,0.0,0.0,0.0,0.0,0.0,-1.9797,-2.0212,-2.1022,-2.2082,-2.3549,-2.4012,-2.4252,-2.4356,-2.4254,-2.3721,-2.2671,-2.2434,0.0,0.0,0.0,0.0,0.0,0.0,0.0,0.0,0.0,0.0,0.0,0.0,0.0,0.0,0.0,0.0,0.0,0.0,0.0,0.0,0.0,0.0,0.0,0.0,0.0,0.0,0.0,0.0,0.0,0.0,0.0,0.0,0.0,0.0,0.0,0.0,0.0,0.0,0.0,-1.1208,-0.9188,-1.0122,-0.4128,0.0822,-0.5633,-0.5769,-0.5753,0.0,0.0,-2.2167,-2.4077,-2.5866,-2.7559,-2.8987,-2.8654,-2.8077,0.0,0.0,-2.7788,0.0,0.0,0.0,0.0,0.0,0.0,0.0,0.0,0.0,0.0,0.0,0.0,-3.0852,-3.0859,-3.0506,-2.9802,-3.0175,-3.0282,-3.0028,-2.9832,-2.9322,-2.8492,-2.8036,-2.7586,-2.7117,-2.5408,-2.4482,-2.416,-2.2859,0.0,0.0,-1.8425,-1.6939,-1.4971,-1.3984,-1.3291,-1.2866,-1.2552,-1.2172,-1.183,0.0,0.0,0.0,0.0,0.0,0.0,-2.0246,-2.099,-2.2235,-2.4322,-2.4478,-2.4627,-2.5224,-2.5212,-2.4778,-2.3755,-2.2649,0.0,0.0,0.0,0.0,0.0,0.0,0.0,0.0,0.0,-2.6983,-2.7172,-2.827,0.0,0.0,0.0,0.0,0.0,0.0,0.0,0.0,0.0,0.0,0.0,0.0,0.0,0.0,0.0,0.0,0.0,0.0,0.0,0.0,0.0,0.0,0.0,0.0,0.0,0.0,0.0,-1.5978,-1.6056,-1.7747,-1.5253,-1.2728,-1.5006,-1.4618,-1.4142,0.0,0.0,-2.3162,-2.476,-2.6593,-2.8145,-2.8948,-2.9093,-2.9113,-2.9177,-2.9081,0.0,0.0,0.0,0.0,0.0,0.0,0.0,0.0,0.0,0.0,0.0,0.0,0.0,-3.0886,-3.0892,-3.0838,-3.0691,-3.0498,-3.0293,-3.0089,-2.9784,-2.9161,-2.8276,-2.736,-2.6825,-2.6522,-2.3851,-2.2634,0.0,0.0,0.0,0.0,-1.7021,-1.6528,-1.6016,-1.4198,-1.3341,-1.2954,-1.1916,-1.1256,-1.0919,0.0,0.0,0.0,0.0,0.0,0.0,0.0,-2.0894,-2.1999,-2.3637,-2.4222,-2.4751,-2.5476,-2.5562,-2.5179,-2.4201,-2.3762,0.0,0.0,0.0,0.0,0.0,0.0,0.0,0.0,0.0,-2.8236,-2.8576,-2.9456,-2.9579,-2.9013,-2.8821,0.0,0.0,0.0,0.0,0.0,0.0,0.0,0.0,0.0,0.0,0.0,0.0,0.0,0.0,0.0,0.0,0.0,0.0,0.0,0.0,0.0,0.0,0.0,0.0,0.0,0.0,-2.0,-1.5495,-1.1617,-1.6026,-1.5048,-1.39,-1.7402,0.0,-2.4082,-2.5135,-2.6531,-2.7956,-2.9279,-2.9804,-2.9955,-2.9655,-2.951,0.0,0.0,0.0,0.0,0.0,0.0,0.0,0.0,0.0,0.0,0.0,0.0,0.0,-3.0886,-3.08,-3.074,-3.07,-3.0467,-3.0254,-3.0089,-2.9132,-2.8556,-2.8424,-2.6693,-2.5768,-2.5497,-2.3541,-2.2236,0.0,0.0,0.0,0.0,-1.6862,-1.5645,-1.384,-1.2911,-1.2148,-1.1588,-1.152,-1.147,-1.1353,0.0,0.0,0.0,0.0,0.0,0.0,0.0,-2.1007,-2.1954,-2.3489,-2.3911,-2.4537,-2.5635,-2.5768,-2.5564,-2.5026,-2.5039,0.0,0.0,0.0,0.0,0.0,0.0,0.0,0.0,-2.8415,-2.9313,-2.962,-3.0226,-3.0345,-2.9986,-2.9446,-2.8867,-2.8254,0.0,0.0,0.0,0.0,0.0,0.0,0.0,0.0,-2.7945,0.0,0.0,0.0,0.0,0.0,0.0,0.0,0.0,0.0,0.0,0.0,0.0,0.0,0.0,0.0,0.0,-2.018,-1.7098,-2.0559,-1.9286,0.0,0.0,0.0,-2.5286,-2.6083,-2.71,-2.8164,-2.9214,-3.0155,-3.0711,-3.0542,-3.0666,0.0,0.0,0.0,0.0,0.0,0.0,0.0,0.0,0.0,0.0,0.0,0.0,0.0,-3.0415,-3.0624,-3.0582,-3.0221,-3.0244,-3.0213,-3.0089,-2.8799,-2.7914,-2.7452,-2.5433,-2.4339,-2.4067,-2.2045,-2.0957,0.0,0.0,0.0,0.0,-1.5847,-1.4534,-1.2661,-1.2246,-1.1627,-1.0919,-1.0943,-1.0902,-1.0818,0.0,0.0,0.0,0.0,0.0,0.0,0.0,-2.1324,-2.2048,-2.3768,-2.3701,-2.4113,-2.5797,-2.5982,-2.6011,-2.6117,0.0,0.0,0.0,0.0,0.0,0.0,0.0,0.0,-2.7827,-2.9341,-3.0177,-3.0346,-3.058,-3.0457,-3.0011,-2.9444,-2.8866,-2.8264,-2.7982,-2.7212,-2.6063,-2.5053,-2.5325,-2.6374,-2.5747,-2.6495,0.0,0.0,0.0,0.0,0.0,0.0,0.0,0.0,0.0,0.0,0.0,0.0,0.0,0.0,0.0,0.0,0.0,0.0,0.0,0.0,0.0,0.0,0.0,0.0,0.0,0.0,-2.8147,-2.8688,-2.882,-3.0208,-3.1379,-3.1592,-3.2251,0.0,0.0,0.0,0.0,0.0,0.0,0.0,0.0,0.0,0.0,0.0,0.0,0.0,-2.963,-3.0293,-3.0284,-2.9347,-2.9777,-3.0016,-3.0013,-2.8502,-2.7046,-2.5697,-2.3689,-2.2573,-2.2248,-1.9685,-1.8982,0.0,0.0,0.0,0.0,-1.4399,-1.3412,-1.2401,-1.215,-1.1553,-1.0764,-1.0273,-0.9881,-0.9546,0.0,0.0,0.0,0.0,0.0,0.0,0.0,0.0,0.0,0.0,-2.4137,-2.4859,-2.6548,-2.6751,-2.6702,0.0,0.0,0.0,0.0,0.0,0.0,0.0,0.0,0.0,-2.9297,-2.9836,-3.0296,-3.0687,-3.0689,-3.0508,-3.0133,-2.9382,-2.8625,-2.7877,-2.7007,-2.6495,-2.6276,-2.5797,-2.6451,-2.7854,-2.7308,-2.7798,0.0,0.0,0.0,0.0,-3.0085,-3.0169,0.0,0.0,0.0,0.0,0.0,0.0,0.0,0.0,-2.9871,0.0,0.0,0.0,0.0,0.0,0.0,0.0,0.0,0.0,0.0,0.0,0.0,-2.8817,-2.8503,-3.0577,-3.2039,-3.1086,-3.2102,0.0,0.0,0.0,0.0,0.0,0.0,0.0,0.0,0.0,0.0,0.0,0.0,-3.0423,-2.963,-2.9726,-2.9377,-2.8434,-2.8327,-2.8568,-2.918,-2.6514,-2.5087,-2.4928,-2.23,-2.0917,-2.0539,-1.9242,-1.8176,0.0,0.0,0.0,-1.5253,-1.4836,-1.3904,-1.2624,-1.1923,-1.0933,-0.9932,-1.0171,-1.0152,-0.9951,0.0,0.0,0.0,0.0,0.0,0.0,0.0,0.0,0.0,0.0,0.0,-2.5535,-2.6855,-2.704,0.0,0.0,0.0,0.0,0.0,0.0,0.0,0.0,0.0,-2.9325,-2.9848,-3.0133,-3.0432,-3.0747,-3.0784,-3.0615,-3.0275,-2.9512,-2.881,-2.8152,-2.6914,-2.659,-2.6961,-2.6631,-2.7226,-2.8377,-2.8319,0.0,0.0,0.0,0.0,0.0,-3.0013,-3.0241,0.0,-3.0316,-3.0196,-3.0022,0.0,0.0,0.0,0.0,-3.0163,-3.0013,-2.999,-2.9347,0.0,0.0,0.0,0.0,0.0,0.0,0.0,0.0,0.0,0.0,-2.9669,0.0,0.0,-3.2426,-3.3102,0.0,0.0,0.0,0.0,0.0,0.0,0.0,0.0,0.0,0.0,0.0,0.0,-2.9884,-2.9045,-2.8944,-2.8496,-2.7582,-2.7686,-2.7742,-2.7746,-2.582,-2.432,-2.3256,-2.1414,-2.0067,-1.9099,-1.8419,-1.7669,0.0,0.0,0.0,-1.5424,-1.474,-1.3719,-1.2472,-1.1535,-1.0532,-0.9567,-0.9336,-0.9207,-0.9071,0.0,0.0,0.0,0.0,0.0,0.0,0.0,0.0,0.0,0.0,0.0,0.0,0.0,0.0,0.0,0.0,0.0,0.0,0.0,0.0,0.0,0.0,0.0,-2.9796,-2.9952,-3.0303,-3.056,-3.0704,-3.0819,-3.0712,-3.0385,-2.9704,-2.9026,-2.8403,-2.7189,-2.7088,-2.7818,-2.763,-2.8017,-2.8838,-2.9316,0.0,0.0,0.0,0.0,0.0,0.0,0.0,0.0,-3.0241,-3.0114,-2.9992,-2.9939,0.0,0.0,0.0,0.0,0.0,-3.0018,-2.998,-2.9826,-2.9583,0.0,0.0,0.0,0.0,0.0,0.0,0.0,0.0,0.0,0.0,0.0,0.0,0.0,0.0,0.0,0.0,0.0,0.0,0.0,0.0,0.0,0.0,0.0,0.0,0.0,-2.8967,-2.7952,-2.7968,-2.7535,-2.6503,-2.7102,-2.6941,-2.5977,-2.5543,-2.4063,-2.1551,-2.0732,-1.9501,-1.789,-1.7444,-1.7227,-1.7158,0.0,0.0,-1.5497,-1.4397,-1.3281,-1.22,-1.1142,-1.0233,-0.9372,-0.8318,-0.7934,-0.7773,0.0,0.0,0.0,0.0,0.0,0.0,0.0,0.0,0.0,0.0,0.0,0.0,0.0,0.0,0.0,0.0,0.0,0.0,0.0,0.0,0.0,-2.9603,-2.9777,-2.9956,-3.0144,-3.0389,-3.058,-3.0701,-3.0719,-3.0622,-3.039,-2.9883,-2.8816,-2.7355,-2.7352,-2.7721,-2.8422,-2.9299,-3.0044,-3.074,-3.1066,0.0,0.0,0.0,0.0,0.0,0.0,0.0,0.0,-3.0228,-3.0114,-2.9962,-2.9732,0.0,0.0,0.0,0.0,0.0,-2.9886,-3.0107,-3.021,-2.9784,0.0,0.0,0.0,0.0,0.0,0.0,0.0,0.0,0.0,0.0,0.0,0.0,0.0,0.0,0.0,0.0,0.0,0.0,0.0,0.0,0.0,0.0,0.0,0.0,0.0,-2.7795,-2.6195,-2.6737,-2.6314,-2.4579,-2.5274,-2.513,-2.3968,-2.4425,-2.3546,-2.1332,-1.9917,-1.8461,-1.6985,-1.6561,-1.6165,-1.5772,0.0,-1.5108,-1.4858,-1.3941,-1.3067,-1.2177,-1.0941,-0.9912,-0.8973,-0.8086,-0.7656,-0.737,0.0,0.0,0.0,0.0,0.0,0.0,0.0,0.0,0.0,0.0,0.0,0.0,0.0,0.0,0.0,0.0,0.0,0.0,0.0,0.0,-2.9422,-2.953,-2.9865,-3.0166,-3.0353,-3.0378,-3.0417,-3.0486,-3.0511,-3.0433,-3.0222,-2.9568,-2.8621,-2.7502,-2.806,-2.8628,-2.923,-3.03,-3.0989,-3.1401,0.0,0.0,0.0,0.0,0.0,0.0,0.0,0.0,0.0,0.0,-2.9965,-2.9839,-2.9532,0.0,0.0,0.0,0.0,0.0,-2.9904,-3.016,-3.0253,-3.0102,0.0,0.0,0.0,0.0,0.0,0.0,0.0,0.0,0.0,0.0,0.0,0.0,0.0,0.0,0.0,0.0,0.0,0.0,0.0,0.0,0.0,0.0,0.0,0.0,0.0,0.0,-2.6442,-2.6241,-2.5749,-2.4885,-2.5457,-2.5209,-2.4005,-2.4111,-2.2923,-2.042,-1.9386,-1.8143,-1.6725,-1.6405,-1.5881,-1.5225,0.0,-1.4631,-1.3998,-1.3426,-1.2628,-1.1653,-1.0251,-0.931,-0.8613,-0.7609,-0.7131,-0.6865,0.0,0.0,0.0,0.0,0.0,0.0,0.0,0.0,0.0,0.0,0.0,0.0,0.0,0.0,0.0,0.0,0.0,0.0,0.0,0.0,-2.9085,-2.9383,-2.9907,-3.0233,-3.0384,-3.0323,-3.0277,-3.0203,-3.0313,-3.0307,-3.0152,-2.9421,-2.8838,-2.8416,-2.9137,-2.9733,-3.0275,-3.1232,-3.1753,-3.1899,0.0,0.0,0.0,0.0,0.0,0.0,0.0,0.0,0.0,0.0,0.0,0.0,0.0,0.0,0.0,-2.9166,-2.9254,-2.9458,-2.9934,-3.0169,-3.0275,0.0,0.0,0.0,-3.004,0.0,0.0,0.0,0.0,0.0,0.0,0.0,0.0,0.0,0.0,0.0,0.0,0.0,0.0,0.0,0.0,0.0,0.0,0.0,0.0,0.0,0.0,0.0,-2.6406,-2.582,-2.5394,-2.5162,-2.5646,-2.5224,-2.3805,-2.3382,-2.205,-1.982,-1.9053,-1.7972,-1.6632,-1.6227,-1.5681,-1.4968,-1.4614,-1.3973,-1.3134,-1.2556,-1.1809,-1.0922,-0.9521,-0.8599,-0.8032,-0.7302,-0.6834,-0.6605,0.0,0.0,0.0,0.0,0.0,0.0,0.0,0.0,0.0,0.0,0.0,0.0,0.0,0.0,0.0,0.0,0.0,0.0,0.0,0.0,-2.9898,-2.9685,-2.9945,-3.0083,-3.003,-3.0205,-3.018,-2.9928,-3.0179,-3.0333,-3.0369,-2.9871,-2.9814,-3.0154,-3.0648,-3.121,-3.1768,-3.2429,-3.2709,-3.2699,-3.2249,0.0,0.0,0.0,0.0,0.0,0.0,0.0,0.0,0.0,0.0,0.0,0.0,0.0,-2.8767,-2.8887,-2.9193,-2.9567,-2.9914,-3.0234,-3.0427,-3.0185,0.0,0.0,-3.0114,0.0,0.0,0.0,0.0,0.0,0.0,0.0,0.0,0.0,0.0,0.0,0.0,0.0,0.0,0.0,0.0,0.0,0.0,0.0,0.0,0.0,0.0,0.0,-2.4629,-2.5174,-2.506,-2.4142,-2.4752,-2.4098,-2.2004,-2.1351,-2.076,-2.0229,-1.8958,-1.7643,-1.6409,-1.5696,-1.5255,-1.4909,-1.3485,-1.2735,-1.2475,-1.1136,-1.0341,-0.9917,-0.8916,-0.791,-0.7062,-0.7278,-0.7182,-0.6894,0.0,0.0,0.0,0.0,0.0,0.0,0.0,0.0,0.0,0.0,0.0,0.0,0.0,0.0,0.0,0.0,0.0,0.0,0.0,-2.9017,-2.933,-2.8987,-2.9848,-3.0079,-2.9517,-3.0038,-3.0243,-3.016,-3.0212,-3.0287,-3.0394,-3.0475,-3.0595,-3.0784,-3.1931,-3.2195,-3.1911,-3.3088,-3.3423,-3.3111,-3.3186,-3.3055,0.0,0.0,0.0,0.0,0.0,0.0,0.0,0.0,-2.9095,-2.8983,0.0,0.0,-2.8785,0.0,-2.9208,-2.9649,-2.9979,-3.0154,-3.0222,-3.0074,0.0,0.0,0.0,0.0,0.0,0.0,0.0,0.0,0.0,0.0,0.0,0.0,0.0,0.0,0.0,0.0,0.0,0.0,0.0,0.0,0.0,0.0,0.0,0.0,0.0,0.0,-2.443,-2.3563,-2.2854,-2.2403,-2.2748,-2.1922,-1.9773,-2.0617,-2.0252,-1.867,-1.7656,-1.6828,-1.612,-1.5207,-1.4587,-1.416,-1.3355,-1.2177,-1.0821,-1.0651,-0.9856,-0.8713,-0.8077,-0.7478,-0.7015,-0.7081,-0.712,-0.7076,0.0,0.0,0.0,0.0,0.0,0.0,0.0,0.0,0.0,0.0,0.0,0.0,0.0,0.0,0.0,0.0,0.0,0.0,-2.8027,-2.8518,-2.8676,-2.8415,-2.9351,-2.9685,-2.9272,-2.9756,-3.0055,-3.0098,-3.0235,-3.0347,-3.0437,-3.0984,-3.1237,-3.1275,-3.2527,-3.2708,-3.2128,-3.325,-3.3437,-3.3055,-3.3359,-3.3265,0.0,0.0,0.0,0.0,0.0,0.0,0.0,0.0,0.0,0.0,0.0,0.0,0.0,0.0,0.0,-2.9832,-3.0113,-3.0176,0.0,0.0,0.0,0.0,0.0,0.0,0.0,0.0,0.0,0.0,0.0,0.0,0.0,0.0,0.0,0.0,0.0,0.0,0.0,0.0,0.0,0.0,0.0,0.0,0.0,0.0,0.0,0.0,0.0,-2.2302,-2.1417,-2.1001,-2.1009,-1.9973,-1.7841,-1.9516,-1.918,-1.6819,-1.6406,-1.6307,-1.6383,-1.4963,-1.4069,-1.3608,-1.2532,-1.1101,-0.9546,-0.9416,-0.8611,-0.7391,-0.7048,-0.6957,-0.6942,-0.6814,-0.6819,-0.6901,0.0,0.0,0.0,0.0,0.0,0.0,0.0,0.0,0.0,0.0,0.0,0.0,0.0,0.0,0.0,0.0,0.0,0.0,-2.83,-2.8219,-2.821,-2.8196,-2.8469,-2.8855,-2.9391,-2.9399,-2.9495,-2.9698,-3.0231,-3.0507,-3.0526,-3.1391,-3.1779,-3.1732,-3.2345,-3.2609,-3.2603,-3.282,-3.2704,-3.2423,-3.2642,-3.2521,-3.2214,0.0,0.0,0.0,0.0,0.0,0.0,0.0,0.0,0.0,0.0,0.0,0.0,-2.9397,-2.9827,-3.0143,-3.0342,-3.035,0.0,0.0,0.0,0.0,0.0,0.0,0.0,0.0,0.0,0.0,0.0,0.0,0.0,0.0,0.0,0.0,0.0,0.0,0.0,0.0,0.0,0.0,0.0,0.0,0.0,0.0,0.0,0.0,0.0,-2.1608,-2.1095,-2.0077,-1.9687,-1.8444,-1.6294,-1.7813,-1.7354,-1.4894,-1.5366,-1.6202,-1.7283,-1.4943,-1.3772,-1.3446,-1.076,-0.9369,-0.8838,-0.7177,-0.6274,-0.5989,-0.5929,-0.6213,-0.6677,-0.6562,-0.6428,-0.6289,0.0,0.0,0.0,0.0,0.0,0.0,0.0,0.0,0.0,0.0,0.0,0.0,0.0,0.0,0.0,0.0,0.0,0.0,-2.877,-2.8551,-2.8443,-2.8481,-2.9219,-2.952,-2.9259,-2.9566,-2.9845,-3.0047,-3.0073,-3.0248,-3.0595,-3.1462,-3.1871,-3.194,-3.2698,-3.2637,-3.2031,-3.324,-3.3373,-3.2863,-3.405,-3.4075,-3.3404,0.0,0.0,0.0,0.0,0.0,0.0,0.0,0.0,0.0,0.0,0.0,0.0,-2.9431,-2.9939,-3.0306,-3.0325,0.0,0.0,0.0,0.0,0.0,0.0,0.0,0.0,0.0,0.0,0.0,0.0,0.0,0.0,0.0,0.0,0.0,0.0,0.0,0.0,0.0,0.0,0.0,0.0,0.0,0.0,0.0,0.0,0.0,0.0,-1.8958,-1.7752,-1.7299,-1.7217,-1.6215,-1.4202,-1.6149,-1.6117,-1.4126,-1.4265,-1.4817,-1.5624,-1.3191,-1.1907,-1.1564,-1.0504,-0.9133,-0.7559,-0.6098,-0.5471,-0.5446,-0.5621,-0.5803,-0.6008,-0.6102,-0.6039,-0.5867,0.0,0.0,0.0,0.0,0.0,0.0,0.0,0.0,0.0,0.0,-2.8621,0.0,0.0,0.0,0.0,0.0,0.0,0.0,0.0,-2.9092,-2.894,-2.8548,-2.9373,-2.9737,-2.9497,-2.9927,-3.0335,-3.0753,-3.0816,-3.0931,-3.1099,-3.2049,-3.2137,-3.1516,-3.2316,-3.2352,-3.1895,-3.3087,-3.3366,-3.3119,-3.433,-3.4275,-3.3463,0.0,0.0,0.0,0.0,0.0,0.0,0.0,0.0,0.0,0.0,0.0,0.0,-2.9564,-2.9998,-3.0292,-3.0203,0.0,0.0,0.0,0.0,0.0,0.0,0.0,0.0,0.0,0.0,0.0,0.0,0.0,0.0,0.0,0.0,0.0,0.0,0.0,0.0,0.0,0.0,0.0,0.0,0.0,0.0,0.0,0.0,0.0,0.0,-1.7258,-1.6048,-1.5326,-1.5266,-1.4509,-1.299,-1.4713,-1.4766,-1.3205,-1.3248,-1.3326,-1.3354,-1.1727,-1.08,-1.0433,-0.9386,-0.7996,-0.6388,-0.5435,-0.497,-0.4848,-0.4904,-0.5137,-0.5446,-0.55,-0.5487,-0.5437,0.0,0.0,0.0,0.0,0.0,0.0,0.0,0.0,0.0,0.0,-2.9864,-3.0275,0.0,0.0,0.0,0.0,0.0,0.0,0.0,0.0,-2.9562,-2.8644,-2.9281,-2.9848,-3.0197,-3.0472,-3.1003,-3.1849,-3.2026,-3.2027,-3.181,-3.2711,-3.2277,-3.0739,-3.1465,-3.1864,-3.2035,-3.2587,-3.3012,-3.3316,-3.393,-3.3621,-3.2813,-3.2763,0.0,0.0,0.0,0.0,0.0,0.0,0.0,0.0,0.0,0.0,-2.9284,-2.9825,-3.0072,-3.0165,0.0,0.0,0.0,0.0,0.0,0.0,0.0,0.0,0.0,0.0,0.0,0.0,0.0,0.0,0.0,0.0,0.0,0.0,0.0,0.0,0.0,0.0,0.0,0.0,0.0,0.0,0.0,0.0,0.0,0.0,0.0,-1.6278,-1.5562,-1.4137,-1.3819,-1.3302,-1.2479,-1.3424,-1.3296,-1.2126,-1.2182,-1.1673,-1.0755,-1.0468,-1.0132,-0.9713,-0.7792,-0.6425,-0.555,-0.5123,-0.4704,-0.4287,-0.4005,-0.4328,-0.4878,-0.4807,-0.4824,-0.4923,0.0,0.0,0.0,0.0,0.0,0.0,0.0,0.0,0.0,0.0,0.0,0.0,0.0,0.0,0.0,0.0,0.0,0.0,0.0,0.0,-2.9782,-3.0179,-3.0593,-3.1145,-3.1775,-3.1568,-3.2145,-3.3548,-3.1822,-3.1246,-3.1792,-3.1385,-3.1042,-3.0771,-3.0905,-3.1348,-3.2046,-3.285,-3.3439,-3.3895,-3.4546,-3.4036,-3.2893,-3.3107,-3.255,0.0,0.0,0.0,0.0,0.0,0.0,0.0,-2.972,-2.9852,-2.9907,-3.0388,-3.0373,0.0,0.0,0.0,0.0,0.0,0.0,0.0,0.0,0.0,0.0,0.0,0.0,0.0,0.0,0.0,0.0,0.0,0.0,0.0,0.0,0.0,0.0,0.0,0.0,0.0,0.0,0.0,0.0,0.0,0.0,0.0,-1.6231,-1.5346,-1.4548,-1.3964,-1.3189,-1.262,-1.227,-1.1822,-1.1315,0.0,-1.0114,-0.9461,-0.8818,-0.8996,-0.8824,-0.8287,-0.7052,-0.6419,-0.6124,-0.5098,-0.4553,-0.435,-0.4078,-0.409,-0.4212,-0.436,-0.4413,-0.4447,0.0,0.0,0.0,0.0,0.0,0.0,0.0,0.0,0.0,0.0,0.0,0.0,0.0,0.0,0.0,0.0,0.0,0.0,0.0,0.0,-3.0942,-3.1196,-3.1533,-3.1914,-3.2283,-3.242,-3.3022,-3.4143,-3.2735,-3.2364,-3.2976,-3.1831,-3.1367,-3.1407,-3.0919,-3.1425,-3.2644,-3.3063,-3.3781,-3.4615,-3.4437,-3.377,-3.285,-3.2481,-3.1794,-3.104,-3.1357,0.0,0.0,0.0,0.0,0.0,0.0,0.0,-2.9776,-3.0224,0.0,0.0,0.0,0.0,0.0,0.0,0.0,0.0,0.0,0.0,0.0,0.0,0.0,0.0,0.0,0.0,0.0,0.0,0.0,0.0,0.0,0.0,0.0,0.0,0.0,0.0,0.0,0.0,0.0,0.0,0.0,-1.6939,-1.6827,-1.5838,-1.5081,-1.4677,-1.3658,-1.2831,-1.2211,-1.138,-1.0483,-0.9615,-0.8967,-0.834,-0.7714,-0.7907,-0.7724,-0.7262,-0.6794,-0.6527,-0.6322,-0.5331,-0.4762,-0.4458,-0.4115,-0.399,-0.3969,-0.3991,-0.4079,-0.4184,0.0,0.0,0.0,0.0,0.0,0.0,0.0,0.0,0.0,0.0,0.0,0.0,0.0,0.0,0.0,0.0,0.0,0.0,0.0,0.0,0.0,-3.1984,-3.2283,-3.247,-3.247,-3.3124,-3.3739,-3.428,-3.3865,-3.3892,-3.4296,-3.279,-3.2024,-3.1841,-3.1052,-3.1688,-3.3282,-3.3076,-3.3829,-3.5019,-3.3968,-3.3166,-3.2552,-3.1684,-3.1073,-3.0682,-3.0762,-3.0748,-3.0698,-3.1072,0.0,0.0,0.0,0.0,-2.9468,-2.9939,0.0,0.0,0.0,0.0,0.0,0.0,0.0,0.0,0.0,0.0,0.0,0.0,0.0,0.0,0.0,0.0,0.0,0.0,0.0,0.0,0.0,0.0,0.0,0.0,0.0,0.0,0.0,0.0,0.0,0.0,0.0,-1.833,-1.7736,-1.6723,-1.5848,-1.5168,-1.4085,-1.2908,-1.1668,-1.0934,-0.9942,-0.8663,-0.8232,-0.7685,-0.7066,-0.7168,-0.7051,-0.6702,-0.6763,-0.6681,-0.6421,-0.5624,-0.5087,-0.4666,-0.4183,-0.3966,-0.3912,-0.38,-0.3898,-0.4049,0.0,0.0,0.0,0.0,0.0,0.0,0.0,0.0,0.0,0.0,0.0,0.0,0.0,0.0,0.0,0.0,0.0,0.0,0.0,0.0,0.0,-3.2666,-3.3001,-3.3172,-3.3172,-3.3778,-3.4265,-3.464,-3.4178,-3.4126,0.0,0.0,-3.1694,-3.0971,-3.0847,-3.1717,-3.3248,-3.2483,-3.3045,-3.4338,-3.3267,-3.2335,-3.1607,-3.1563,-3.151,-3.1391,-3.0884,-3.1141,-3.1596,-3.0921,-3.0477,0.0,0.0,0.0,-2.9745,0.0,0.0,0.0,0.0,0.0,0.0,0.0,0.0,0.0,0.0,0.0,0.0,0.0,0.0,0.0,0.0,0.0,0.0,0.0,0.0,0.0,0.0,0.0,0.0,0.0,0.0,0.0,0.0,0.0,0.0,0.0,-1.8537,-1.763,-1.848,-1.6951,-1.5328,-1.3806,-1.2838,-1.143,-0.9536,-0.9109,-0.8519,-0.7695,-0.7383,-0.6993,-0.6527,-0.7097,-0.7285,-0.7123,-0.6897,-0.6781,-0.6681,-0.5686,-0.5246,-0.5119,-0.4312,-0.4029,-0.4068,-0.3996,-0.3936,-0.3904,0.0,0.0,0.0,0.0,0.0,0.0,0.0,0.0,0.0,0.0,0.0,0.0,0.0,0.0,0.0,0.0,0.0,0.0,0.0,0.0,0.0,-3.3437,-3.3358,-3.352,-3.3954,-3.3963,-3.4213,-3.4698,-3.4573,0.0,0.0,-3.3005,-3.2285,0.0,0.0,-3.1464,-3.2544,-3.2202,-3.2655,-3.3587,-3.2983,-3.2225,-3.1441,-3.1882,-3.1589,-3.0954,-3.1146,-3.1245,-3.1263,-3.0808,-3.0469,-3.0234,-3.0145,0.0,0.0,0.0,0.0,0.0,0.0,0.0,0.0,0.0,0.0,0.0,0.0,0.0,0.0,0.0,0.0,0.0,0.0,0.0,0.0,0.0,0.0,0.0,0.0,0.0,0.0,0.0,0.0,0.0,0.0,0.0,0.0,0.0,-1.9864,-1.9029,-1.8137,-1.6866,-1.5301,-1.337,-1.2245,-1.1018,-0.969,-0.9036,-0.8068,-0.682,-0.6504,-0.643,-0.6507,-0.6827,-0.691,-0.6857,-0.6827,-0.6811,-0.672,-0.5811,-0.5302,-0.5068,-0.4403,-0.4049,-0.385,-0.3765,-0.376,-0.3779,0.0,0.0,0.0,0.0,0.0,0.0,0.0,0.0,0.0,0.0,0.0,0.0,0.0,0.0,0.0,0.0,0.0,0.0,0.0,0.0,0.0,0.0,0.0,-3.3651,-3.4172,-3.4,-3.4074,-3.4459,0.0,0.0,-3.2946,-3.309,-3.2666,0.0,-3.1058,-3.1339,0.0,0.0,0.0,-3.2792,-3.2619,-3.2,-3.1232,-3.1657,-3.1165,-3.0331,-3.0884,-3.0835,-3.0498,-3.0402,-3.0143,-2.9822,-2.968,-2.9277,0.0,0.0,0.0,0.0,0.0,0.0,0.0,0.0,0.0,0.0,0.0,0.0,0.0,0.0,0.0,0.0,0.0,0.0,0.0,0.0,0.0,0.0,0.0,0.0,0.0,0.0,0.0,0.0,0.0,0.0,0.0,0.0,-1.7863,-1.6522,-1.387,-1.3903,-1.2784,-1.0183,-1.0255,-0.9652,-0.821,-0.7903,-0.7204,-0.6191,-0.6029,-0.6145,-0.6466,-0.6565,-0.6593,-0.6551,-0.6703,-0.6681,-0.6529,-0.5742,-0.5295,-0.4966,-0.45,-0.4118,-0.384,-0.3623,-0.3603,-0.3612,0.0,0.0,0.0,0.0,0.0,0.0,0.0,0.0,0.0,0.0,0.0,0.0,-3.3381,-3.325,-3.317,-3.3041,-3.3056,-3.3268,-3.3733,-3.3762,-3.3753,-3.3808,0.0,0.0,-3.3268,-3.385,-3.4056,0.0,0.0,0.0,-3.2817,-3.3019,-3.2304,-3.0862,-3.0681,-3.1597,-3.3183,0.0,0.0,0.0,-3.1899,-3.1357,-3.0606,0.0,0.0,0.0,0.0,0.0,-2.9477,-2.9477,-2.9095,-2.8562,-2.845,-2.8418,-2.849,0.0,0.0,0.0,0.0,0.0,0.0,0.0,0.0,0.0,0.0,0.0,0.0,0.0,0.0,0.0,0.0,0.0,0.0,0.0,0.0,0.0,0.0,0.0,0.0,0.0,0.0,0.0,0.0,0.0,0.0,0.0,-0.9327,-0.6478,-0.3362,-0.6033,-0.5814,-0.1761,-0.5573,-0.6176,-0.3022,-0.4202,-0.5194,-0.592,-0.6237,-0.6291,-0.6129,-0.6466,-0.6526,-0.6419,-0.6557,-0.6352,-0.5921,-0.5491,-0.5239,-0.5036,-0.45,-0.428,-0.4209,-0.3846,-0.3599,-0.3432,0.0,0.0,0.0,0.0,0.0,0.0,0.0,0.0,0.0,0.0,0.0,0.0,0.0,-3.4338,-3.4239,-3.4027,-3.3757,-3.3666,-3.377,-3.3807,-3.4027,-3.4559,-3.4353,-3.4189,-3.4033,-3.4063,0.0,0.0,0.0,-3.418,-3.3444,-3.3161,-3.2794,-3.2298,-3.1669,-3.1499,-3.1741,-3.2508,0.0,0.0,-3.2517,-3.2198,-3.1476,0.0,0.0,0.0,0.0,0.0,0.0,0.0,0.0,-2.8478,-2.835,-2.8049,-2.7777,-2.8026,0.0,0.0,0.0,0.0,0.0,0.0,0.0,0.0,0.0,0.0,0.0,0.0,0.0,0.0,0.0,0.0,0.0,0.0,0.0,0.0,0.0,0.0,0.0,0.0,0.0,0.0,0.0,0.0,0.0,0.0,0.0,-0.4628,-0.2024,-0.2207,-0.1362,0.0854,-0.1166,-0.2742,-0.361,-0.3923,-0.4709,-0.5888,-0.5815,-0.5934,-0.6229,-0.6126,-0.5986,-0.5844,-0.6106,-0.6106,-0.5859,-0.5467,-0.5081,-0.4756,-0.4441,-0.4151,-0.3873,-0.3646,-0.3528,-0.3469,0.0,0.0,0.0,0.0,0.0,0.0,0.0,0.0,0.0,-3.5114,0.0,0.0,0.0,0.0,-3.4472,-3.4193,-3.4006,-3.3868,-3.386,-3.3815,-3.4045,-3.4578,-3.4527,-3.4442,-3.4263,-3.4324,-3.4153,0.0,0.0,0.0,0.0,-3.3448,-3.3281,-3.3197,-3.2843,-3.2162,0.0,0.0,0.0,-3.1621,-3.2439,-3.2244,-3.1543,0.0,0.0,0.0,0.0,0.0,0.0,0.0,0.0,0.0,0.0,0.0,0.0,0.0,0.0,0.0,0.0,0.0,0.0,0.0,0.0,0.0,0.0,0.0,0.0,0.0,0.0,0.0,0.0,0.0,0.0,0.0,0.0,0.0,0.0,0.0,0.0,0.0,0.0,0.0,0.0,0.0,0.0,0.0,0.0,0.0,0.3504,0.2944,0.2487,0.244,0.2157,0.0773,-0.182,-0.1373,-0.2012,-0.3693,-0.3475,-0.3959,-0.5053,-0.4955,-0.4919,-0.4974,-0.5335,-0.5414,-0.5257,-0.5207,-0.4896,-0.4377,-0.4312,-0.4091,-0.3733,-0.3565,-0.3467,-0.339,0.0,0.0,0.0,0.0,0.0,0.0,0.0,0.0,-3.5432,-3.5254,0.0,0.0,0.0,0.0,0.0,-3.3564,-3.3766,-3.3895,-3.3895,-3.386,-3.3807,-3.3807,-3.4255,-3.4303,-3.3805,-3.4639,-3.4657,0.0,0.0,0.0,0.0,0.0,-3.3717,-3.3263,-3.4083,-3.3551,-3.2045,0.0,-3.1582,-3.0808,0.0,-3.1481,-3.0779,0.0,0.0,0.0,-3.106,-3.0466,0.0,-3.0548,0.0,0.0,0.0,0.0,0.0,0.0,0.0,0.0,0.0,0.0,0.0,0.0,0.0,0.0,0.0,0.0,0.0,0.0,0.0,0.0,0.0,0.0,0.0,0.0,0.0,0.0,0.0,0.0,0.0,0.0,0.0,0.0,0.0,0.0,0.0,0.0,0.17,0.6873,1.3692,0.9632,0.6006,0.3593,0.4448,0.429,0.2881,0.3713,0.2989,0.0763,0.0659,-0.0505,-0.2585,-0.292,-0.3384,-0.3957,-0.4317,-0.4301,-0.4026,-0.4704,-0.4602,-0.4026,-0.4215,-0.4151,-0.3858,-0.3597,-0.3405,-0.3212,0.0,0.0,0.0,0.0,0.0,0.0,-3.5108,-3.5403,-3.5611,0.0,0.0,0.0,-3.5553,-3.51,-3.4727,-3.4472,-3.4289,-3.4093,-3.3921,-3.386,-3.368,-3.3437,-3.4393,-3.4478,-3.3512,-3.4588,-3.4606,0.0,-3.4168,-3.4305,-3.3979,-3.3891,0.0,0.0,-3.3682,-3.3279,-3.2887,-3.4095,0.0,0.0,-3.3099,-3.3186,0.0,0.0,0.0,0.0,0.0,-3.2289,-3.1641,0.0,-3.0593,-2.9558,0.0,0.0,0.0,0.0,0.0,0.0,-2.7043,0.0,0.0,0.0,0.0,0.0,0.0,0.0,0.0,0.0,0.0,0.0,0.0,0.0,0.0,0.0,0.0,0.0,0.0,0.0,0.0,0.0,0.0,0.0,0.0,0.0,0.0,0.0,0.3594,0.7197,1.0696,1.1604,1.1024,0.8798,0.8764,0.7392,0.4497,0.4707,0.3922,0.2139,0.1492,0.0123,-0.1821,-0.2292,-0.3326,-0.4672,-0.4405,-0.4024,-0.3695,-0.4371,-0.4312,-0.3831,-0.4156,-0.4086,-0.3733,-0.3565,-0.3298,-0.297,0.0,0.0,0.0,0.0,0.0,-3.5876,-3.535,-3.5563,-3.5896,0.0,0.0,0.0,-3.5706,-3.535,-3.4973,-3.4339,-3.4341,-3.4255,-3.3972,-3.3868,-3.3734,-3.3522,-3.4508,-3.4782,-3.4111,-3.5131,-3.5087,-3.3914,-3.4385,-3.4404,-3.3981,-3.4112,-3.4338,0.0,0.0,0.0,0.0,0.0,0.0,0.0,-3.3451,0.0,0.0,-3.3208,-3.3229,0.0,0.0,0.0,-3.2377,-3.2072,-3.0991,0.0,0.0,0.0,0.0,0.0,0.0,0.0,0.0,0.0,0.0,0.0,0.0,0.0,-2.5413,-2.5323,-2.4943,0.0,0.0,0.0,0.0,0.0,0.0,0.0,0.0,0.0,0.0,0.0,0.0,0.0,0.0,0.0,0.0,-0.5212,-0.2766,0.0048,0.3035,0.606,0.9079,1.0704,1.0976,0.9713,0.8296,0.6524,0.4418,0.553,0.5325,0.3782,0.319,0.1826,-0.0222,-0.1879,-0.3342,-0.4525,-0.4392,-0.4085,-0.3721,-0.439,-0.4242,-0.3667,-0.4118,-0.4086,-0.3765,-0.3565,-0.3233,-0.2801,0.0,0.0,0.0,-3.6091,-3.6217,-3.6209,-3.5719,-3.5885,-3.6253,0.0,-3.6872,-3.6578,-3.5834,-3.5435,-3.4835,-3.3828,-3.4216,-3.4386,-3.4023,-3.3947,-3.3842,-3.3734,-3.4533,-3.4975,-3.4922,-3.5645,-3.5515,-3.4401,-3.4801,-3.4533,-3.367,-3.432,-3.4808,-3.5101,0.0,0.0,0.0,0.0,0.0,-3.3336,-3.3345,-3.3277,0.0,0.0,-3.3501,0.0,-3.4463,-3.3703,-3.2402,-3.2732,-3.1013,0.0,0.0,0.0,0.0,0.0,-2.6135,0.0,0.0,0.0,0.0,0.0,0.0,0.0,-2.4763,-2.4954,-2.4999,-2.3961,0.0,0.0,0.0,0.0,0.0,0.0,0.0,0.0,0.0,0.0,0.0,0.0,0.0,0.0,-0.4702,-0.2298,-0.0778,-0.0555,0.1454,0.4311,0.8005,0.8212,0.8055,0.7684,0.5315,0.3833,0.3315,0.5749,0.6325,0.4995,0.4708,0.3444,0.1237,-0.1714,-0.3442,-0.4157,-0.4394,-0.4334,-0.4103,-0.4685,-0.4375,-0.363,-0.4151,-0.4151,-0.3826,-0.3532,-0.3134,-0.2636,0.0,0.0,-3.8173,-3.7785,-3.7946,-3.7747,-3.6707,-3.6818,-3.683,-3.6274,-3.6059,-3.614,-3.6675,-3.5963,-3.5232,-3.468,-3.4717,-3.4545,-3.4049,-3.3947,-3.3762,-3.3408,-3.3916,-3.4072,-3.3741,-3.4258,-3.4098,-3.3242,-3.3899,-3.3916,-3.3328,-3.3988,-3.4532,-3.4944,0.0,0.0,0.0,0.0,0.0,-3.4272,-3.4701,0.0,-3.3277,-3.4623,-3.522,-3.5349,-3.5578,-3.5429,-3.4851,-3.3153,-3.0604,-2.8073,0.0,0.0,0.0,0.0,0.0,0.0,0.0,0.0,0.0,0.0,0.0,0.0,-2.5141,-2.5836,-2.6184,0.0,0.0,0.0,0.0,0.0,0.0,0.0,0.0,0.0,0.0,0.0,0.0,0.0,0.0,0.0,-0.1783,-0.2373,-0.1746,0.1001,0.3263,0.4714,0.5204,0.7573,0.7693,0.5031,0.5878,0.5195,0.2784,0.3452,0.3566,0.3112,0.2329,0.0924,-0.1005,-0.2286,-0.3853,-0.5564,-0.494,-0.484,-0.5095,-0.5059,-0.4636,-0.4011,-0.4403,-0.4183,-0.3597,-0.3167,-0.2639,-0.2042,0.0,0.0,-3.8464,-3.7692,-3.8116,-3.8055,-3.6455,-3.683,-3.7148,-3.6708,-3.6473,-3.6498,-3.6953,-3.6095,-3.5339,-3.4945,-3.487,-3.4609,-3.4049,-3.3972,-3.3842,-3.355,-3.4008,-3.4092,-3.3704,-3.4139,-3.3873,-3.2904,-3.3635,-3.3645,-3.3021,-3.3416,0.0,0.0,0.0,0.0,0.0,0.0,-3.368,-3.3331,-3.4353,0.0,-3.44,-3.5234,-3.564,-3.5704,-3.5325,-3.4648,-3.3704,-3.2436,-3.0554,0.0,0.0,-2.7055,-2.5508,0.0,-2.4625,-2.4275,0.0,0.0,0.0,-2.4296,0.0,0.0,0.0,-2.5063,-2.5568,-2.4385,0.0,0.0,0.0,0.0,0.0,0.0,0.0,0.0,0.0,0.0,0.0,0.0,0.0,0.0,0.023,-0.0927,-0.0963,0.0905,0.2031,0.281,0.322,0.4033,0.3615,0.1771,0.1494,0.0443,-0.1511,-0.0988,-0.0934,-0.1429,-0.117,-0.1794,-0.3229,-0.4262,-0.5512,-0.6806,-0.6248,-0.6134,-0.6326,-0.6156,-0.571,-0.5055,-0.4718,-0.4307,-0.3826,-0.313,-0.2507,-0.1878,0.0,0.0,0.0,-3.7561,-3.8059,-3.8055,-3.6348,-3.6785,-3.7243,-3.7067,-3.674,-3.655,-3.655,-3.5626,0.0,-3.4504,-3.4433,-3.4276,-3.3864,-3.3783,-3.3707,-3.3595,-3.4029,-3.4073,-3.3627,-3.397,-3.3715,-3.2792,-3.3389,-3.339,-3.2809,-3.2855,0.0,0.0,0.0,0.0,0.0,0.0,0.0,-3.2318,0.0,-3.4276,-3.4815,-3.513,-3.5231,-3.5099,-3.433,-3.3027,-3.1637,-3.139,0.0,-2.9149,-2.9139,-2.7703,0.0,0.0,0.0,0.0,0.0,0.0,0.0,0.0,0.0,-2.3254,0.0,0.0,0.0,0.0,0.0,0.0,0.0,0.0,0.0,0.0,0.0,0.0,0.0,0.0,0.0,0.0,0.0,0.0,0.0,-0.0058,-0.0395,-0.0268,-0.0259,0.01,0.0931,-0.0239,-0.1252,-0.1916,-0.3825,-0.5325,-0.644,-0.5677,-0.5728,-0.6557,-0.5175,-0.4962,-0.5819,-0.6798,-0.7501,-0.7947,-0.7712,-0.7588,-0.7511,-0.7336,-0.6871,-0.6183,-0.5156,-0.4494,-0.4011,-0.313,-0.2441,-0.1811,-3.7895,-3.8401,0.0,0.0,-3.8878,-3.845,-3.7985,-3.7566,-3.7028,-3.6247,-3.5407,-3.4859,0.0,0.0,0.0,0.0,0.0,0.0,-3.3269,0.0,-3.2896,-3.282,-3.3203,-3.3092,-3.234,-3.2494,-3.2511,-3.2389,-3.2441,-3.2592,-3.2809,-3.2556,0.0,0.0,-3.2103,0.0,0.0,0.0,-3.1656,0.0,-3.2967,-3.2653,0.0,-3.3793,-3.4002,-3.3388,-3.2648,-3.1716,-3.0808,0.0,-2.9419,-2.798,0.0,-2.7201,-2.5616,0.0,0.0,0.0,0.0,0.0,0.0,0.0,-2.3395,0.0,0.0,0.0,-2.3342,-2.3468,0.0,0.0,0.0,0.0,0.0,0.0,0.0,0.0,0.0,0.0,0.0,0.0,0.0,0.0,0.0,-0.2206,-0.2122,-0.2491,-0.2344,-0.2503,-0.2997,-0.3397,-0.4338,-0.6058,-0.6489,-0.7483,-0.9148,-0.8992,-0.9424,-1.0451,-0.9395,-0.904,-0.9323,-0.9221,-0.9065,-0.8836,-0.8767,-0.8585,-0.8346,-0.8029,-0.755,-0.6871,-0.5798,-0.4757,-0.3732,-0.2798,-0.2109,-0.1473,-3.7959,-3.8401,0.0,0.0,-3.9081,-3.8882,-3.7647,-3.6927,-3.6404,-3.6049,-3.5178,0.0,0.0,0.0,0.0,0.0,0.0,-3.271,0.0,0.0,-3.3147,-3.3379,-3.3551,-3.3386,-3.2814,-3.2666,-3.2486,-3.2283,-3.2283,-3.2241,-3.2085,-3.1707,0.0,0.0,-3.0427,0.0,-3.1708,0.0,0.0,0.0,0.0,0.0,0.0,-3.3557,-3.317,-3.165,-3.0869,-3.0019,-2.9318,0.0,-2.9252,0.0,0.0,0.0,0.0,0.0,0.0,0.0,0.0,0.0,0.0,0.0,0.0,0.0,-2.379,0.0,-2.3981,0.0,0.0,0.0,0.0,0.0,0.0,0.0,0.0,0.0,0.0,0.0,0.0,0.0,0.0,0.0,0.0,0.0,0.0,0.0,-0.3291,-0.4224,-0.4711,-0.6015,-0.7243,-0.821,-0.8268,-0.9097,-1.0738,-1.1115,-1.1885,-1.3061,-1.2019,-1.1671,-1.1967,-1.0992,-1.0535,-1.0505,-1.0264,-0.978,-0.9112,-0.8815,-0.7952,-0.6743,-0.5891,-0.4891,-0.3856,-0.2798,-0.2073,-0.144,-3.8282,0.0,0.0,0.0,0.0,0.0,0.0,0.0,0.0,0.0,0.0,0.0,-3.4306,-3.334,0.0,0.0,-3.1999,-3.2145,0.0,0.0,-3.301,0.0,0.0,0.0,-3.2903,-3.2733,-3.2549,-3.2437,-3.2352,-3.2015,0.0,-3.098,0.0,0.0,0.0,-2.9763,-3.1657,0.0,0.0,-3.2309,-3.2204,-3.1968,-3.1804,-3.2829,-3.2019,-3.0203,-2.9168,-2.8394,-2.7959,-2.8557,-2.8641,0.0,-2.7984,0.0,0.0,0.0,0.0,0.0,-2.4171,0.0,0.0,0.0,0.0,0.0,0.0,0.0,0.0,0.0,0.0,0.0,0.0,0.0,0.0,0.0,0.0,0.0,0.0,0.0,0.0,0.0,0.0,0.0,0.0,0.0,0.0,-0.2228,-0.4229,-0.5726,-0.6163,-0.8012,-0.9219,-0.9447,-0.9383,-0.995,-1.1182,-1.1872,-1.2868,-1.4098,-1.3416,-1.3274,-1.3566,-1.249,-1.1939,-1.1795,-1.1508,-1.0787,-0.974,-0.9351,-0.822,-0.6674,-0.5792,-0.4928,-0.3995,-0.2798,-0.204,-0.1473,-3.9119,-3.9017,0.0,0.0,0.0,0.0,0.0,0.0,0.0,0.0,0.0,0.0,0.0,0.0,0.0,0.0,0.0,-3.0534,-3.1401,0.0,-3.1958,0.0,0.0,-3.2717,0.0,-3.2096,-3.2408,-3.2763,-3.247,-3.1932,0.0,0.0,0.0,0.0,0.0,-2.9761,-3.1824,-3.0737,-3.1765,-3.4098,-3.3901,-3.2972,-3.163,0.0,-3.0188,-2.9226,-2.7566,0.0,0.0,-2.7068,-2.7031,0.0,0.0,0.0,0.0,0.0,0.0,0.0,0.0,0.0,0.0,-2.5067,0.0,0.0,0.0,0.0,-2.3195,0.0,0.0,0.0,0.0,0.0,0.0,0.0,0.0,0.0,0.0,0.0,0.0,0.0,0.0,0.0,0.0,0.0,0.0,-0.3569,-0.5521,-0.7138,-0.7988,-0.9155,-0.9802,-0.9866,-0.9733,-0.9821,-1.0134,-1.0893,-1.1873,-1.3143,-1.3445,-1.3697,-1.3885,-1.3838,-1.3285,-1.2377,-1.2226,-1.141,-1.0122,-0.9458,-0.8414,-0.7032,-0.5652,-0.4744,-0.4031,-0.2768,-0.2006,-0.1509,0.0,0.0,0.0,0.0,0.0,0.0,0.0,-3.7074,0.0,0.0,0.0,0.0,0.0,-3.1683,-3.0975,0.0,0.0,-3.0655,-3.1355,-3.1584,0.0,0.0,0.0,-3.22,0.0,0.0,0.0,-3.2014,-3.12,0.0,0.0,0.0,0.0,0.0,0.0,-2.9846,0.0,0.0,0.0,0.0,0.0,-3.2168,-3.0752,0.0,0.0,-2.7548,-2.644,-2.6089,0.0,-2.6138,-2.6519,-2.6914,-2.6585,-2.6637,-2.6684,-2.6104,-2.551,0.0,0.0,0.0,-2.4529,-2.4444,0.0,0.0,0.0,0.0,0.0,0.0,0.0,0.0,0.0,0.0,0.0,0.0,0.0,0.0,0.0,0.0,0.0,0.0,0.0,0.0,0.0,0.0,0.0,-0.6308,-0.6731,-0.7143,-0.7351,-0.8462,-0.8841,-0.8346,-0.848,-0.8952,-0.9739,-1.0981,-1.1976,-1.2711,-1.4034,-1.4087,-1.3073,-1.3906,-1.3458,-1.2005,-1.2148,-1.1176,-0.9484,-0.892,-0.7577,-0.5792,-0.4922,-0.406,-0.3261,-0.2471,-0.1972,-0.1581,-3.6956,0.0,0.0,0.0,0.0,0.0,0.0,0.0,0.0,0.0,-3.3947,0.0,-3.2192,0.0,-3.1028,0.0,-3.0552,-3.0664,-3.106,-3.1339,0.0,-3.1556,-3.1426,0.0,0.0,0.0,0.0,0.0,0.0,-2.9924,0.0,0.0,0.0,0.0,0.0,0.0,-3.2231,0.0,-3.2445,0.0,0.0,-3.1596,0.0,0.0,-2.7716,-2.6294,0.0,-2.5595,-2.5629,-2.5629,-2.5993,-2.6366,-2.5801,-2.6013,-2.6343,-2.5746,-2.5174,-2.4732,-2.479,-2.4756,0.0,-2.4646,-2.4866,0.0,-2.4593,0.0,0.0,0.0,0.0,0.0,0.0,0.0,0.0,0.0,0.0,0.0,0.0,-2.091,0.0,0.0,0.0,0.0,0.0,0.0,-1.0177,-0.9084,-0.8646,-0.8429,0.0,0.0,-0.8391,-0.8057,-0.7986,-0.8379,-0.9356,-1.0821,-1.1749,-1.2164,-1.4031,-1.4299,-1.3195,-1.4062,-1.3617,-1.2126,-1.2141,-1.092,-0.8878,-0.8386,-0.6969,-0.5054,-0.439,-0.3714,-0.3004,-0.2194,-0.1729,-0.1279,0.0,0.0,0.0,0.0,-3.897,0.0,0.0,0.0,-3.5623,0.0,-3.3886,-3.3007,-3.2148,-3.1984,-3.1607,-3.0769,-3.0579,0.0,-3.0443,-3.1191,0.0,0.0,-3.0119,-3.0274,-3.0804,0.0,0.0,0.0,0.0,0.0,0.0,0.0,0.0,0.0,-2.8857,0.0,-3.1514,-3.2592,-3.3514,-3.4158,-3.3154,-3.1309,-2.91,-2.8242,-2.6947,-2.5601,-2.5531,-2.5499,-2.5504,-2.5504,-2.5504,-2.5521,-2.5642,-2.5698,-2.5703,-2.5697,-2.5703,-2.5683,-2.5644,-2.5586,-2.5535,-2.5531,0.0,0.0,0.0,0.0,-2.2589,0.0,0.0,0.0,0.0,0.0,0.0,0.0,0.0,0.0,0.0,0.0,0.0,0.0,0.0,0.0,0.0,-1.2687,-1.2331,-1.1785,-1.119,0.0,0.0,0.0,-0.8553,-0.8949,-0.8308,-0.8306,-0.9121,-1.0557,-1.1375,-1.1633,-1.3544,-1.4354,-1.4174,-1.4314,-1.3742,-1.2643,-1.219,-1.0626,-0.834,-0.7875,-0.6609,-0.4877,-0.4055,-0.3597,-0.3199,-0.1909,-0.1209,-0.0742,-3.654,-3.7483,-3.8137,0.0,-3.7599,-3.7579,0.0,0.0,0.0,0.0,-3.2971,-3.2112,-3.1296,-3.115,-3.0996,-3.0711,-3.0667,0.0,0.0,0.0,0.0,-2.8602,-2.897,-2.8903,-2.8269,-2.8297,0.0,-2.8737,0.0,0.0,-2.8385,0.0,0.0,0.0,0.0,0.0,-3.0611,-3.178,-3.272,-3.3325,-3.225,-3.0818,0.0,0.0,-2.6992,-2.5595,-2.5582,-2.5574,-2.5576,-2.5568,-2.5562,-2.5574,-2.5605,-2.5623,-2.5648,-2.5696,-2.5697,-2.5558,-2.492,-2.4726,-2.4704,-2.4654,-2.4073,-2.3772,0.0,0.0,0.0,0.0,0.0,0.0,0.0,0.0,0.0,0.0,0.0,0.0,0.0,0.0,0.0,0.0,0.0,0.0,0.0,-1.7077,-1.5848,-1.5395,-1.3616,0.0,0.0,0.0,0.0,-0.8736,-0.9626,-1.0336,-1.0837,-1.2611,-1.3376,-1.3235,-1.4425,-1.4597,-1.3831,-1.3924,-1.3277,-1.204,-1.111,-0.9688,-0.7931,-0.6678,-0.5421,-0.4175,-0.3428,-0.2468,-0.141,-0.0839,-0.0621,-0.0568,-3.5993,0.0,0.0,-3.7024,0.0,0.0,-3.599,0.0,0.0,-3.3502,-3.2641,0.0,-3.147,-3.1058,-3.0774,-3.0758,-3.0369,0.0,-2.9868,0.0,0.0,-2.8512,-2.8478,-2.8134,-2.7354,-2.7186,0.0,-2.7691,0.0,0.0,-2.7999,0.0,0.0,0.0,0.0,-2.9506,0.0,-3.1456,-3.2,-3.1951,-3.1351,0.0,0.0,-2.7803,-2.6689,-2.5605,-2.5582,-2.5556,-2.5549,-2.5531,-2.5525,-2.5556,-2.56,-2.5621,-2.5652,-2.5698,-2.5427,-2.502,-2.452,-2.4117,-2.3828,-2.3778,-2.3354,-2.3087,-2.3603,-2.3307,-2.2834,0.0,0.0,0.0,0.0,0.0,0.0,0.0,0.0,0.0,0.0,0.0,0.0,0.0,0.0,0.0,0.0,0.0,-1.8207,-1.8684,0.0,0.0,0.0,0.0,0.0,-1.0475,-1.19,-1.2884,-1.3185,-1.4379,-1.4933,-1.4875,-1.5387,-1.5278,-1.4639,-1.406,-1.303,-1.1601,-1.0166,-0.8579,-0.6875,-0.5349,-0.4291,-0.352,-0.2154,-0.104,-0.0129,0.0266,0.0171,-0.007,0.0,0.0,0.0,0.0,0.0,0.0,0.0,-3.4428,0.0,-3.3328,0.0,-3.1936,-3.1936,-3.1272,-3.0804,-3.0804,0.0,-2.9877,-3.0496,-2.9874,-2.9288,-2.8885,-2.8296,-2.7719,-2.7106,-2.6408,0.0,0.0,0.0,0.0,0.0,0.0,0.0,0.0,0.0,0.0,0.0,-3.0873,-3.0909,-3.0275,-3.027,-2.9344,-2.7867,-2.709,-2.63,-2.5586,-2.5525,-2.5499,-2.5492,-2.543,-2.5444,-2.5506,-2.5585,-2.5561,-2.552,-2.5524,-2.4918,-2.4196,-2.41,-2.3512,-2.2929,-2.2928,-2.2792,-2.2513,-2.1978,-2.1991,-2.1875,-2.0974,-2.0679,-2.0316,0.0,0.0,0.0,0.0,0.0,0.0,0.0,0.0,0.0,0.0,0.0,0.0,0.0,0.0,0.0,0.0,0.0,0.0,0.0,0.0,0.0,-1.3587,-1.4878,-1.5744,-1.6009,0.0,-1.641,-1.6618,-1.6408,-1.6213,-1.5979,-1.4442,-1.3,-1.1574,-0.9482,-0.754,-0.575,-0.4028,-0.3072,-0.2502,-0.0648,0.0339,0.0799,0.1405,0.127,0.0771,0.0,0.0,0.0,0.0,0.0,-3.4191,-3.3626,-3.2985,-3.2494,-3.2357,-3.1615,-3.1107,-3.1107,-3.0971,-3.0873,-3.0873,-3.073,0.0,0.0,0.0,0.0,-2.7237,-2.7653,-2.7166,-2.5538,-2.5687,-2.6412,0.0,0.0,0.0,0.0,0.0,0.0,0.0,0.0,0.0,-2.8406,-2.7922,0.0,-2.854,-2.854,-2.797,-2.7086,-2.6948,-2.635,-2.5589,-2.5511,-2.5499,-2.5511,-2.5488,-2.5483,-2.5506,-2.5582,-2.5104,-2.4559,-2.4604,-2.4007,-2.3179,-2.2455,-2.2139,-2.203,-2.2031,-2.1433,-2.1172,-2.2419,-2.1923,-2.1311,-2.1622,-2.1095,-2.046,-1.9974,0.0,0.0,0.0,0.0,0.0,0.0,0.0,0.0,0.0,0.0,0.0,0.0,0.0,0.0,0.0,0.0,0.0,0.0,0.0,0.0,0.0,-1.8507,0.0,0.0,0.0,-1.8937,-1.8898,-1.7463,-1.6761,-1.6656,-1.4469,-1.3405,-1.3078,-0.9391,-0.7249,-0.6129,-0.3056,-0.1089,-0.0034,0.0424,0.0876,0.1525,0.2923,0.3053,0.2422,0.0,0.0,0.0,0.0,0.0,0.0,0.0,-3.1903,0.0,-3.203,-3.1757,-3.1519,-3.1519,-3.0757,-3.023,-3.023,-2.8998,-2.8193,-2.8203,-2.8103,-2.7487,-2.6193,-2.6895,0.0,-2.5186,-2.5245,-2.5916,-2.7226,0.0,0.0,0.0,0.0,0.0,0.0,0.0,-2.8174,0.0,0.0,0.0,-2.7476,-2.7485,-2.7245,-2.6851,-2.6392,-2.5968,-2.5593,-2.5566,-2.5254,-2.4946,-2.5367,-2.5214,-2.4882,-2.4921,-2.4355,-2.3683,-2.3727,-2.3108,-2.2335,-2.1906,-2.1473,-2.113,-2.1172,-2.0787,-2.0726,-2.1992,-2.2026,-2.1833,-2.206,-2.1966,-2.1488,-2.0325,-1.9766,0.0,0.0,0.0,0.0,0.0,0.0,0.0,0.0,0.0,0.0,0.0,0.0,0.0,0.0,0.0,0.0,0.0,0.0,0.0,0.0,0.0,0.0,0.0,0.0,0.0,-2.0771,-1.8707,-1.7707,-1.7598,-1.5177,-1.3694,-1.2787,-0.864,-0.6473,-0.5561,-0.1264,0.1069,0.1936,0.2433,0.2686,0.286,0.3787,0.4001,0.3732,0.0,-3.3122,0.0,0.0,-3.2544,0.0,-3.196,-3.1076,-3.0754,-3.1677,-3.1659,-3.1542,-3.1542,-3.0057,-2.904,-2.904,-2.7009,-2.5992,-2.6676,-2.6067,-2.5666,-2.5606,-2.6184,-2.612,-2.528,-2.5072,-2.5584,0.0,0.0,0.0,0.0,0.0,0.0,0.0,0.0,0.0,0.0,0.0,-2.7258,-2.6641,-2.6635,-2.6646,-2.6574,-2.5873,-2.5623,-2.5593,-2.5395,-2.4881,-2.4386,-2.482,-2.4548,-2.4025,-2.4028,-2.3456,-2.2803,-2.2824,-2.2211,-2.1519,-2.152,-2.1027,-2.0487,-2.035,-2.0219,-2.0264,-2.0774,-2.1309,-2.1722,-2.1814,-2.2305,-2.2209,-2.0495,-2.0187,0.0,0.0,0.0,0.0,0.0,0.0,0.0,0.0,0.0,0.0,0.0,0.0,0.0,0.0,0.0,-2.1685,-1.9763,-2.3494,-2.4648,0.0,0.0,-2.3621,-2.3293,0.0,-2.1359,-2.2244,-1.99,-1.8669,-1.8334,-1.5843,-1.3811,-1.2037,-0.7901,-0.5177,-0.3398,0.0794,0.2914,0.363,0.4305,0.4485,0.434,0.4629,0.4859,0.4954,0.0,0.0,0.0,0.0,0.0,0.0,-3.1825,-3.0506,-2.9841,-3.0711,-3.0203,-2.9732,-2.9732,-2.8259,-2.7246,-2.7246,-2.6308,-2.572,-2.5818,-2.5681,-2.5603,-2.5606,-2.5615,-2.5576,-2.5466,-2.5269,-2.5872,0.0,0.0,0.0,0.0,0.0,0.0,0.0,0.0,0.0,0.0,-2.5775,-2.5824,-2.581,-2.58,-2.58,-2.58,-2.5711,-2.5685,-2.5586,-2.4736,-2.4411,-2.4269,-2.3505,-2.3178,-2.312,-2.3112,-2.2536,-2.1847,-2.1908,-2.1305,-2.0631,-2.0615,-2.0605,-2.0409,-1.9621,-1.9311,-1.9044,-1.8395,-1.8717,-1.9354,-2.0076,-2.1064,-2.1534,-2.0547,-1.9987,-1.9901,0.0,0.0,0.0,0.0,0.0,0.0,0.0,0.0,0.0,0.0,0.0,0.0,0.0,0.0,-2.1378,-2.2449,-2.347,-2.4606,-2.586,0.0,-2.5632,-2.5597,-2.3761,-2.2952,-2.3149,-2.0861,-1.9318,-1.8396,-1.5872,-1.3665,-1.1643,-0.777,-0.322,0.1582,0.2753,0.3928,0.501,0.5149,0.5373,0.5667,0.6057,0.6183,0.6152,0.0,0.0,0.0,0.0,0.0,0.0,0.0,-2.8969,-2.8504,-2.832,-2.8087,-2.7939,-2.793,-2.6906,-2.6229,-2.6211,-2.543,-2.4707,-2.4179,-2.4156,-2.4152,-2.4153,-2.4556,-2.5017,-2.5554,-2.5316,-2.5755,0.0,0.0,0.0,0.0,0.0,0.0,0.0,0.0,-2.5693,-2.5498,-2.5566,-2.5609,-2.5648,-2.5681,-2.5703,-2.5703,-2.5702,-2.5388,-2.488,-2.4484,-2.37,-2.2775,-2.2403,-2.2275,-2.2271,-2.2219,-2.1657,-2.0876,-2.0383,-2.0016,-1.9667,-1.9138,-1.9023,-1.8964,-1.8605,-1.8444,-1.8429,-1.8632,-1.8852,-1.9179,-1.9912,-2.0909,-2.1495,-2.0972,-2.1131,-2.1086,0.0,0.0,0.0,0.0,0.0,0.0,0.0,0.0,0.0,0.0,0.0,0.0,0.0,0.0,-2.3604,-2.4293,-2.5262,-2.6484,-2.804,0.0,-2.5773,-2.625,-2.4359,-2.3663,-2.4182,-2.1847,-2.0406,-1.9663,-1.6588,-1.2585,-0.7993,-0.5464,-0.1765,0.2529,0.381,0.4939,0.5882,0.6021,0.6126,0.6277,0.6674,0.6725,0.6612,-3.0316,0.0,-3.0521,0.0,-2.9475,-2.9236,-2.7778,-2.7352,-2.6898,-2.6047,-2.5803,-2.5925,-2.6422,-2.554,-2.5004,-2.5267,-2.4509,-2.3651,-2.2772,-2.2773,-2.293,-2.3184,-2.3705,0.0,-2.5603,-2.5434,-2.5619,-2.6174,-2.6032,0.0,0.0,0.0,0.0,0.0,-2.5931,-2.5456,-2.5517,-2.558,-2.5639,-2.5623,-2.5683,-2.5546,-2.5311,-2.5309,-2.4763,-2.3983,-2.373,-2.2848,-2.1764,-2.1508,-2.1257,-2.1064,-2.1258,-2.0743,-1.9963,-1.937,-1.9046,-1.8755,-1.8164,-1.8007,-1.7946,-1.7687,-1.7573,-1.7649,-1.7991,-1.82,-1.8592,-1.9542,-2.0651,-2.1332,-2.1007,-2.1494,-2.1558,-2.0406,0.0,0.0,0.0,0.0,0.0,0.0,-1.8229,-1.8321,-1.8316,0.0,0.0,0.0,0.0,0.0,-2.4511,-2.62,0.0,0.0,0.0,0.0,0.0,-2.4659,-2.4128,-2.4917,-2.2777,-2.1386,-2.0565,-1.609,-1.0871,-0.5282,-0.3312,-0.0488,0.2839,0.4475,0.5636,0.6429,0.6786,0.6906,0.6906,0.7125,0.7134,0.7044,-2.9977,-2.9317,-2.8774,-2.8886,-2.8205,-2.7381,-2.6625,-2.5842,-2.5032,-2.4231,-2.3431,-2.3592,-2.5323,-2.4034,-2.338,-2.4234,-2.3581,-2.2756,-2.1876,-2.1872,-2.2305,0.0,0.0,-2.3982,-2.5668,-2.5707,-2.56,-2.5401,0.0,0.0,-2.544,0.0,-2.5537,-2.5537,-2.5517,-2.5498,-2.551,-2.5645,-2.5707,-2.5691,-2.57,-2.5182,-2.4403,-2.4339,-2.3818,-2.2997,-2.2138,-2.1824,-2.1666,-2.0804,-1.9931,-1.9381,-2.0172,-1.9825,-1.9126,-1.9184,-1.8587,-1.7934,-1.7988,-1.8004,-1.7783,-1.6923,-1.6717,-1.6486,-1.5645,-1.6014,-1.6982,-1.8594,-2.0023,-2.0858,-2.0391,-2.0467,-2.0691,-2.0948,0.0,0.0,0.0,0.0,0.0,0.0,-1.812,-1.8358,-1.7963,0.0,0.0,0.0,0.0,0.0,0.0,0.0,0.0,-2.654,-2.6694,0.0,-2.6599,-2.4876,-2.4432,-2.5274,-2.3592,-2.2156,-2.0765,-1.3815,-0.8444,-0.4462,-0.1853,0.0703,0.313,0.4792,0.5937,0.6656,0.7392,0.7725,0.7763,0.7569,0.7539,0.7559,-2.7599,-2.7657,-2.7551,-2.6422,-2.6003,-2.5562,-2.4785,-2.3985,-2.317,-2.2363,-2.2596,-2.3049,-2.3593,-2.3791,-2.401,0.0,-2.4615,-2.4202,0.0,-2.2703,-2.2847,-2.3125,-2.3125,-2.3945,-2.5662,-2.5694,-2.5661,-2.5603,0.0,0.0,0.0,-2.5561,-2.5565,-2.557,-2.5561,-2.5565,-2.5574,-2.5657,-2.5707,-2.5652,-2.5056,-2.4656,-2.4325,-2.3676,-2.2909,-2.2177,-2.1901,-2.1032,-1.9993,-1.9706,-1.8992,-1.8285,-1.8554,-1.8468,-1.8174,-1.7592,-1.7253,-1.696,-1.6387,-1.6227,-1.6166,-1.5872,-1.5811,-1.575,-1.5454,-1.5584,-1.6037,-1.7053,-1.7914,-1.8463,-1.8459,-1.9029,-1.9218,-1.8273,-1.8374,0.0,0.0,0.0,0.0,-1.6076,-1.6423,-1.6694,0.0,-1.7895,0.0,0.0,0.0,0.0,0.0,0.0,0.0,0.0,-2.6894,0.0,-2.6807,-2.5656,-2.5223,-2.5495,-2.4176,-2.1178,-1.6641,-1.2684,-0.8049,-0.3033,-0.0403,0.2014,0.4237,0.606,0.6892,0.7077,0.7821,0.7976,0.7802,0.7744,0.7647,0.7588,-2.6196,-2.6174,-2.5966,-2.4926,-2.4233,-2.3682,-2.324,-2.2544,-2.1798,-2.1015,-2.1683,-2.238,-2.2752,-2.3632,0.0,-2.4713,-2.525,-2.4849,-2.3169,-2.3083,-2.2979,-2.2656,-2.2948,-2.3611,-2.4706,-2.5039,0.0,-2.4724,-2.5004,-2.5327,-2.5642,-2.5632,-2.5632,-2.5637,-2.5634,-2.5634,-2.562,-2.5328,-2.5214,-2.5136,-2.4239,-2.3676,-2.3325,-2.2723,-2.199,-2.1262,-2.1262,-2.0387,-1.9191,-1.9191,-1.8387,-1.7349,-1.7349,-1.7157,-1.6879,-1.6667,-1.6417,-1.6099,-1.5547,-1.5409,-1.539,-1.541,-1.5391,-1.5391,-1.5367,-1.5625,-1.588,-1.5995,-1.6464,-1.6947,-1.7284,-1.7861,-1.8022,-1.7166,-1.7551,-1.7408,-1.5787,0.0,0.0,0.0,0.0,0.0,0.0,-1.7299,-1.7961,0.0,0.0,0.0,0.0,0.0,0.0,-2.782,-2.6369,0.0,-2.6362,-2.5487,-2.5195,-2.55,-2.3353,-1.9641,-1.4587,-1.1433,-0.7171,-0.2068,0.0338,0.2711,0.5046,0.6572,0.7277,0.7452,0.8099,0.8195,0.7966,0.7831,0.7734,0.7666,-2.5337,-2.4727,-2.4174,0.0,-2.2875,0.0,-2.2062,-2.1519,-2.0872,-2.0231,-2.0871,-2.1771,-2.2756,-2.3602,-2.4437,-2.5321,0.0,0.0,0.0,-2.3046,-2.2722,-2.1933,-2.2608,-2.305,-2.3093,-2.389,-2.3909,-2.3095,-2.3905,-2.4765,-2.5604,-2.5603,-2.56,-2.5604,-2.5604,-2.5565,-2.5468,-2.4656,-2.4293,-2.4215,-2.3285,-2.2416,-2.1687,-2.1642,-2.1105,-2.0395,-2.0337,-1.9793,-1.909,-1.9031,-1.7898,-1.6503,-1.6503,-1.5942,-1.5461,-1.6275,-1.5981,-1.5391,-1.5391,-1.539,-1.5406,-1.5406,-1.54,-1.5379,-1.5311,-1.5921,-1.6258,-1.539,-1.5642,-1.6177,-1.6643,-1.6861,-1.7014,-1.711,-1.7291,-1.6918,-1.555,0.0,0.0,0.0,0.0,0.0,0.0,-1.7089,-1.7166,0.0,0.0,0.0,0.0,0.0,-2.7568,-2.5263,-2.5313,-2.5411,-2.5465,-2.4615,-2.4535,-2.5151,-2.1405,-1.7723,-1.4148,-1.015,-0.5819,-0.1378,0.062,0.3054,0.5647,0.661,0.7297,0.7801,0.8231,0.8382,0.828,0.787,0.7802,0.7811,0.0,0.0,-2.2959,-2.2356,-2.2022,-2.1849,-2.1927,-2.0868,-2.0233,-2.0715,-2.1568,-2.2502,-2.3471,-2.4366,-2.4783,-2.445,-2.5034,-2.4672,-2.2881,-2.2879,-2.2613,-2.1867,-2.2018,-2.2405,-2.3013,-2.3221,-2.3266,-2.3103,-2.3316,-2.3847,-2.4705,-2.4706,-2.4684,-2.4631,-2.4674,-2.4315,-2.3628,-2.3423,-2.3322,-2.3244,-2.2367,-2.1881,-2.1614,-2.0907,-2.054,-2.0307,-1.9655,-1.8861,-1.8047,-1.7413,-1.6493,-1.5613,-1.5613,-1.5478,-1.5336,-1.5543,-1.5478,-1.5332,-1.5385,-1.5407,-1.5405,-1.5391,-1.5391,-1.5377,-1.5312,-1.5465,-1.5548,-1.5313,-1.5318,-1.5266,-1.5029,-1.5311,-1.5341,-1.4624,-1.5041,-1.5064,-1.3918,-1.4788,0.0,0.0,-1.5868,-1.6281,-1.6626,-1.7009,-1.7451,0.0,0.0,0.0,0.0,-2.4478,-2.5539,-2.4908,-2.5221,-2.5288,-2.5031,-2.5085,-2.4473,-2.3224,-2.0179,-1.6336,-1.1864,-0.8868,-0.4502,0.0781,0.2521,0.4448,0.6441,0.7569,0.8088,0.8195,0.8578,0.8734,0.8679,0.7976,0.7899,0.8004,-2.0568,-2.1043,-2.148,-2.1043,-2.1078,-2.1308,-2.1742,-2.1232,-2.097,-2.1475,-2.1655,-2.2073,-2.3006,-2.3206,-2.326,-2.322,-2.4178,-2.4021,-2.2281,-2.2202,-2.1868,-2.1109,-2.1478,-2.1731,-2.1755,-2.2168,-2.2384,-2.2455,-2.2455,-2.2908,-2.3762,-2.3762,-2.3731,-2.3708,-2.3731,-2.3486,-2.297,-2.2547,-2.2333,-2.2239,-2.1397,-2.1024,-2.0914,-2.0476,-2.0275,-2.0157,-1.9381,-1.8506,-1.7594,-1.6819,-1.6004,-1.5294,-1.5294,-1.5294,-1.5299,-1.5302,-1.5307,-1.5313,-1.5385,-1.5382,-1.5351,-1.5342,-1.564,-1.583,-1.541,-1.5602,-1.5781,-1.538,-1.5209,-1.5057,-1.4773,-1.4616,-1.4271,-1.3407,-1.3933,-1.4266,-1.3843,-1.4758,0.0,-1.6891,-1.6488,-1.6607,-1.7782,-1.7586,-1.7586,-1.8111,-1.9837,0.0,-2.0779,-2.2246,-2.3476,-2.4328,-2.4613,-2.4671,-2.4487,-2.4088,-2.2869,-2.0818,-1.788,-1.4456,-1.057,-0.7172,-0.3097,0.1317,0.3235,0.5118,0.6915,0.8096,0.8499,0.8386,0.8761,0.8838,0.869,0.7976,0.7899,0.8043,-2.0156,-2.0228,-2.0316,-2.0404,-2.059,-2.0969,-2.1751,-2.1969,-2.2141,-2.2327,-2.1592,-2.1428,-2.238,-2.1601,-2.1236,-2.1832,-2.2791,-2.2806,-2.1523,-2.1391,-2.1012,-2.0192,-2.0932,-2.1003,-2.0262,-2.0992,-2.1418,-2.1491,-2.15,-2.1947,-2.2799,-2.2799,-2.279,-2.2795,-2.2795,-2.2707,-2.2511,-2.1714,-2.1324,-2.1193,-2.0515,-2.0175,-2.0075,-2.0188,-2.0104,-1.9833,-1.9134,-1.8254,-1.7327,-1.6553,-1.5848,-1.5313,-1.5448,-1.5487,-1.5506,-1.5641,-1.568,-1.5629,-1.5446,-1.5339,-1.5292,-1.5289,-1.5835,-1.6187,-1.5454,-1.5857,-1.618,-1.5467,-1.5278,-1.519,-1.5096,-1.4454,-1.3764,-1.3241,-1.3621,-1.4192,-1.4698,0.0,-1.6637,-1.8672,-1.7161,-1.6816,-1.8918,-1.8052,-1.7528,-1.7996,-1.9013,-1.9466,-1.9159,-2.0112,-2.1419,-2.3053,-2.3509,-2.3713,-2.3639,-2.2236,-2.0498,-1.8426,-1.527,-1.2273,-0.9367,-0.5299,-0.1673,0.1452,0.3697,0.5594,0.7233,0.8327,0.866,0.8492,0.881,0.8792,0.8505,0.7918,0.7841,0.7889,-1.9107,-2.0014,-2.0894,-2.1457,-2.1911,-2.2272,-2.2573,-2.2189,-2.2124,-2.294,-2.2343,-2.22,-2.322,-2.1918,-2.0822,-2.0372,-2.0414,-2.0637,-2.1053,-2.1157,-2.087,-2.006,-2.0165,-2.0184,-2.0041,-2.03,-2.0444,-2.052,-2.0565,-2.1055,-2.1906,-2.1906,-2.1861,-2.1816,-2.1816,-2.1357,-2.0534,-2.0382,-2.026,-2.0133,-2.0009,-1.9962,-1.9934,-1.9954,-1.9592,-1.8981,-1.8126,-1.7336,-1.654,-1.5683,-1.5317,-1.5341,-1.6075,-1.6306,-1.6461,-1.7201,-1.74,-1.7109,-1.5705,-1.5308,-1.5289,-1.5226,-1.5317,-1.5385,-1.5251,-1.533,-1.5414,-1.5385,-1.5387,-1.5305,-1.5061,-1.4494,-1.4126,-1.4307,-1.4164,-1.4452,-1.5738,0.0,-1.7187,-1.7552,-1.7384,-1.6901,-1.6166,-1.6622,-1.6964,-1.687,-1.8076,-1.8911,-1.9257,-1.9495,-1.972,-1.9903,-2.1622,-2.2383,-2.1974,-1.9924,-1.8244,-1.6992,-1.3446,-0.9971,-0.6615,-0.3619,-0.0375,0.3054,0.536,0.6712,0.7437,0.8337,0.8756,0.8795,0.8587,0.8503,0.8456,0.7889,0.7569,0.7255,-1.8943,-1.9849,-2.0697,-2.1086,-2.1808,-2.2455,-2.2754,-2.2905,-2.3217,-2.3834,-2.242,-2.1525,-2.2006,-2.0153,-1.8958,-1.9075,-1.8995,-1.9271,-2.009,-2.0301,-2.0188,-1.9744,-1.9832,-1.9941,-2.0041,-2.0114,-2.0208,-2.0306,-2.0328,-2.056,-2.0946,-2.0946,-2.0927,-2.0892,-2.0816,-2.0532,-2.0108,-2.0011,-1.9899,-1.9797,-1.9866,-1.9855,-1.9802,-1.9869,-1.9389,-1.8593,-1.7865,-1.7057,-1.6287,-1.6003,-1.5892,-1.6052,-1.6925,-1.7195,-1.7285,-1.769,-1.7465,-1.6937,-1.6152,-1.5592,-1.5259,-1.5245,-1.5234,-1.5215,-1.5246,-1.5256,-1.5278,-1.5326,-1.5377,-1.533,-1.5094,-1.4292,-1.384,-1.4363,-1.4675,0.0,0.0,-1.792,-1.8481,-1.9117,-1.8177,-1.7429,-1.7339,-1.7773,-1.7701,-1.6866,-1.8254,-1.86,-1.7371,-1.785,-1.802,-1.7711,-1.9192,-1.9542,-1.8642,-1.7273,-1.5961,-1.4761,-1.1986,-0.8732,-0.5063,-0.2824,0.0439,0.4515,0.6045,0.6867,0.7266,0.8528,0.8734,0.8298,0.8299,0.8275,0.8202,0.753,0.7235,0.7107,-1.8992,-1.9821,-2.0622,-2.0915,-2.1721,-2.2491,-2.295,-2.3375,-2.3785,-2.415,-2.22,-2.079,-2.079,-1.8748,-1.7621,-1.8226,-1.819,-1.8394,-1.9002,-1.935,-1.9518,-1.9427,-1.9617,-1.9703,-1.9735,-1.9936,-2.0126,-2.026,-2.0233,-2.0233,-2.0233,-2.0233,-2.0225,-2.0199,-2.0135,-2.0069,-1.9991,-1.9907,-1.9774,-1.965,-1.9781,-1.9757,-1.9645,-1.9555,-1.8983,-1.8151,-1.7463,-1.6673,-1.6016,-1.6335,-1.6478,-1.667,-1.7754,-1.8082,-1.812,-1.8332,-1.7619,-1.6714,-1.6528,-1.5836,-1.5189,-1.5237,-1.5212,-1.5193,-1.526,-1.5284,-1.5284,-1.5293,-1.5355,-1.533,-1.5121,-1.4158,-1.3666,-1.4538,0.0,0.0,0.0,-1.9013,-1.9494,-2.031,-1.8646,-1.7683,-1.8276,-1.8447,-1.8014,-1.6781,-1.8228,-1.8136,-1.5727,-1.6346,-1.6406,-1.5606,-1.6833,-1.6874,-1.5628,-1.4848,-1.3838,-1.2574,-1.0237,-0.7346,-0.4029,-0.1833,0.139,0.532,0.6425,0.7097,0.7422,0.8506,0.8553,0.7881,0.7911,0.7928,0.7782,0.7214,0.7026,0.6957,-1.9072,-2.0091,-2.112,-2.1932,-2.2443,-2.2937,-2.3538,-2.3043,-2.2788,-2.3249,-2.1782,-2.0723,-2.079,-1.9254,-1.8199,-1.8208,-1.8023,-1.792,-1.7918,-1.8634,-1.9099,-1.9216,-1.936,-1.9175,-1.8629,-1.9476,-1.9981,-2.0107,-2.005,-2.0022,-2.0022,-2.0022,-1.9992,-1.9936,-2.005,-1.996,-1.9726,-1.9713,-1.9643,-1.9513,-1.9592,-1.9578,-1.9439,-1.8711,-1.8036,-1.7355,-1.6447,-1.5748,-1.5383,-1.6077,-1.6399,-1.6779,-1.8395,-1.8915,-1.9069,-1.9888,-1.8889,-1.7367,-1.6608,-1.5779,-1.5108,-1.5113,-1.5106,-1.5127,-1.5193,-1.5212,-1.5222,-1.5287,-1.5346,-1.5312,-1.5061,-1.4279,-1.4136,-1.5549,0.0,0.0,-1.9159,-1.9475,-1.9416,-1.925,-1.8264,-1.7257,-1.6413,-1.682,-1.6747,-1.5781,-1.7096,-1.7246,-1.5679,-1.5719,-1.5003,-1.3211,-1.497,-1.5384,-1.417,-1.3075,-1.1935,-1.0754,-0.7621,-0.5205,-0.3338,0.0192,0.2926,0.4953,0.6831,0.7869,0.8292,0.807,0.8032,0.8011,0.7418,0.7182,0.7184,0.7322,0.7065,0.6626,-1.9395,-2.0262,-2.1032,-2.1454,-2.1815,-2.2104,-2.2239,-2.2228,-2.218,-2.2227,-2.0691,-1.9636,-1.9785,-1.832,-1.7546,-1.8149,-1.7945,-1.799,-1.8515,-1.8163,-1.809,-1.8435,-1.8111,-1.8077,-1.8434,-1.8836,-1.9341,-1.9979,-1.9408,-1.9397,-1.9861,-1.9378,-1.9111,-1.9106,-1.9583,-1.9468,-1.8921,-1.9391,-1.955,-1.9493,-1.9526,-1.9197,-1.8721,-1.8957,-1.7955,-1.644,-1.6649,-1.5998,-1.5209,-1.66,-1.7122,-1.7533,-1.9223,-1.9682,-1.9678,-1.9916,-1.9153,-1.8156,-1.7852,-1.644,-1.504,-1.508,-1.5127,-1.5177,-1.525,-1.5261,-1.5264,-1.5281,-1.5314,-1.5253,-1.4995,-1.4349,-1.4155,-1.495,0.0,-1.6696,-1.8375,-1.8801,-1.9004,-1.9139,-1.8016,-1.7238,-1.7291,-1.7346,-1.6904,-1.5754,-1.645,-1.6043,-1.4039,-1.3763,-1.3365,-1.2733,-1.2305,-1.1977,-1.1761,-1.0845,-0.968,-0.8225,-0.6042,-0.3127,0.0379,0.189,0.42,0.7054,0.724,0.7605,0.8053,0.7723,0.7766,0.7972,0.7195,0.6915,0.6876,0.6634,0.6513,0.6413,-1.961,-2.0492,-2.1139,-2.1053,-2.1275,-2.142,-2.1233,-2.1235,-2.1221,-2.1116,-1.9795,-1.893,-1.9084,-1.8055,-1.7636,-1.8304,-1.7868,-1.7841,-1.8431,-1.7276,-1.6743,-1.7092,-1.6921,-1.7027,-1.7516,-1.8099,-1.862,-1.9054,-1.87,-1.8689,-1.896,-1.8426,-1.8129,-1.8048,-1.8572,-1.8434,-1.7861,-1.8374,-1.872,-1.891,-1.8728,-1.8581,-1.8474,-1.8384,-1.7446,-1.6225,-1.6328,-1.571,-1.5093,-1.6562,-1.7142,-1.752,-1.8918,-1.9277,-1.9106,-1.8747,-1.8203,-1.7681,-1.7401,-1.6102,-1.4885,-1.5335,-1.5287,-1.5141,-1.5143,-1.5154,-1.5168,-1.5144,-1.5171,-1.5052,-1.4588,-1.4,-1.3686,-1.396,-1.4425,-1.5171,-1.6382,-1.6726,-1.7024,-1.743,-1.6616,-1.6305,-1.7049,-1.6995,-1.6506,-1.5523,-1.5993,-1.5458,-1.3408,-1.2779,-1.233,-1.195,-1.0327,-0.9531,-0.9626,-0.8785,-0.7642,-0.6237,-0.4152,-0.1242,0.2392,0.3251,0.5197,0.7927,0.7272,0.7285,0.7729,0.7315,0.734,0.7553,0.6906,0.6703,0.6777,0.6443,0.6443,0.6595,-1.972,-2.076,-2.152,-2.0989,-2.1039,-2.1104,-2.0815,-2.0121,-1.9694,-1.9953,-1.929,-1.8807,-1.8895,-1.8843,-1.8753,-1.8715,-1.7823,-1.7292,-1.7292,-1.5834,-1.5055,-1.5178,-1.5954,-1.6145,-1.5616,-1.7296,-1.7882,-1.721,-1.8005,-1.7981,-1.7209,-1.7191,-1.7046,-1.6798,-1.694,-1.6838,-1.6595,-1.6595,-1.7019,-1.7639,-1.7042,-1.7705,-1.8824,-1.6641,-1.6324,-1.6848,-1.5139,-1.4619,-1.4934,-1.58,-1.6193,-1.644,-1.7248,-1.7443,-1.7227,-1.6366,-1.5966,-1.5637,-1.4839,-1.446,-1.4614,-1.5865,-1.5581,-1.4957,-1.4822,-1.4859,-1.4878,-1.4813,-1.489,-1.4708,-1.3785,-1.3101,-1.2702,-1.2702,-1.1957,-1.1869,-1.3179,-1.3216,-1.3241,-1.3639,-1.3814,-1.426,-1.5135,-1.5334,-1.5252,-1.4937,-1.5695,-1.5607,-1.4286,-1.3245,-1.2024,-1.0564,-0.9388,-0.8496,-0.7886,-0.6934,-0.6009,-0.5013,-0.1803,0.0484,0.1931,0.4161,0.5851,0.6994,0.6856,0.7049,0.7455,0.6859,0.6682,0.6759,0.6437,0.6551,0.6915,0.6957,0.7077,0.7166,-1.9865,-1.9679,-1.9503,-1.9855,-1.9782,-1.945,-1.8866,-1.9122,-1.9221,-1.8793,-1.8528,-1.8445,-1.8603,-1.8603,-1.8641,-1.8752,-1.7878,-1.6799,-1.561,-1.5106,-1.4619,-1.411,-1.4485,-1.5166,-1.6151,-1.6805,-1.7321,-1.7697,-1.7357,-1.7361,-1.7592,-1.6424,-1.6103,-1.6525,-1.6595,-1.6287,-1.572,-1.6289,-1.6635,-1.6769,-1.6597,-1.6435,-1.6297,-1.6235,-1.5652,-1.4873,-1.5071,-1.4837,-1.4596,-1.5628,-1.6023,-1.6224,-1.6991,-1.7417,-1.75,-1.6643,-1.6668,-1.6817,-1.6008,-1.5334,-1.4925,-1.516,-1.4969,-1.4713,-1.4733,-1.4593,-1.4457,-1.4342,-1.442,-1.4464,-1.433,-1.3547,-1.2681,-1.1967,-1.1482,-1.1157,-1.1097,-1.206,-1.2859,-1.3177,-1.3816,-1.4803,-1.619,-1.5343,-1.5123,-1.6155,-1.4861,-1.428,-1.4866,-1.3459,-1.2029,-1.0756,-0.8878,-0.6981,-0.5029,-0.5021,-0.4161,-0.2462,0.0324,0.2864,0.5132,0.5856,0.6667,0.7473,0.6887,0.6834,0.7093,0.659,0.6569,0.6833,0.6229,0.6268,0.6612,0.6551,0.6573,0.6565,-1.9565,-1.9355,-1.905,-1.899,-1.8943,-1.864,-1.7839,-1.8172,-1.8393,-1.8005,-1.7966,-1.8048,-1.8263,-1.8222,-1.8246,-1.8506,-1.7392,-1.5955,-1.4281,-1.4161,-1.3956,-1.3462,-1.3652,-1.443,-1.5825,-1.5997,-1.6448,-1.7273,-1.6805,-1.6807,-1.7173,-1.5857,-1.5427,-1.5757,-1.5536,-1.5097,-1.4586,-1.5043,-1.5428,-1.5692,-1.5358,-1.5289,-1.5378,-1.54,-1.494,-1.4297,-1.467,-1.4518,-1.425,-1.4946,-1.5201,-1.5314,-1.5686,-1.5964,-1.6066,-1.548,-1.5566,-1.573,-1.5316,-1.4775,-1.4347,-1.4356,-1.4378,-1.4373,-1.4286,-1.413,-1.3918,-1.3632,-1.3623,-1.3642,-1.3558,-1.2464,-1.1385,-1.0845,-0.9907,-0.92,-0.9115,-1.0253,-1.1145,-1.1251,-1.2215,-1.3549,-1.5362,-1.4438,-1.4558,-1.6536,-1.514,-1.432,-1.4554,-1.2657,-1.0731,-0.8878,-0.6415,-0.439,-0.2862,-0.2313,-0.1424,-0.0213,0.2295,0.4593,0.6564,0.6605,0.6899,0.7327,0.6719,0.6552,0.6706,0.629,0.6336,0.6615,0.6092,0.6206,0.659,0.6237,0.626,0.6382,-1.8963,-1.9374,-1.9428,-1.8329,-1.8434,-1.8367,-1.746,-1.7361,-1.7408,-1.7526,-1.7522,-1.7614,-1.79,-1.7676,-1.7625,-1.7907,-1.6482,-1.4905,-1.331,-1.3192,-1.3192,-1.3158,-1.3345,-1.3922,-1.4966,-1.5116,-1.5531,-1.625,-1.6404,-1.6352,-1.6144,-1.5469,-1.4992,-1.471,-1.4045,-1.3605,-1.3362,-1.3295,-1.3752,-1.4452,-1.3683,-1.423,-1.5414,-1.4263,-1.4156,-1.4548,-1.4009,-1.3824,-1.3838,-1.3989,-1.4056,-1.402,-1.3841,-1.3742,-1.3682,-1.344,-1.3362,-1.3295,-1.331,-1.3211,-1.3176,-1.348,-1.3789,-1.3904,-1.3644,-1.3504,-1.3276,-1.2835,-1.2663,-1.2455,-1.1904,-1.0271,-0.9115,-0.9384,-0.7541,-0.6448,-0.7514,-0.8451,-0.9031,-0.8997,-1.0129,-1.1683,-1.3628,-1.3397,-1.402,-1.62,-1.608,-1.5217,-1.3687,-1.13,-0.8657,-0.58,-0.293,-0.1293,-0.1013,0.0936,0.1809,0.1616,0.3923,0.5554,0.666,0.6643,0.668,0.6724,0.6373,0.6196,0.6219,0.5942,0.5985,0.6193,0.5953,0.6206,0.6681,0.6006,0.606,0.6344,-1.8578,-1.7961,-1.7393,-1.7534,-1.7513,-1.7305,-1.6831,-1.7043,-1.7216,-1.7076,-1.6872,-1.6915,-1.7318,-1.6986,-1.6742,-1.6681,-1.5409,-1.4184,-1.3187,-1.3121,-1.3069,-1.2962,-1.3505,-1.4169,-1.4981,-1.548,-1.5801,-1.5975,-1.6585,-1.6218,-1.4969,-1.4796,-1.4605,-1.4299,-1.3562,-1.3157,-1.3016,-1.298,-1.3063,-1.3196,-1.3191,-1.3289,-1.3444,-1.3326,-1.3258,-1.3216,-1.3193,-1.3211,-1.3261,-1.3582,-1.3644,-1.3563,-1.3619,-1.3735,-1.3675,-1.2746,-1.2906,-1.317,-1.219,-1.2158,-1.2435,-1.2505,-1.2808,-1.3143,-1.3387,-1.3042,-1.256,-1.2325,-1.2084,-1.1741,-1.1218,-0.8375,-0.6556,-0.7903,-0.5561,-0.4695,-0.7871,-0.9775,-1.1176,-1.2026,-1.3312,-1.4471,-1.5391,-1.6029,-1.608,-1.538,-1.568,-1.5238,-1.3678,-1.1163,-0.8334,-0.5204,-0.2403,0.0033,0.2108,0.353,0.3644,0.2471,0.4131,0.539,0.6287,0.6079,0.6127,0.6336,0.6226,0.6005,0.5695,0.6056,0.5996,0.5671,0.5481,0.5842,0.6337,0.5703,0.5439,0.5035,-1.792,-1.7179,-1.6523,-1.6585,-1.6667,-1.6644,-1.6409,-1.6607,-1.6815,-1.6747,-1.6629,-1.6564,-1.662,-1.6294,-1.572,-1.486,-1.4295,-1.3567,-1.2581,-1.2533,-1.2693,-1.3027,-1.3439,-1.4197,-1.5356,-1.5681,-1.6097,-1.6614,-1.6353,-1.5979,-1.5496,-1.4763,-1.4312,-1.407,-1.3326,-1.2924,-1.2797,-1.2743,-1.2743,-1.285,-1.3303,-1.316,-1.2726,-1.339,-1.3216,-1.2678,-1.2836,-1.2893,-1.2946,-1.3142,-1.3377,-1.3524,-1.3175,-1.3355,-1.3471,-1.2308,-1.2246,-1.239,-1.1542,-1.1577,-1.1879,-1.1978,-1.2184,-1.2447,-1.2811,-1.2536,-1.2046,-1.1483,-1.0951,-1.0649,-1.0898,-0.6956,-0.4851,-0.8452,-0.5347,-0.4152,-0.8996,-1.0831,-1.186,-1.2467,-1.4054,-1.5321,-1.5895,-1.6809,-1.7012,-1.6215,-1.6384,-1.4763,-1.0702,-0.8981,-0.5796,-0.0714,0.0974,0.2676,0.4509,0.4997,0.4963,0.4487,0.5285,0.5915,0.6345,0.6051,0.5998,0.6135,0.6306,0.6207,0.5894,0.6175,0.5925,0.5347,0.5119,0.5119,0.523,0.4636,0.3856,0.2896,-1.7074,-1.6585,-1.6097,-1.5698,-1.5953,-1.6163,-1.6067,-1.6207,-1.6371,-1.6517,-1.6433,-1.6212,-1.5847,-1.5407,-1.4545,-1.3176,-1.3174,-1.2832,-1.1876,-1.1803,-1.2191,-1.303,-1.3333,-1.4176,-1.5663,-1.5822,-1.6298,-1.7131,-1.6017,-1.5712,-1.6143,-1.4775,-1.4028,-1.3852,-1.3362,-1.2948,-1.2623,-1.2728,-1.274,-1.2735,-1.3384,-1.3167,-1.2562,-1.3554,-1.331,-1.2459,-1.2639,-1.2716,-1.2767,-1.2922,-1.3288,-1.3572,-1.2909,-1.2958,-1.3025,-1.1859,-1.149,-1.1365,-1.0982,-1.1096,-1.1358,-1.1454,-1.1534,-1.165,-1.1815,-1.1746,-1.1393,-1.0564,-0.9639,-0.922,-0.9993,-0.5975,-0.4122,-0.8969,-0.6074,-0.51,-1.0544,-1.2015,-1.2652,-1.2962,-1.4547,-1.5756,-1.6143,-1.691,-1.7306,-1.713,-1.6891,-1.3868,-0.7256,-0.6125,-0.2597,0.4138,0.4761,0.5425,0.6356,0.6065,0.6097,0.6439,0.6449,0.6378,0.6265,0.6124,0.5947,0.577,0.6239,0.6268,0.5991,0.6042,0.5568,0.478,0.448,0.4132,0.3746,0.3151,0.2161,0.1,-1.6094,-1.585,-1.5551,-1.5313,-1.5566,-1.5811,-1.5913,-1.5957,-1.6026,-1.625,-1.5706,-1.5247,-1.5071,-1.3919,-1.309,-1.2877,-1.2179,-1.1681,-1.149,-1.1468,-1.179,-1.2553,-1.3389,-1.4292,-1.5253,-1.5946,-1.6212,-1.6015,-1.5884,-1.5459,-1.4763,-1.4142,-1.3689,-1.3418,-1.3897,-1.343,-1.2334,-1.3489,-1.3319,-1.2298,-1.2589,-1.2513,-1.2272,-1.2609,-1.2533,-1.2236,-1.2257,-1.2399,-1.2668,-1.3413,-1.3474,-1.3228,-1.3524,-1.2981,-1.2007,-1.1021,-1.0626,-1.0421,-1.0059,-1.0284,-1.0565,-1.0317,-1.0288,-1.031,-1.0166,-1.013,-0.9991,-0.9631,-0.8598,-0.7514,-0.6734,-0.5551,-0.5145,-0.6555,-0.7304,-0.8844,-1.2105,-1.4077,-1.5777,-1.7335,-1.757,-1.751,-1.7303,-1.7559,-1.7222,-1.6015,-1.5324,-1.2385,-0.6471,-0.4004,-0.0383,0.4806,0.6019,0.6848,0.7379,0.7532,0.7276,0.6666,0.6422,0.5952,0.5317,0.5658,0.5399,0.4671,0.541,0.5313,0.4673,0.4895,0.4275,0.3206,0.2985,0.2616,0.2165,0.1676,0.1324,0.0897,-1.5788,-1.5407,-1.5072,-1.4994,-1.5329,-1.5624,-1.5668,-1.5913,-1.6111,-1.6194,-1.582,-1.5376,-1.4905,-1.3664,-1.2618,-1.206,-1.1936,-1.1824,-1.1694,-1.1851,-1.2311,-1.3118,-1.3891,-1.4701,-1.557,-1.6041,-1.6188,-1.602,-1.5463,-1.474,-1.3937,-1.3283,-1.2868,-1.2712,-1.2957,-1.2906,-1.2656,-1.272,-1.2917,-1.3168,-1.2954,-1.2719,-1.2575,-1.2826,-1.2567,-1.2033,-1.2033,-1.2096,-1.2209,-1.2486,-1.2571,-1.2568,-1.2399,-1.2099,-1.1589,-1.0378,-0.9957,-0.9728,-0.9158,-0.9319,-0.9546,-0.9329,-0.9243,-0.9117,-0.8802,-0.8146,-0.7784,-0.8382,-0.7737,-0.7,-0.6832,-0.4743,-0.4051,-0.7193,-0.7176,-0.8346,-1.2888,-1.4722,-1.6203,-1.7871,-1.6769,-1.6272,-1.723,-1.6971,-1.6484,-1.5908,-1.3775,-0.9835,-0.3743,-0.1223,0.2405,0.7565,0.7958,0.8123,0.8286,0.814,0.7948,0.7684,0.6984,0.6129,0.5186,0.4989,0.4709,0.4404,0.4781,0.4662,0.4168,0.4174,0.3278,0.1826,0.1546,0.1033,0.0427,0.014,-0.0136,-0.0465]},{"header":{"parameterUnit":"m.s-1","parameterCategory":1,"la1":30.6,"la2":28.766,"lo1":-90.7593,"lo2":-88.6598,"dy":0.0162,"dx":0.0183,"nx":116,"ny":114,"refTime":"2023-03-06T06:00:00:Z","depth":0,"parameterNumber":3,"parameterNumberName":"V-component_of_WINDS"},"data":[0.0,0.0,0.0,0.0,0.0,0.0,0.0,0.0,0.0,0.0,0.0,0.0,0.0,0.0,0.0,0.0,0.0,0.0,0.0,0.0,0.0,0.0,0.0,0.0,0.0,0.0,0.0,0.0,0.0,0.0,0.0,0.0,0.0,0.0,0.0,0.0,0.0,0.0,0.0,0.0,0.0,0.0,0.0,0.0,0.0,0.0,0.0,0.0,0.0,0.0,0.0,0.0,0.0,0.0,0.0,0.0,0.0,0.0,0.0,0.0,0.0,0.0,0.0,0.0,0.0,0.0,0.0,0.0,0.0,0.0,0.0,0.0,0.0,0.0,0.0,0.0,0.0,0.0,0.0,0.0,0.0,0.0,0.0,0.0,0.0,0.0,0.0,0.0,0.0,0.0,0.0,0.0,0.0,0.0,0.0,0.0,0.0,0.0,0.0,0.0,0.0,0.0,0.0,0.0,0.0,0.0,0.0,0.0,0.0,0.0,0.0,0.0,0.0,0.0,0.0,0.0,0.0,0.0,0.0,0.0,0.0,0.0,0.0,0.0,0.0,0.0,0.0,0.0,0.0,0.0,0.0,0.0,0.0,0.0,0.0,0.0,0.0,0.0,0.0,0.0,0.0,0.0,0.0,0.0,0.0,0.0,0.0,0.0,0.0,0.0,0.0,0.0,0.0,0.0,0.0,0.0,0.0,0.0,0.0,0.0,0.0,0.0,0.0,0.0,0.0,0.0,0.0,0.0,0.0,0.0,0.0,0.0,0.0,0.0,0.0,0.0,0.0,0.0,0.0,0.0,0.0,0.0,0.0,0.0,0.0,0.0,0.0,0.0,0.0,0.0,0.0,0.0,0.0,0.0,0.0,0.0,0.0,0.0,0.0,0.0,0.0,0.0,0.0,0.0,0.0,0.0,0.0,0.0,0.0,0.0,0.0,0.0,0.0,0.0,0.0,0.0,0.0,0.0,0.0,0.0,0.0,0.0,0.0,0.0,0.0,0.0,0.0,0.0,0.0,0.0,0.0,0.0,0.0,0.0,0.0,0.0,0.0,0.0,0.0,0.0,0.0,0.0,0.0,0.0,0.0,0.0,0.0,0.0,0.0,0.0,0.0,0.0,0.0,0.0,0.0,0.0,0.0,0.0,0.0,0.0,0.0,0.0,0.0,0.0,0.0,0.0,0.0,0.0,0.0,0.0,0.0,0.0,0.0,0.0,0.0,0.0,0.0,0.0,0.0,0.0,0.0,0.0,0.0,0.0,0.0,0.0,0.0,0.0,0.0,0.0,0.0,0.0,0.0,0.0,0.0,0.0,0.0,0.0,0.0,0.0,0.0,0.0,0.0,0.0,0.0,0.0,0.0,0.0,0.0,0.0,0.0,0.0,0.0,0.0,0.0,0.0,0.0,0.0,0.0,0.0,0.0,0.0,0.0,0.0,0.0,0.0,0.0,0.0,0.0,0.0,0.0,0.0,0.0,0.0,0.0,0.0,0.0,0.0,0.0,0.0,0.0,0.0,0.0,0.0,0.0,0.0,0.0,0.0,0.0,0.0,0.0,0.0,0.0,0.0,0.0,0.0,0.0,0.0,0.0,0.0,0.0,0.0,0.0,0.0,0.0,0.0,0.0,0.0,0.0,0.0,0.0,0.0,0.0,0.0,0.0,0.0,0.0,0.0,0.0,0.0,0.0,0.0,0.0,0.0,0.0,0.0,0.0,0.0,0.0,0.0,0.0,0.0,0.0,0.0,0.0,0.0,0.0,0.0,0.0,0.0,0.0,0.0,0.0,0.0,0.0,0.0,0.0,0.0,0.0,0.0,0.0,0.0,0.0,0.0,0.0,0.0,0.0,0.0,0.0,0.0,0.0,0.0,0.0,0.0,0.0,0.0,0.0,0.0,0.0,0.0,0.0,0.0,0.0,0.0,0.0,0.0,0.0,0.0,0.0,0.0,0.0,0.0,0.0,0.0,0.0,0.0,0.0,0.0,0.0,0.0,0.0,0.0,0.0,0.0,0.0,0.0,0.0,0.0,0.0,0.0,0.0,0.0,0.0,0.0,0.0,0.0,0.0,0.0,0.0,0.0,0.0,0.0,0.0,0.0,0.0,0.0,0.0,0.0,0.0,0.0,0.0,0.0,0.0,0.0,0.0,0.0,0.0,0.0,0.0,0.0,0.0,0.0,0.0,0.0,0.0,0.0,0.0,0.0,0.0,0.0,0.0,0.0,0.0,0.0,0.0,0.0,0.0,0.0,0.0,0.0,0.0,0.0,0.0,0.0,0.0,0.0,0.0,0.0,0.0,0.0,0.0,0.0,0.0,0.0,0.0,0.0,0.0,0.0,0.0,0.0,0.0,0.0,0.0,0.0,0.0,0.0,0.0,0.0,0.0,0.0,0.0,0.0,0.0,0.0,0.0,0.0,0.0,0.0,0.0,0.0,0.0,0.0,0.0,0.0,0.0,0.0,0.0,0.0,0.0,0.0,0.0,0.0,0.0,0.0,0.0,0.0,0.0,0.0,0.0,0.0,0.0,0.0,0.0,0.0,0.0,0.0,0.0,0.0,0.0,0.0,0.0,0.0,0.0,0.0,0.0,0.0,0.0,0.0,0.0,0.0,0.0,0.0,0.0,0.0,0.0,0.0,0.0,0.0,0.0,0.0,0.0,0.0,0.0,0.0,0.0,0.0,0.0,0.0,0.0,0.0,0.0,0.0,0.0,0.0,0.0,0.0,0.0,0.0,0.0,0.0,0.0,0.0,0.0,0.0,0.0,0.0,0.0,0.0,0.0,0.0,0.0,0.0,0.0,0.0,0.0,0.0,0.0,0.0,0.0,0.0,0.0,0.0,0.0,0.0,0.0,0.0,0.0,0.0,0.0,0.0,0.0,0.0,0.0,0.0,0.0,0.0,0.0,0.0,0.0,0.0,0.0,0.0,0.0,0.0,0.0,0.0,0.0,0.0,0.0,0.0,0.0,0.0,0.0,0.0,0.0,0.0,0.0,0.0,0.0,0.0,0.0,0.0,0.0,0.0,0.0,0.0,0.0,0.0,0.0,0.0,0.0,0.0,0.0,0.0,0.0,0.0,0.0,0.0,0.0,0.0,0.0,0.0,0.0,0.0,0.0,0.0,0.0,0.0,0.0,0.0,0.0,0.0,0.0,0.0,0.0,0.0,0.0,0.0,0.0,0.0,0.0,0.0,0.0,0.0,0.0,0.0,0.0,0.0,0.0,0.0,0.0,0.0,0.0,0.0,0.0,0.0,0.0,0.0,0.0,0.0,0.0,0.0,0.0,0.0,0.0,0.0,0.0,0.0,0.0,0.0,0.0,0.0,0.0,0.0,0.0,0.0,0.0,0.0,0.0,0.0,0.0,0.0,0.0,0.0,0.0,0.0,0.0,0.0,0.0,0.0,0.0,0.0,0.0,0.0,0.0,0.0,0.0,0.0,0.0,0.0,0.0,0.0,0.0,0.0,0.0,0.0,0.0,0.0,0.0,0.0,0.0,0.0,0.0,0.0,0.0,0.0,0.0,0.0,0.0,0.0,0.0,0.0,0.0,0.0,0.0,0.0,0.0,0.0,0.0,0.0,0.0,0.0,0.0,0.0,0.0,0.0,0.0,0.0,0.0,0.0,0.0,0.0,0.0,0.0,0.0,0.0,0.0,0.0,0.0,0.0,0.0,0.0,0.0,0.0,0.0,0.0,0.0,0.0,0.0,0.0,0.0,0.0,0.0,0.0,0.0,0.0,0.0,0.0,0.0,0.0,0.0,0.0,0.0,0.0,0.0,0.0,0.0,0.0,0.0,0.0,0.0,0.0,0.0,0.0,0.0,0.0,0.0,0.0,0.0,0.0,0.0,0.0,0.0,0.0,0.0,0.0,0.0,0.0,0.0,0.0,0.0,0.0,0.0,0.0,0.0,0.0,0.0,0.0,0.0,0.0,0.0,0.0,0.0,0.0,0.0,0.0,0.0,0.0,0.0,0.0,0.0,0.0,0.0,0.0,0.0,0.0,0.0,0.0,0.0,0.0,0.0,0.0,0.0,0.0,0.0,0.0,0.0,0.0,0.0,0.0,0.0,0.0,0.0,0.0,0.0,0.0,0.0,0.0,0.0,0.0,0.0,0.0,0.0,0.0,0.0,0.0,0.0,0.0,0.0,0.0,0.0,0.0,0.0,0.0,0.0,0.0,0.0,0.0,0.0,0.0,0.0,0.0,0.0,0.0,0.0,0.0,0.0,0.0,0.0,0.0,0.0,0.0,0.0,0.0,0.0,0.0,0.0,0.0,0.0,0.0,0.0,0.0,0.0,0.0,0.0,0.0,0.0,0.0,0.0,0.0,0.0,0.0,0.0,0.0,0.0,0.0,0.0,0.0,0.0,0.0,0.0,0.0,0.0,0.0,0.0,0.0,0.0,0.0,0.0,0.0,0.0,0.0,0.0,0.0,0.0,0.0,0.0,0.0,0.0,0.0,0.0,0.0,0.0,0.0,0.0,0.0,0.0,0.0,0.0,0.0,0.0,0.0,0.0,0.0,0.0,0.0,0.0,0.0,0.0,0.0,0.0,0.0,0.0,0.0,0.0,0.0,0.0,0.0,0.0,0.0,0.0,0.0,0.0,0.0,0.0,0.0,0.0,0.0,0.0,0.0,0.0,0.0,0.0,0.0,0.0,0.0,0.0,0.0,0.0,0.0,0.0,0.0,0.0,0.0,0.0,0.0,0.0,0.0,0.0,0.0,0.0,0.0,0.0,0.0,0.0,0.0,0.0,0.0,0.0,0.0,0.0,0.0,0.0,0.0,0.0,0.0,0.0,0.0,0.0,0.0,0.0,0.0,0.0,0.0,0.0,0.0,0.0,0.0,0.0,0.0,0.0,0.0,0.0,0.0,0.0,0.0,0.0,0.0,0.0,0.0,0.0,0.0,0.0,0.0,0.0,0.0,0.0,0.0,0.0,0.0,0.0,0.0,0.0,0.0,0.0,0.0,0.0,0.0,0.0,0.0,0.0,0.0,0.0,0.0,0.0,0.0,0.0,0.0,0.0,0.0,0.0,0.0,0.0,0.0,0.0,0.0,0.0,0.0,0.0,0.0,0.0,0.0,0.0,0.0,0.0,0.0,0.0,0.0,0.0,0.0,0.0,0.0,0.0,0.0,0.0,0.0,0.0,0.0,0.0,0.0,0.0,0.0,0.0,0.0,0.0,0.0,0.0,0.0,0.0,0.0,0.0,0.0,0.0,0.0,0.0,0.0,0.0,0.0,0.0,0.0,0.0,0.0,0.0,0.0,0.0,0.0,0.0,0.0,0.0,0.0,0.0,0.0,0.0,0.0,0.0,0.0,0.0,0.0,0.0,0.0,0.0,0.0,0.0,0.0,0.0,0.0,0.0,0.0,0.0,0.0,0.0,0.0,0.0,0.0,0.0,0.0,0.0,0.0,0.0,0.0,0.0,0.0,0.0,0.0,0.0,0.0,0.0,0.0,0.0,0.0,0.0,0.0,0.0,0.0,0.0,0.0,0.0,0.0,0.0,0.0,0.0,0.0,0.0,0.0,0.0,0.0,0.0,0.0,0.0,0.0,0.0,0.0,0.0,0.0,0.0,0.0,0.0,0.0,0.0,0.0,0.0,0.0,0.0,0.0,0.0,0.0,0.0,0.0,0.0,0.0,0.0,0.0,0.0,0.0,0.0,0.0,0.0,0.0,0.0,0.0,0.0,0.0,0.0,0.0,0.0,0.0,0.0,0.0,0.0,0.0,0.0,0.0,0.0,0.0,0.0,0.0,0.0,0.0,0.0,0.0,0.0,0.0,0.0,0.0,0.0,0.0,0.0,0.0,0.0,0.0,0.0,0.0,0.0,0.0,0.0,0.0,0.0,0.0,0.0,0.0,0.0,0.0,0.0,0.0,0.0,0.0,0.0,0.0,0.0,0.0,0.0,0.0,0.0,0.0,0.0,0.0,0.0,0.0,0.0,0.0,0.0,0.0,0.0,0.0,0.0,0.0,0.0,0.0,0.0,0.0,0.0,0.0,0.0,0.0,0.0,0.0,0.0,0.0,0.0,0.0,0.0,0.0,0.0,0.0,0.0,0.0,0.0,0.0,0.0,0.0,-2.1969,0.0,0.0,0.0,0.0,0.0,0.0,0.0,0.0,0.0,0.0,0.0,0.0,0.0,0.0,0.0,0.0,0.0,0.0,0.0,0.0,0.0,0.0,0.0,0.0,0.0,0.0,0.0,0.0,0.0,0.0,0.0,0.0,0.0,0.0,0.0,0.0,0.0,0.0,0.0,0.0,0.0,0.0,0.0,0.0,0.0,0.0,0.0,0.0,0.0,0.0,0.0,0.0,0.0,0.0,0.0,0.0,0.0,0.0,0.0,0.0,0.0,0.0,0.0,0.0,0.0,0.0,0.0,0.0,0.0,0.0,0.0,0.0,0.0,0.0,0.0,0.0,0.0,0.0,0.0,0.0,0.0,0.0,0.0,0.0,0.0,0.0,0.0,0.0,0.0,0.0,0.0,0.0,0.0,0.0,0.0,0.0,0.0,0.0,0.0,0.0,0.0,0.0,0.0,0.0,0.0,0.0,0.0,0.0,0.0,0.0,0.0,0.0,0.0,0.0,0.0,0.0,-2.29,0.0,0.0,0.0,0.0,0.0,0.0,0.0,0.0,0.0,0.0,0.0,0.0,0.0,0.0,0.0,0.0,0.0,0.0,0.0,0.0,0.0,0.0,0.0,0.0,0.0,0.0,0.0,0.0,0.0,0.0,0.0,0.0,0.0,0.0,0.0,0.0,0.0,0.0,0.0,0.0,0.0,0.0,0.0,0.0,0.0,0.0,0.0,0.0,0.0,0.0,0.0,0.0,0.0,0.0,0.0,0.0,0.0,0.0,0.0,0.0,0.0,0.0,0.0,0.0,0.0,0.0,0.0,0.0,0.0,0.0,0.0,0.0,0.0,0.0,0.0,0.0,0.0,0.0,0.0,0.0,0.0,0.0,0.0,0.0,0.0,0.0,0.0,0.0,0.0,0.0,0.0,0.0,0.0,0.0,0.0,0.0,0.0,0.0,0.0,0.0,0.0,0.0,0.0,0.0,0.0,0.0,0.0,0.0,-1.8968,-1.9975,-2.0374,-2.0828,-2.1729,-2.2798,-2.3041,-2.3602,-2.4559,-2.5667,0.0,0.0,0.0,0.0,0.0,0.0,0.0,0.0,0.0,0.0,0.0,0.0,0.0,0.0,0.0,0.0,0.0,0.0,0.0,0.0,0.0,0.0,0.0,0.0,0.0,0.0,0.0,0.0,0.0,0.0,0.0,0.0,0.0,0.0,0.0,0.0,0.0,0.0,0.1088,0.0923,-0.0324,-0.2448,-0.4543,0.0,0.0,0.0,0.0,0.0,0.0,0.0,0.0,0.0,0.0,0.0,0.0,0.0,0.0,0.0,0.0,0.0,0.0,0.0,0.0,0.0,0.0,0.0,0.0,0.0,0.0,0.0,0.0,0.0,0.0,0.0,0.0,0.0,0.0,0.0,0.0,0.0,0.0,0.0,0.0,0.0,0.0,0.0,-0.6207,-0.8182,0.0,0.0,0.0,0.0,0.0,0.0,0.0,0.0,0.0,0.0,0.0,0.0,0.0,-1.4702,-1.5334,-1.7017,-1.754,-1.6905,-1.9243,-2.0558,-2.0811,-2.064,-2.1465,-2.2972,-2.3874,0.0,-2.4917,-2.5784,0.0,0.0,0.0,0.0,0.0,0.0,0.0,0.0,0.0,0.0,0.0,0.0,0.0,0.0,0.0,0.0,0.0,0.0,0.0,0.0,0.0,0.0,0.0,0.0,0.0,0.0,0.0,0.0,0.0,0.0,0.0,0.0,0.0,0.0,0.0,0.0,0.3695,0.3839,0.3068,0.2661,0.1456,-0.0298,-0.1245,-0.3592,-0.7004,-0.9213,0.0,0.0,0.0,0.0,0.0,0.0,0.0,0.0,0.0,0.0,0.0,0.0,0.0,0.0,0.0,0.0,0.0,0.0,0.0,0.0,0.0,0.0,0.0,0.0,0.0,0.0,0.0,0.0,0.0,0.0,0.0,0.0,0.0,0.0,0.0,0.0,0.0,0.0,0.0,-0.5698,-0.5967,-0.8234,-1.0036,-1.1961,0.0,0.0,0.0,0.0,0.0,0.0,0.0,0.0,0.0,-1.5083,-1.4889,-1.5397,-1.6648,-1.7961,-1.8633,-1.8546,-2.0107,-2.1053,-2.1341,-2.1465,-2.2422,-2.3988,-2.4787,-2.5565,-2.6288,-2.6474,-2.6638,-2.6893,0.0,0.0,0.0,0.0,-2.9421,-2.8925,0.0,0.0,0.0,0.0,0.0,0.0,0.0,0.0,0.0,0.0,0.0,0.0,0.0,0.0,0.0,0.1305,0.0,0.0,0.0,0.0,0.0,0.0,0.0,0.0,0.0,0.0,0.0,0.0,0.5109,0.5119,0.4866,0.4181,0.302,0.1462,0.1053,-0.1344,-0.525,-0.7218,-0.9216,0.0,0.0,0.0,0.0,0.0,0.0,0.0,0.0,0.0,0.0,0.0,0.0,0.0,0.0,0.0,0.0,0.0,0.0,0.0,0.0,0.0,0.0,0.0,0.0,0.0,0.0,0.0,0.0,0.0,0.0,0.0,0.0,0.0,0.0,0.0,0.0,0.0,0.0,-0.5257,-0.5866,-0.7852,-0.9639,-1.1409,0.0,0.0,0.0,0.0,0.0,0.0,-1.3763,-1.3046,-1.3345,-1.4689,-1.5079,-1.5913,-1.7187,-1.8573,-1.9401,-1.965,-2.0548,-2.1163,-2.1697,-2.2083,-2.3146,-2.4681,-2.5573,-2.6371,-2.7091,-2.694,-2.7016,-2.7195,-2.6955,-2.7617,-2.8848,-2.9115,-2.9247,-2.9233,0.0,0.0,0.0,0.0,0.0,0.0,0.0,0.0,0.0,0.0,0.0,0.0,0.0,0.0,0.4684,0.4025,0.2217,0.0402,0.0,0.0,0.0,0.0,0.0,0.0,0.0,0.0,0.0,0.5711,0.6615,0.6529,0.5547,0.4961,0.4165,0.3042,0.1579,-0.0803,-0.3799,-0.4907,-0.7072,-0.9814,0.0,0.0,0.0,0.0,0.0,0.0,0.0,0.0,0.0,0.0,0.0,0.0,0.0,0.0,0.0,0.0,0.0,0.0,0.0,0.0,0.0,0.0,0.0,0.0,0.0,0.0,0.0,0.0,0.0,0.0,0.0,0.0,0.0,0.0,0.0,0.0,0.0,0.0,0.0,-0.641,-0.8972,0.0,0.0,0.0,0.0,-1.4817,-1.4207,-1.3906,-1.4068,-1.3445,-1.3607,-1.4713,-1.5085,-1.5709,-1.6425,-1.844,-1.9377,-1.9222,-2.0081,-2.0874,-2.1494,-2.1771,-2.2757,-2.4418,-2.5802,-2.6405,-2.6417,-2.6784,-2.704,-2.7203,-2.7416,-2.7994,-2.8814,-2.8894,-2.9021,-2.9079,0.0,0.0,0.0,0.0,0.0,0.0,0.0,0.0,0.0,0.0,0.0,0.0,0.0,0.5698,0.6059,0.5347,0.4429,0.3113,0.1337,0.0,0.0,0.0,0.0,0.0,0.0,0.0,0.6638,0.7238,0.7645,0.7565,0.7014,0.6441,0.5641,0.4622,0.3669,0.1847,-0.0609,-0.313,-0.5022,-0.6563,-0.8751,-1.0685,0.0,0.0,0.0,0.0,0.0,0.0,0.0,0.0,0.0,0.0,0.0,0.0,0.0,0.0,0.0,0.0,0.0,0.0,0.0,0.0,0.0,0.0,0.0,0.0,0.0,0.0,0.0,0.0,0.0,0.0,0.0,0.0,0.0,0.0,0.0,0.0,0.0,-0.8586,-1.0102,0.0,-1.2668,-1.2977,-1.3302,-1.3905,-1.3412,-1.3159,-1.3207,-1.2942,-1.3423,-1.462,-1.5575,-1.6753,-1.7968,-1.9158,-1.9742,-1.9623,-1.967,-2.0111,-2.0761,-2.1163,-2.205,-2.3406,-2.4419,-2.5036,-2.5318,-2.5323,-2.5431,-2.5543,-2.6034,-2.6492,-2.6929,-2.7446,-2.7931,-2.8426,0.0,0.0,0.0,0.0,0.0,0.0,0.0,0.0,0.0,0.0,0.0,0.408,0.5868,0.71,0.7745,0.7643,0.689,0.5814,0.4258,0.0,0.0,0.0,0.0,0.0,0.0,0.7301,0.8354,0.8971,0.9039,0.888,0.8446,0.7831,0.7072,0.6225,0.5257,0.4039,0.2487,-0.0607,-0.2815,-0.4338,-0.6559,-0.8597,-1.0573,0.0,0.0,0.0,0.0,0.0,0.0,0.0,0.0,0.0,0.0,0.0,0.0,0.0,0.0,0.0,0.0,0.0,0.0,0.0,0.0,0.0,0.0,0.0,0.0,0.0,0.0,0.0,0.0,0.0,0.0,0.0,0.0,0.0,0.0,0.0,-0.9605,-0.9513,-1.0696,-1.1605,-1.2014,-1.2348,-1.2586,-1.2968,-1.2802,-1.2653,-1.2428,-1.2552,-1.3153,-1.4483,-1.5639,-1.6896,-1.8283,-1.9179,-1.9543,-1.9423,-1.9325,-1.965,-2.0315,-2.0916,-2.175,-2.28,-2.3743,-2.4284,-2.4507,-2.4425,-2.4136,-2.3827,-2.5138,-2.5855,-2.6166,-2.669,-2.7304,-2.7981,0.0,0.0,0.0,0.0,0.0,0.0,0.0,0.0,0.0,0.0,0.2086,0.506,0.7734,0.8877,0.9869,1.0983,0.9679,0.8367,0.7378,0.5846,0.0,0.0,0.0,0.0,0.8124,0.9416,1.0375,1.0872,1.0872,1.0527,0.9879,0.9113,0.8436,0.7729,0.6264,0.5562,0.5345,0.2597,-0.0332,-0.3269,-0.4599,-0.6765,-0.9365,0.0,0.0,0.0,0.0,0.0,0.0,0.0,0.0,0.0,0.0,0.0,0.0,0.0,0.0,0.0,0.0,0.0,0.0,0.0,0.0,0.0,0.0,0.0,0.0,0.0,0.0,0.0,0.0,0.0,0.0,0.0,0.0,0.0,-0.9308,-0.9597,-0.966,-0.8952,-1.0482,-1.1244,-1.0283,-1.1763,-1.2541,-1.2017,-1.2392,-1.2484,-1.1888,-1.2135,-1.2901,-1.4272,-1.5101,-1.6025,-1.7128,-1.8452,-1.887,-1.8344,-1.8908,-1.9489,-2.0185,-2.1134,-2.1989,-2.2685,-2.3885,-2.4248,-2.3965,-2.4103,-2.3412,-2.2407,-2.4818,-2.6115,-2.6685,-2.6705,-2.7116,-2.7722,0.0,0.0,0.0,0.0,0.0,0.0,0.0,0.0,0.0,0.0,0.3569,0.6439,0.8571,0.9501,1.0359,1.124,1.0576,0.9985,0.9829,0.0,0.0,0.0,0.0,0.0,1.1452,1.2243,1.2666,1.2819,1.2819,1.2445,1.1751,1.0822,1.0027,0.9395,0.8031,0.7059,0.6282,0.49,0.2475,-0.0662,-0.309,-0.5263,-0.7378,0.0,0.0,0.0,0.0,0.0,0.0,0.0,0.0,0.0,0.0,0.0,0.0,0.0,0.0,0.0,0.0,0.0,0.0,0.0,0.0,0.0,0.0,0.0,0.0,0.0,0.0,0.0,0.0,0.0,0.0,0.0,0.0,-1.1447,-1.0501,-1.0919,-1.129,-1.0909,-1.1614,-1.1968,-1.1553,-1.1865,-1.1876,-1.1582,-1.1769,-1.1833,-1.1665,-1.1863,-1.2079,-1.227,-1.3966,-1.5076,-1.5404,-1.6994,-1.7683,-1.7541,-1.8043,-1.8665,-1.9338,-2.0157,-2.0896,-2.1659,-2.2055,-2.2309,-2.2298,-2.2111,-2.182,-2.1789,-2.3688,-2.4313,-2.4256,-2.4704,-2.5043,-2.536,0.0,0.0,0.0,0.0,0.0,0.0,0.0,0.0,0.0,0.0,0.355,0.6442,0.8539,0.9821,1.0878,1.1764,1.1592,1.1589,1.1997,0.0,0.0,0.0,0.0,1.3648,1.4204,1.4519,1.4788,1.4944,1.4495,1.396,1.3328,1.2233,1.141,1.0849,0.9827,0.8819,0.784,0.635,0.3996,0.0989,-0.2252,-0.4776,-0.6833,-0.8788,-1.0519,-1.1981,-1.255,-1.3193,-1.3764,-1.3763,0.0,0.0,0.0,0.0,0.0,0.0,0.0,0.0,0.0,0.0,0.0,0.0,0.0,0.0,0.0,0.0,0.0,0.0,0.0,0.0,0.0,0.0,0.0,0.0,-1.2129,-1.2071,-1.168,-1.1957,-1.2004,-1.1686,-1.212,-1.2178,-1.1695,-1.1657,-1.1555,-1.1128,-1.1249,-1.1282,-1.1236,-1.1384,-1.1528,-1.1808,-1.3181,-1.4165,-1.4674,-1.5896,-1.6694,-1.683,-1.789,-1.8643,-1.9044,-2.0096,-2.0764,-2.1221,-2.1273,-2.1295,-2.1284,-2.1089,-2.0997,0.0,0.0,0.0,0.0,0.0,-2.4394,-2.4275,0.0,0.0,0.0,0.0,0.0,0.0,0.0,0.0,0.0,0.0,0.0,0.5362,0.7627,0.9432,1.0904,1.1991,1.2304,1.286,0.0,0.0,0.0,1.4973,1.516,1.5679,1.652,1.6532,1.6736,1.7114,1.6134,1.5359,1.4778,1.3563,1.2702,1.2194,1.157,1.0751,0.97,0.7424,0.4873,0.2016,-0.1787,-0.4785,-0.7127,-0.8528,-1.0115,-1.1469,-1.1174,-1.1466,-1.2003,-1.1814,0.0,0.0,0.0,0.0,0.0,0.0,0.0,0.0,0.0,0.0,0.0,0.0,0.0,0.0,0.0,0.0,0.0,0.0,0.0,0.0,0.0,0.0,0.0,0.0,-1.2648,-1.2551,-1.2758,-1.2576,-1.2253,-1.1903,-1.2154,-1.1976,-1.1161,-1.1372,-1.1277,-1.054,-1.0712,-1.0835,-1.0767,0.0,0.0,0.0,0.0,-1.3358,-1.4466,-1.5203,-1.5863,-1.6342,-1.8027,-1.888,-1.8961,-2.0353,-2.098,-2.106,-2.106,-2.0869,-2.0635,-2.0674,-2.0622,-2.0686,-2.2418,-2.3102,-2.3228,-2.4429,-2.4498,-2.3906,0.0,0.0,0.0,0.0,0.0,0.0,0.0,0.0,0.0,-0.1744,0.0978,0.3433,0.5181,0.6506,0.8034,1.0101,1.0856,1.2522,0.0,0.0,1.7126,1.7477,1.7875,1.8278,1.8602,1.8602,1.8788,1.9154,1.8144,1.7345,1.6719,1.5296,1.4205,1.343,1.3362,1.2583,1.1211,0.993,0.7063,0.2999,-0.0848,-0.4227,-0.7295,-0.984,-1.1132,-1.166,-1.2325,-1.1886,-1.0956,-1.1449,-1.1266,-1.1116,-1.2996,0.0,0.0,0.0,0.0,0.0,0.0,0.0,0.0,0.0,0.0,0.0,0.0,0.0,0.0,0.0,0.0,0.0,0.0,0.0,0.0,-1.3072,-1.2903,-1.268,-1.246,-1.2657,-1.2723,-1.2574,-1.2264,-1.1837,-1.1437,-1.0864,-1.0451,-1.0089,-1.0231,-1.0318,-1.0299,-1.0588,-1.0887,-1.1111,-1.1919,-1.2808,-1.3673,-1.4609,-1.5476,-1.6342,0.0,0.0,-1.8485,-1.9264,-1.9778,-1.9975,-1.9975,-2.0037,-2.0017,-1.9703,-2.0269,-2.1381,-2.219,-2.2446,-2.2526,-2.3806,-2.3568,-2.2667,0.0,0.0,0.0,0.0,0.0,0.0,0.0,0.0,0.0,0.0,-0.1987,-0.0054,0.1713,0.3298,0.4863,0.653,0.988,0.0,0.0,1.7758,1.8541,1.9294,1.9353,1.9528,1.9834,1.9869,1.9993,2.0304,1.9122,1.8291,1.7774,1.6474,1.552,1.4895,1.5089,1.4534,1.3315,1.134,0.7641,0.2708,-0.1597,-0.5937,-0.9987,-1.1492,-1.2888,-1.383,-1.288,-1.2296,-1.1739,-1.0249,-0.996,-1.0425,-1.1532,-1.2704,-1.3661,0.0,0.0,0.0,0.0,0.0,0.0,0.0,0.0,0.0,0.0,0.0,0.0,0.0,0.0,-1.3284,0.0,0.0,-1.4261,-1.4148,-1.3733,-1.3283,-1.2735,-1.2675,-1.2606,-1.2589,-1.2213,-1.1756,-1.1358,-1.0718,-1.022,-0.9927,-0.9992,-1.0143,-1.0368,-1.0519,-1.0738,-1.0962,-1.1409,-1.2077,-1.2879,-1.3818,-1.4664,-1.5333,-1.6763,-1.7412,-1.745,-1.8509,-1.9077,-1.9227,-1.9559,-1.9598,-1.9414,-1.9631,-2.0409,-2.1496,-2.2054,-2.2394,-2.2718,-2.335,-2.2985,-2.232,0.0,0.0,0.0,0.0,0.0,0.0,0.0,0.0,0.0,0.0,-0.5149,-0.3587,-0.1991,-0.0159,0.1728,0.0,0.0,0.0,0.0,1.8607,1.9656,2.0552,2.0366,2.0364,2.0662,2.0662,2.0778,2.1023,1.9796,1.9045,1.8698,1.765,1.6879,1.643,1.6876,1.6562,1.5475,1.2839,0.8606,0.3182,-0.1677,-0.6919,-1.197,-1.3286,-1.4952,-1.6336,-1.407,-1.3167,-1.2622,-0.9646,-0.919,-0.9918,-1.0355,-1.1565,-1.2758,-1.2633,-1.3289,0.0,0.0,0.0,0.0,0.0,0.0,0.0,0.0,0.0,-1.0594,-1.3121,-1.3599,-1.418,-1.6218,-1.5981,-1.5437,-1.532,-1.4547,-1.3785,-1.3123,-1.2811,-1.2731,-1.2863,-1.2248,-1.1605,-1.1358,-1.0494,-0.9906,-0.9706,-0.9533,-0.9609,-0.9906,-1.0137,-1.0438,-1.0732,-1.0908,-1.1428,-1.2298,-1.3179,-1.3869,-1.4352,-1.6039,-1.6653,-1.6427,-1.7767,-1.8387,-1.843,-1.9192,-1.9309,-1.9092,-1.9962,-2.0746,-2.1471,-2.1996,-2.2479,-2.2915,-2.3011,-2.2687,-2.2402,0.0,0.0,0.0,0.0,0.0,0.0,0.0,0.0,0.0,0.0,0.0,0.0,0.0,0.0,0.0,0.0,0.0,0.0,1.6837,1.9215,2.0716,2.1276,2.1323,2.1276,2.1214,2.1214,2.1293,2.1415,2.0698,2.0306,2.0237,1.9502,1.8706,1.793,1.9074,1.8709,1.715,1.5676,1.2029,0.6758,0.1577,-0.3942,-0.9635,-1.4971,-1.7289,-1.7708,-1.7491,-1.5202,-1.2145,-1.148,-0.9384,-0.7389,-0.9221,-1.0176,-1.0601,-1.0962,0.0,-1.1756,-1.0558,-0.9563,-0.8759,-0.8424,-0.8184,-0.824,0.0,0.0,-1.1871,-1.3706,-1.5063,-1.6369,-1.7967,-1.7095,-1.6102,-1.5792,-1.4574,-1.3577,-1.3194,-1.3132,-1.3525,-1.4643,-1.2714,-1.1388,-1.1615,-0.9986,-0.888,-0.8856,-0.8156,-0.777,-0.7842,-0.8836,-0.9448,-0.9523,-1.029,-1.124,-1.2298,-1.2899,-1.3646,-1.4566,-1.5451,-1.5928,-1.6113,-1.6758,-1.718,-1.7422,-1.8464,-1.9078,-1.9405,-2.0372,-2.1006,-2.1471,-2.1996,-2.2226,-2.233,-2.2626,-2.2721,-2.2754,0.0,0.0,0.0,0.0,0.0,0.0,0.0,0.0,0.0,0.0,0.0,0.0,0.0,0.0,0.0,0.0,0.0,0.0,1.5879,1.8741,2.0767,2.1919,2.1866,2.1705,2.1493,2.1615,2.1764,2.1866,2.1537,2.1306,2.1191,2.0737,2.0324,1.9942,2.0594,2.0448,1.9614,1.6954,1.2709,0.7305,0.2211,-0.3301,-0.8983,-1.3543,-1.6036,-1.7186,-1.7925,-1.6636,0.0,0.0,-0.8896,-0.7562,-0.8561,-0.9604,-1.0424,-1.0462,-1.1417,0.0,-1.0335,-0.8889,0.0,0.0,-0.7034,-0.7707,-0.9108,-1.0536,-1.2275,-1.4689,-1.6112,-1.7327,-1.8676,-1.7985,-1.6843,0.0,-1.4596,-1.3302,-1.2373,-1.25,-1.3011,-1.3973,-1.2555,-1.174,-1.2311,-1.0443,-0.9074,-0.8699,-0.7927,-0.7536,-0.7689,-0.8147,-0.8533,-0.8761,-0.9453,-1.0109,-1.0645,-1.166,-1.2463,-1.3009,-1.4016,-1.4582,-1.4837,-1.5664,-1.6477,-1.7257,-1.8344,-1.9198,-1.9927,-2.0547,-2.1202,-2.1902,-2.2137,-2.2184,-2.2217,-2.2572,-2.2694,-2.283,0.0,0.0,0.0,0.0,0.0,0.0,0.0,0.0,0.0,0.0,0.0,0.0,0.0,0.0,0.0,0.0,0.0,0.0,0.0,1.7812,2.0447,2.2141,2.2181,2.2027,2.1761,2.2022,2.2164,2.2147,2.2269,2.2255,2.2125,2.2268,2.2233,2.2101,2.2476,2.2425,2.1809,1.7891,1.3663,0.9011,0.3008,-0.2318,-0.7183,-1.1606,-1.4414,-1.6165,-1.7443,-1.7049,0.0,0.0,-0.8713,-0.7722,-0.8012,-0.879,-0.9635,-0.9652,-1.0567,-1.1141,-0.9279,0.0,0.0,-0.5965,-0.6494,-0.7771,-0.9652,-1.1481,-1.3578,-1.6249,-1.7512,-1.844,-1.9537,-1.8574,-1.7161,-1.566,-1.3947,-1.2334,-1.1173,-1.134,-1.2037,-1.3164,-1.2469,-1.2089,-1.2497,-1.0398,-0.8836,-0.8389,-0.7391,-0.685,-0.7003,-0.7302,-0.7613,-0.7999,-0.8503,-0.9047,-0.9472,-1.0565,-1.131,-1.1696,-1.2924,-1.363,-1.3821,-1.5108,-1.6312,-1.7479,-1.859,-1.9552,-2.0383,-2.0894,-2.1541,-2.2156,-2.2002,-2.2024,-2.2087,-2.2435,-2.273,-2.2995,0.0,0.0,0.0,0.0,0.0,0.0,0.0,0.0,0.0,0.0,0.0,0.0,0.0,0.0,0.0,0.0,0.0,0.0,0.0,1.6569,1.9916,2.174,2.2243,2.2398,2.2192,2.2432,2.2495,2.2283,2.2884,2.3147,2.317,2.4338,2.4681,2.4333,2.5114,2.4822,2.3425,1.8817,1.5848,1.3462,0.4819,-0.0124,-0.3086,-0.9752,-1.3289,-1.494,-1.6417,0.0,0.0,0.0,-0.9186,-0.6865,-0.7441,-0.7371,0.0,-0.8091,-0.8055,0.0,0.0,0.0,-0.5279,-0.5321,-0.653,-0.8491,-1.1118,-1.3798,-1.638,-1.8548,-1.9587,-2.0316,-2.1082,-1.8952,-1.652,-1.4796,-1.2236,-1.0263,-0.9818,-0.9895,-1.0732,-1.2785,-1.2647,-1.2234,0.0,-0.9256,-0.754,-0.754,-0.6012,-0.5093,-0.5093,-0.6009,-0.67,-0.6938,-0.7561,-0.8384,-0.9467,-0.9902,-1.0514,-1.1245,-1.266,-1.3309,-1.339,-1.5371,-1.6856,-1.7961,-1.9202,-2.0144,-2.0845,-2.1506,-2.1949,-2.2114,-2.1569,-2.1508,-2.1743,-2.216,-2.27,-2.3303,0.0,0.0,0.0,0.0,0.0,0.0,0.0,0.0,0.0,0.0,0.0,0.0,0.0,0.0,0.0,0.0,0.0,0.0,0.0,1.2693,1.6766,1.9857,2.1562,2.2295,2.2005,2.3081,2.3613,2.3554,2.3089,2.3192,2.3753,2.2032,2.1292,2.1427,2.1934,2.1165,1.9343,1.7011,1.3609,0.9377,0.3957,-0.0,-0.3263,-0.8446,-1.1203,-1.2639,0.0,0.0,0.0,0.0,0.0,0.0,-0.8213,0.0,0.0,-0.809,0.0,0.0,0.0,0.0,-0.2897,-0.2937,-0.6073,-0.9957,-1.3279,-1.5863,-1.8061,-2.0131,-2.037,-1.9978,-1.9341,-1.6479,-1.3269,-1.0564,-0.7932,-0.6079,-0.5758,-0.6498,-0.7702,-0.9332,-0.957,0.0,0.0,0.0,0.0,-0.7165,-0.5786,-0.5018,-0.5018,-0.524,-0.5494,-0.5717,-0.6301,-0.7133,-0.8106,-0.8759,-0.958,-1.0759,-1.232,-1.3613,-1.4579,-1.5786,-1.6922,-1.7961,-1.9069,-2.0016,-2.0818,-2.0894,-2.1434,-2.2086,-2.1074,-2.1125,-2.1701,-2.1647,-2.1936,-2.2435,0.0,0.0,0.0,0.0,0.0,0.0,0.0,0.0,0.0,0.0,0.0,0.0,0.0,0.0,0.0,0.0,0.0,0.0,0.0,0.0,1.3215,1.6946,1.8122,1.8781,1.8915,1.8931,1.8864,1.8699,1.8145,1.8223,1.8895,1.7238,1.6456,1.6455,1.679,1.6107,1.454,1.1977,0.9234,0.6188,0.1023,-0.3134,-0.6559,-0.9247,-1.1226,0.0,0.0,0.0,0.0,0.0,0.0,0.0,0.0,0.0,0.0,0.0,0.0,0.0,0.0,0.1537,-0.1443,-0.1744,-0.7306,-1.3441,-1.6647,-1.8883,-2.0637,-2.2147,-2.1648,-2.0335,-1.834,-1.4128,-1.001,-0.703,-0.3647,-0.1526,-0.1854,-0.2708,-0.3963,-0.5708,-0.6201,-0.6608,0.0,0.0,0.0,-0.6546,-0.5553,-0.4996,-0.4953,-0.4876,-0.4889,-0.5064,-0.5493,-0.626,-0.7419,-0.788,-0.9058,-1.085,-1.2081,-1.3476,-1.5099,-1.5901,-1.6922,-1.795,-1.8863,-1.9775,-2.067,-2.0678,-2.1222,-2.1965,-2.0923,-2.0926,-2.1511,-2.1222,-2.1165,-2.1432,0.0,0.0,0.0,0.0,0.0,0.0,0.0,0.0,0.0,0.0,0.0,0.0,0.0,0.0,0.0,0.0,0.0,0.0,0.0,0.0,0.0,1.2923,1.233,1.2302,1.3155,1.0708,0.9214,0.8729,0.8948,0.9209,0.9528,1.0564,1.0614,0.9897,1.0212,1.0013,0.9127,0.436,0.3091,0.368,-0.3597,-0.8837,-1.2162,-1.188,0.0,0.0,0.0,0.0,0.0,0.0,0.0,0.0,0.0,0.0,0.0,0.0,0.0,0.6046,0.9521,0.5047,-0.0821,-0.1644,-1.0055,-1.8689,-2.0969,-2.269,-2.3918,-2.4437,-2.3242,-2.106,0.0,0.0,-0.6634,-0.3954,0.0567,0.3261,0.1833,0.1292,0.0208,0.0,0.0,0.0,0.0,0.0,0.0,-0.5523,0.0,-0.4886,-0.4766,-0.4828,-0.4845,-0.4942,-0.4956,-0.5772,-0.7333,-0.7485,-0.8843,-1.1487,-1.1804,-1.3011,-1.4885,-1.5861,-1.689,-1.7938,-1.8641,-1.9496,-2.0434,-2.0799,-2.1282,-2.1716,-2.1026,-2.0973,-2.1201,-2.088,-2.0594,-2.0512,0.0,0.0,0.0,0.0,0.0,0.0,0.0,0.0,0.0,0.0,0.0,0.0,0.0,0.0,0.0,0.0,0.0,0.0,0.0,0.0,0.0,0.0,0.0,0.0,0.0,0.0,0.0,0.0,0.0,0.7534,0.8214,0.6828,0.5953,0.5514,0.5606,0.4235,0.1798,0.0562,-0.1894,-0.5197,0.0,-0.9971,-1.2199,0.0,0.0,0.0,0.0,0.0,0.0,0.0,0.0,0.0,0.0,0.0,0.6415,0.0,0.0,1.2689,1.5664,0.8704,0.0257,-0.1056,-1.1265,-2.1614,-2.3844,-2.4661,-2.4977,-2.5019,-2.2123,-1.794,0.0,0.0,0.0,0.4019,0.6692,0.0,0.6806,0.5224,0.0,0.2166,0.0,-0.015,-0.0984,-0.1137,0.0,0.0,-0.3405,-0.4024,-0.4535,-0.4672,-0.4715,-0.4663,-0.4677,-0.5473,-0.6999,-0.8333,-0.9674,-1.1112,-1.1406,-1.2588,-1.4582,-1.5426,-1.6589,-1.7961,-1.8871,-1.9685,-2.0421,-2.0536,-2.1082,-2.1688,-2.0585,-2.0872,-2.1816,-2.0535,-2.0487,-2.1069,0.0,0.0,0.0,0.0,0.0,0.0,0.0,0.0,0.0,0.0,0.0,0.0,0.0,0.0,0.0,0.0,0.0,0.0,0.0,0.0,0.0,0.0,0.0,0.0,0.0,0.0,0.0,0.0,0.0,0.0,0.0,-0.0761,-0.1861,-0.2744,-0.288,-0.3862,-0.543,-0.5569,0.0,0.0,0.0,0.0,0.0,0.0,0.0,0.0,0.0,0.0,0.0,0.0,0.0,1.1092,1.2018,1.2508,1.3156,1.5086,0.0,1.8848,2.157,1.4473,0.5199,0.053,-1.0097,-2.0581,-2.4962,-2.5675,-2.5179,-2.4354,-2.0783,0.0,0.0,0.0,0.0,0.0,0.0,0.0,1.0336,0.8826,0.7103,0.0,0.3935,0.0,0.1701,0.1037,0.0372,0.0,-0.229,-0.3503,-0.3865,-0.4347,-0.4518,-0.4398,-0.4529,-0.5415,-0.6985,-0.8296,-0.9578,-1.0786,-1.1321,-1.25,-1.4209,-1.5359,-1.6499,-1.7633,0.0,-1.9393,-2.0029,-2.0556,-2.1194,-2.1857,-2.1339,-2.1695,-2.236,-2.1265,-2.1084,-2.1332,0.0,0.0,0.0,0.0,0.0,0.0,0.0,0.0,0.0,0.0,0.0,0.0,0.0,0.0,0.0,0.0,0.0,0.0,0.0,0.0,0.0,0.0,0.0,0.0,0.0,0.0,0.0,0.0,0.0,0.0,0.0,0.0,0.0,0.0,0.0,0.0,0.0,0.0,0.0,0.0,0.0,0.0,0.0,0.0,0.0,0.0,0.0,0.0,0.0,0.0,1.9137,1.8767,1.8407,1.8905,2.0003,2.1729,2.2996,2.4358,2.6631,2.0308,1.0964,0.2129,-0.8164,-1.7988,-2.5107,-2.5955,-2.4694,-2.2702,0.0,-1.3729,-0.6566,0.0059,0.617,1.1594,0.0,1.5322,1.2963,1.1815,1.0119,0.7285,0.6518,0.56,0.4035,0.3033,0.2114,0.1191,-0.1343,-0.2965,-0.3054,-0.3897,-0.4349,-0.4306,-0.4561,-0.5543,-0.7116,-0.7837,-0.8924,-1.0425,-1.1279,-1.2417,-1.3773,-1.5321,-1.6409,-1.7124,-1.8147,0.0,-1.9475,-2.0718,-2.1541,-2.2053,-2.2389,-2.2697,-2.2843,-2.2087,-2.1682,-2.1559,0.0,0.0,0.0,0.0,0.0,0.0,0.0,0.0,0.0,0.0,-1.3238,-1.3563,0.0,0.0,0.0,0.0,0.0,0.0,0.0,0.0,0.0,0.0,0.0,0.0,0.0,0.0,0.0,0.0,0.0,0.0,0.0,0.0,0.0,0.0,0.0,0.0,0.0,0.0,0.0,0.0,0.0,0.0,0.0,0.0,0.0,0.0,0.0,0.0,0.0,0.0,2.2508,2.3425,2.4207,2.4765,2.5447,2.7077,2.7711,2.8055,2.8851,2.1167,1.0703,0.1357,-0.9009,-1.8652,-2.5336,-2.5585,0.0,0.0,0.0,-0.9594,-0.2055,0.3695,0.0,1.4865,0.0,0.0,0.0,0.0,1.1041,0.0,0.0,0.0,0.0,0.0,0.0,0.0,0.0,-0.1357,-0.2758,-0.3331,-0.3797,-0.4306,-0.5024,-0.5943,-0.6924,-0.7772,-0.8839,-1.0119,-1.0895,-1.1778,-1.2706,-1.4712,-1.5894,-1.6574,-1.8431,0.0,-1.9512,-2.1178,-2.1899,-2.1923,-2.1359,-2.2169,-2.3292,-2.033,-2.0644,-2.2481,0.0,0.0,0.0,0.0,0.0,0.0,0.0,-1.4378,-1.349,-1.2482,-1.2295,-1.2686,-1.3668,-1.3668,-1.3563,0.0,0.0,0.0,0.0,0.0,0.0,0.0,0.0,0.0,0.0,0.0,0.0,0.0,0.0,0.0,0.0,0.0,0.0,0.0,0.0,0.0,0.0,0.0,0.0,0.0,0.0,0.0,0.0,0.0,0.0,0.0,0.0,0.0,0.0,0.0,2.4366,2.6162,2.6205,2.6945,2.7973,2.8857,2.9102,2.9199,2.956,2.501,1.6737,0.2631,-0.5047,-1.202,-2.3084,0.0,0.0,0.0,0.0,-0.6823,0.0354,0.0,0.0,0.0,0.0,0.0,0.0,0.0,0.0,0.0,0.0,0.0,0.0,0.0,0.0,0.0,0.0,0.0138,-0.1494,-0.2705,-0.3581,-0.4208,-0.4659,-0.555,-0.6859,-0.7316,-0.8425,-1.0272,-1.0991,-1.1775,-1.2677,-1.4716,-1.5971,-1.661,-1.8578,0.0,-2.0181,-2.1233,-2.1617,-2.1542,-2.1117,-2.1942,-2.3134,-2.1447,-2.1798,-2.3109,0.0,0.0,0.0,0.0,0.0,0.0,0.0,-1.431,-1.3243,-1.2031,-1.1523,-1.1835,-1.3359,-1.3423,-1.342,0.0,0.0,0.0,0.0,0.0,0.0,0.0,0.0,0.0,0.0,0.0,0.0,0.0,0.0,0.0,0.0,0.0,0.0,0.0,0.0,0.0,0.0,0.0,0.0,0.0,0.0,0.0,0.0,0.0,0.0,0.0,0.0,0.0,0.0,0.0,2.2876,2.5063,2.4426,2.6548,2.9245,2.9227,2.9374,2.9608,2.9763,2.8446,2.2579,0.4029,-0.107,-0.5477,-2.0534,-2.1766,0.0,0.0,-0.9962,-0.4759,0.1576,0.0,0.0,0.0,0.0,0.0,0.0,0.0,0.0,0.0,0.0,0.0,0.0,0.0,0.0,0.0,0.0,0.0,-0.0485,-0.2092,-0.323,-0.3895,-0.3982,-0.4954,-0.6854,-0.6859,-0.8086,-1.0485,-1.1149,-1.2012,-1.3,-1.4953,-1.6167,-1.6925,-1.8685,0.0,0.0,-2.1181,-2.1442,-2.158,-2.0933,-2.159,-2.2758,-2.194,-2.2226,-2.3095,0.0,0.0,0.0,0.0,0.0,0.0,0.0,-1.3903,-1.2822,-1.2182,-1.1509,-1.15,-1.252,-1.2641,-1.2764,0.0,0.0,0.0,0.0,0.0,0.0,0.0,0.0,0.0,0.0,0.0,0.0,0.0,0.0,0.0,0.0,0.0,0.0,0.0,0.0,0.0,0.0,0.0,0.0,0.0,0.0,0.0,0.0,0.0,0.0,0.0,0.0,0.0,0.0,0.0,0.0,1.6693,1.7115,2.3142,2.9932,2.9165,0.0,0.0,2.9974,2.8812,2.3148,0.4144,-0.0657,-0.4549,-1.9254,0.0,0.0,-1.1738,-0.7656,-0.349,0.1824,0.6354,0.0,0.0,0.0,0.0,0.0,0.0,0.0,0.0,0.0,0.0,0.0,0.0,0.0,0.0,0.0,0.0,-0.0674,-0.1573,-0.2411,-0.3268,-0.328,-0.4408,-0.6719,-0.6854,-0.8021,-1.0338,-1.1142,-1.2189,-1.3468,-1.508,-1.6337,-1.739,-1.8804,0.0,0.0,-2.1286,-2.209,-2.2787,-2.0406,-2.0802,-2.2319,-1.8815,-1.9365,-2.1867,0.0,0.0,0.0,0.0,0.0,0.0,-1.5487,-1.4171,-1.3153,-1.2828,-1.2123,-1.1868,-1.2332,-1.261,-1.2807,-1.289,0.0,0.0,0.0,0.0,0.0,0.0,0.0,0.0,0.0,0.0,0.0,0.0,0.0,0.0,0.0,0.0,0.0,0.0,0.0,0.0,0.0,0.0,0.0,0.0,0.0,0.0,0.0,0.0,0.0,0.0,0.0,0.0,0.0,0.0,0.0,0.0,1.2366,1.6383,0.0,0.0,2.5943,2.7421,2.875,2.8207,2.2857,0.447,0.0368,-0.3131,-1.8342,0.0,0.0,-1.149,-0.8267,-0.471,0.0,0.4846,0.9577,0.0,0.0,0.0,0.0,0.0,0.0,0.0,0.0,0.0,0.0,0.0,0.0,0.0,0.0,0.0,0.0067,-0.0798,-0.1776,-0.301,-0.3584,-0.4803,-0.6654,-0.7181,-0.8597,-1.0899,-1.1502,-1.2549,-1.3983,-1.5823,-1.7002,-1.7741,-1.9137,0.0,0.0,-2.0229,-2.0128,-1.9936,-1.8522,-1.9061,-2.0414,-1.8884,-1.9635,-2.1401,0.0,0.0,0.0,0.0,0.0,-1.6392,-1.572,-1.4448,-1.3532,-1.3391,-1.25,-1.2026,-1.2343,-1.2626,-1.288,-1.2958,-1.2822,0.0,0.0,0.0,0.0,0.0,0.0,0.0,0.0,0.0,0.0,0.0,0.0,0.0,0.0,0.0,0.0,0.0,0.0,0.0,0.0,0.0,0.0,0.0,0.0,0.0,0.0,0.0,0.0,0.0,0.0,0.0,0.0,0.0,0.0,0.0,0.0,0.0,0.0,0.0,2.1645,2.3628,2.4896,2.4023,1.883,0.2523,-0.1319,-0.4596,0.0,0.0,-1.4952,-1.1939,-0.9223,-0.6173,-0.2345,0.257,0.7196,0.0,0.0,1.6779,0.0,0.0,0.0,0.0,0.0,0.0,0.0,0.0,0.0,0.0,0.0,0.0,0.0673,-0.0067,-0.1132,-0.2673,-0.3772,-0.5067,-0.6588,-0.7507,-0.9105,-1.1439,-1.1829,-1.2937,-1.4647,-1.5877,-1.6826,-1.7553,-1.8511,0.0,0.0,-1.9079,-1.873,-1.8488,-1.7502,-1.7961,-1.9074,-1.8697,-1.9386,-2.0594,0.0,0.0,0.0,0.0,0.0,0.0,-1.5676,-1.4494,-1.3693,-1.3691,-1.2405,-1.1747,-1.2439,-1.2639,-1.2761,-1.2898,-1.3076,0.0,0.0,0.0,0.0,0.0,0.0,0.0,0.0,0.0,-0.7865,-0.7408,-0.6657,0.0,0.0,0.0,0.0,0.0,0.0,0.0,0.0,0.0,0.0,0.0,0.0,0.0,0.0,0.0,0.0,0.0,0.0,0.0,0.0,0.0,0.0,0.0,0.0,0.0,0.0,0.0,1.736,1.9391,1.7747,1.5186,0.9944,-0.2511,-0.6778,-1.0041,0.0,0.0,-1.5113,-1.2752,-1.0075,-0.7476,-0.5104,-0.0698,0.3768,0.7546,1.0441,0.0,0.0,0.0,0.0,0.0,0.0,0.0,0.0,0.0,0.0,0.0,0.0,0.0,0.0876,0.0607,-0.0336,-0.2079,-0.3542,-0.5001,-0.6396,-0.7772,-0.9545,-1.1712,-1.1968,-1.3301,-1.5545,-1.4904,-1.5411,0.0,0.0,0.0,0.0,-1.7936,-1.86,-1.9778,-1.793,-1.7948,-1.8849,-1.75,-1.784,-1.9202,0.0,0.0,0.0,0.0,0.0,0.0,0.0,-1.4835,-1.4286,-1.4914,-1.3984,-1.3439,-1.3904,-1.3951,-1.3957,-1.3902,-1.3997,0.0,0.0,0.0,0.0,0.0,0.0,0.0,0.0,0.0,-0.6002,-0.4846,-0.4797,-0.5349,-0.6565,-0.8469,0.0,0.0,0.0,0.0,0.0,0.0,0.0,0.0,0.0,0.0,0.0,0.0,0.0,0.0,0.0,0.0,0.0,0.0,0.0,0.0,0.0,0.0,0.0,0.0,0.0,0.0,1.2256,1.0799,0.6946,-0.3774,-0.6778,-0.9113,-1.6732,0.0,-1.4185,-1.2532,-1.0922,-0.9083,-0.6625,-0.3067,0.0588,0.3838,0.7426,0.0,0.0,0.0,0.0,0.0,0.0,0.0,0.0,0.0,0.0,0.0,0.0,0.0,0.0876,-0.0202,-0.1141,-0.1945,-0.3471,-0.4995,-0.6396,-0.7942,-0.9693,-1.1556,-1.1884,-1.3271,-1.5548,-1.5953,-1.6379,0.0,0.0,0.0,0.0,-1.7385,-1.7452,-1.7167,-1.6902,-1.7268,-1.7929,-1.7996,-1.8718,-1.9764,0.0,0.0,0.0,0.0,0.0,0.0,0.0,-1.4709,-1.4462,-1.5254,-1.4509,-1.4024,-1.4503,-1.4505,-1.439,-1.4231,-1.4676,0.0,0.0,0.0,0.0,0.0,0.0,0.0,0.0,-0.6888,-0.5169,-0.4097,-0.3511,-0.413,-0.5829,-0.7752,-0.9869,-1.2066,0.0,0.0,0.0,0.0,0.0,0.0,0.0,0.0,-1.5252,0.0,0.0,0.0,0.0,0.0,0.0,0.0,0.0,0.0,0.0,0.0,0.0,0.0,0.0,0.0,0.0,0.3968,0.0634,-0.663,-0.9199,0.0,0.0,0.0,-1.3516,-1.2863,-1.1783,-1.039,-0.8446,-0.5453,-0.235,0.0533,0.4378,0.0,0.0,0.0,0.0,0.0,0.0,0.0,0.0,0.0,0.0,0.0,0.0,0.0,0.0929,-0.0267,-0.1202,-0.1782,-0.3848,-0.5463,-0.6396,-0.819,-0.9816,-1.1301,-1.159,-1.3009,-1.5258,-1.5508,-1.5936,0.0,0.0,0.0,0.0,-1.641,-1.6427,-1.6133,-1.6474,-1.6917,-1.7474,-1.8033,-1.8694,-1.9416,0.0,0.0,0.0,0.0,0.0,0.0,0.0,-1.4316,-1.4318,-1.4852,-1.41,-1.3782,-1.4373,-1.4402,-1.427,-1.4033,0.0,0.0,0.0,0.0,0.0,0.0,0.0,0.0,-0.965,-0.6706,-0.4982,-0.4535,-0.2743,-0.3201,-0.5698,-0.7205,-0.9379,-1.2143,-1.4644,-1.6029,-1.6524,-1.8118,-1.8739,-1.8553,-1.7778,-1.6717,0.0,0.0,0.0,0.0,0.0,0.0,0.0,0.0,0.0,0.0,0.0,0.0,0.0,0.0,0.0,0.0,0.0,0.0,0.0,0.0,0.0,0.0,0.0,0.0,0.0,0.0,-1.2458,-1.1156,-1.0065,-0.7532,-0.476,-0.2071,0.1479,0.0,0.0,0.0,0.0,0.0,0.0,0.0,0.0,0.0,0.0,0.0,0.0,0.0,0.1035,0.0132,-0.0727,-0.1666,-0.4517,-0.6175,-0.6379,-0.8443,-0.9978,-1.0842,-1.1172,-1.2577,-1.4796,-1.4041,-1.45,0.0,0.0,0.0,0.0,-1.5173,-1.5566,-1.6382,-1.657,-1.6968,-1.7479,-1.7794,-1.8104,-1.8635,0.0,0.0,0.0,0.0,0.0,0.0,0.0,0.0,0.0,0.0,-1.436,-1.4208,-1.4792,-1.4828,-1.4877,0.0,0.0,0.0,0.0,0.0,0.0,0.0,0.0,0.0,-0.7782,-0.5462,-0.3586,-0.2146,-0.181,-0.2669,-0.4638,-0.753,-1.0207,-1.2631,-1.497,-1.6717,-1.7975,-1.8656,-1.9218,-1.9504,-1.8681,-1.7286,0.0,0.0,0.0,0.0,-0.6601,-0.6207,0.0,0.0,0.0,0.0,0.0,0.0,0.0,0.0,-0.5267,0.0,0.0,0.0,0.0,0.0,0.0,0.0,0.0,0.0,0.0,0.0,0.0,-1.0134,-0.8578,-0.6639,-0.4431,-0.2037,0.07,0.0,0.0,0.0,0.0,0.0,0.0,0.0,0.0,0.0,0.0,0.0,0.0,0.1262,0.1035,-0.013,-0.1026,-0.1552,-0.417,-0.5747,-0.6069,-0.7728,-0.9193,-1.0453,-1.0637,-1.1895,-1.4116,-1.3788,-1.401,0.0,0.0,0.0,-1.4286,-1.5296,-1.5785,-1.6013,-1.6638,-1.7327,-1.8009,-1.8636,-1.9399,-2.018,0.0,0.0,0.0,0.0,0.0,0.0,0.0,0.0,0.0,0.0,0.0,-1.4521,-1.4963,-1.4911,0.0,0.0,0.0,0.0,0.0,0.0,0.0,0.0,0.0,-0.8896,-0.7028,-0.4638,-0.2863,-0.1813,-0.1008,-0.1738,-0.3919,-0.6746,-0.9361,-1.1805,-1.4613,-1.6859,-1.853,-1.8217,-1.8799,-1.9778,-1.8216,0.0,0.0,0.0,0.0,0.0,-0.6654,-0.5947,0.0,-0.555,-0.6075,-0.6793,0.0,0.0,0.0,0.0,-0.6137,-0.6654,-0.658,-0.759,0.0,0.0,0.0,0.0,0.0,0.0,0.0,0.0,0.0,0.0,-0.685,0.0,0.0,-0.0991,0.1228,0.0,0.0,0.0,0.0,0.0,0.0,0.0,0.0,0.0,0.0,0.0,0.0,0.1044,0.1014,-0.0253,-0.1057,-0.1385,-0.3829,-0.5393,-0.5771,-0.7526,-0.8732,-0.9278,-1.0043,-1.1295,-1.3004,-1.326,-1.3867,0.0,0.0,0.0,-1.4446,-1.5198,-1.5713,-1.6107,-1.6862,-1.7528,-1.8184,-1.8828,-1.9412,-1.9905,0.0,0.0,0.0,0.0,0.0,0.0,0.0,0.0,0.0,0.0,0.0,0.0,0.0,0.0,0.0,0.0,0.0,0.0,0.0,0.0,0.0,0.0,0.0,-0.7567,-0.6572,-0.3855,-0.2271,-0.1878,-0.0269,-0.0804,-0.3328,-0.5639,-0.8323,-1.1188,-1.4305,-1.6763,-1.8412,-1.7517,-1.8108,-1.9452,-1.7268,0.0,0.0,0.0,0.0,0.0,0.0,0.0,0.0,-0.5947,-0.647,-0.6924,-0.6981,0.0,0.0,0.0,0.0,0.0,-0.6449,-0.6715,-0.7367,-0.7996,0.0,0.0,0.0,0.0,0.0,0.0,0.0,0.0,0.0,0.0,0.0,0.0,0.0,0.0,0.0,0.0,0.0,0.0,0.0,0.0,0.0,0.0,0.0,0.0,0.0,0.1012,0.0976,-0.0244,-0.1142,-0.1447,-0.3628,-0.5115,-0.564,-0.7566,-0.8403,-0.8111,-0.9612,-1.0866,-1.1897,-1.2674,-1.3703,-1.4915,0.0,0.0,-1.4965,-1.504,-1.555,-1.6338,-1.6914,-1.7547,-1.8197,-1.8574,-1.8805,-1.8999,0.0,0.0,0.0,0.0,0.0,0.0,0.0,0.0,0.0,0.0,0.0,0.0,0.0,0.0,0.0,0.0,0.0,0.0,0.0,0.0,0.0,-0.8071,-0.7562,-0.6641,-0.518,-0.2458,-0.0601,0.0335,0.0469,-0.0401,-0.2192,-0.5202,-0.9086,-1.3639,-1.5475,-1.6739,-1.7502,-1.7258,-1.7609,-1.8198,-1.7398,0.0,0.0,0.0,0.0,0.0,0.0,0.0,0.0,-0.6013,-0.647,-0.7055,-0.7967,0.0,0.0,0.0,0.0,0.0,-0.7037,-0.592,-0.5259,-0.6331,0.0,0.0,0.0,0.0,0.0,0.0,0.0,0.0,0.0,0.0,0.0,0.0,0.0,0.0,0.0,0.0,0.0,0.0,0.0,0.0,0.0,0.0,0.0,0.0,0.0,0.0971,0.0915,-0.0233,-0.1322,-0.2096,-0.3721,-0.5113,-0.631,-0.7351,-0.8107,-0.8619,-0.9822,-1.0874,-1.1838,-1.2423,-1.309,-1.3771,0.0,-1.4212,-1.4474,-1.5147,-1.5781,-1.6307,-1.6297,-1.7168,-1.8397,-1.795,-1.8371,-1.92,0.0,0.0,0.0,0.0,0.0,0.0,0.0,0.0,0.0,0.0,0.0,0.0,0.0,0.0,0.0,0.0,0.0,0.0,0.0,0.0,-1.0059,-0.8189,-0.6689,-0.5048,-0.3257,-0.0862,0.0863,0.1931,0.2134,0.0996,-0.1386,-0.6218,-1.0276,-1.3562,-1.4452,-1.5302,-1.6036,-1.5942,-1.6477,-1.7316,0.0,0.0,0.0,0.0,0.0,0.0,0.0,0.0,0.0,0.0,-0.7125,-0.7717,-0.8818,0.0,0.0,0.0,0.0,0.0,-0.6424,-0.4844,-0.3447,-0.2105,0.0,0.0,0.0,0.0,0.0,0.0,0.0,0.0,0.0,0.0,0.0,0.0,0.0,0.0,0.0,0.0,0.0,0.0,0.0,0.0,0.0,0.0,0.0,0.0,0.0,0.0,0.0404,-0.0687,-0.1631,-0.2396,-0.4317,-0.5762,-0.677,-0.7834,-0.8514,-0.8826,-1.0092,-1.1064,-1.1766,-1.2306,-1.2975,-1.3769,0.0,-1.4006,-1.412,-1.5242,-1.5735,-1.582,-1.6326,-1.7058,-1.7856,-1.7818,-1.8455,-1.9387,0.0,0.0,0.0,0.0,0.0,0.0,0.0,0.0,0.0,0.0,0.0,0.0,0.0,0.0,0.0,0.0,0.0,0.0,0.0,0.0,-1.0371,-0.8495,-0.6221,-0.3779,-0.126,0.0728,0.2383,0.3708,0.3924,0.2252,-0.1185,-0.6792,-1.0425,-1.2282,-1.2973,-1.3786,-1.4603,-1.473,-1.5316,-1.6253,0.0,0.0,0.0,0.0,0.0,0.0,0.0,0.0,0.0,0.0,0.0,0.0,0.0,0.0,0.0,-0.9901,-0.9576,-0.8656,-0.5886,-0.3972,-0.1852,0.0,0.0,0.0,0.1509,0.0,0.0,0.0,0.0,0.0,0.0,0.0,0.0,0.0,0.0,0.0,0.0,0.0,0.0,0.0,0.0,0.0,0.0,0.0,0.0,0.0,0.0,0.0,0.0058,-0.1014,-0.1943,-0.2756,-0.4811,-0.6289,-0.7108,-0.8395,-0.9134,-0.9348,-1.0507,-1.1339,-1.1864,-1.2508,-1.3216,-1.4019,-1.4051,-1.4035,-1.4084,-1.5164,-1.5459,-1.5312,-1.6244,-1.6969,-1.7524,-1.8073,-1.8775,-1.9456,0.0,0.0,0.0,0.0,0.0,0.0,0.0,0.0,0.0,0.0,0.0,0.0,0.0,0.0,0.0,0.0,0.0,0.0,0.0,0.0,-0.9931,-0.7608,-0.6229,-0.3561,0.0721,0.2311,0.404,0.6021,0.5321,0.2654,-0.1924,-0.5806,-0.8479,-1.0089,-1.1611,-1.2689,-1.3485,-1.4269,-1.4649,-1.4816,-1.5903,0.0,0.0,0.0,0.0,0.0,0.0,0.0,0.0,0.0,0.0,0.0,0.0,0.0,-1.1115,-1.08,-0.9697,-0.813,-0.6086,-0.3445,-0.0398,0.3173,0.0,0.0,0.4635,0.0,0.0,0.0,0.0,0.0,0.0,0.0,0.0,0.0,0.0,0.0,0.0,0.0,0.0,0.0,0.0,0.0,0.0,0.0,0.0,0.0,0.0,0.0,0.0054,-0.1044,-0.2193,-0.35,-0.4811,-0.612,-0.7362,-0.8626,-0.9736,-1.0587,-1.1223,-1.1844,-1.2365,-1.3229,-1.3735,-1.4025,-1.421,-1.4394,-1.4542,-1.4645,-1.4838,-1.5054,-1.56,-1.6676,-1.8042,-1.8838,-1.9209,-1.9335,0.0,0.0,0.0,0.0,0.0,0.0,0.0,0.0,0.0,0.0,0.0,0.0,0.0,0.0,0.0,0.0,0.0,0.0,0.0,-1.2317,-1.1553,-0.9699,-0.8138,-0.5439,-0.1418,0.1115,0.3179,0.4844,0.2909,0.0595,-0.2125,-0.5442,-0.7345,-0.7961,-0.9383,-1.0383,-1.0988,-1.188,-1.283,-1.397,-1.5299,-1.6122,0.0,0.0,0.0,0.0,0.0,0.0,0.0,0.0,-0.9806,-1.0192,0.0,0.0,-1.0905,0.0,-0.9209,-0.7187,-0.4347,-0.158,0.1386,0.4763,0.0,0.0,0.0,0.0,0.0,0.0,0.0,0.0,0.0,0.0,0.0,0.0,0.0,0.0,0.0,0.0,0.0,0.0,0.0,0.0,0.0,0.0,0.0,0.0,0.0,0.0,-0.0426,-0.1544,-0.2654,-0.3749,-0.5724,-0.7176,-0.7889,-0.9945,-1.1284,-1.1952,-1.1965,-1.2226,-1.2708,-1.293,-1.325,-1.3734,-1.4703,-1.4641,-1.3976,-1.5644,-1.5697,-1.4792,-1.5766,-1.6895,-1.8039,-1.8328,-1.8794,-1.9311,0.0,0.0,0.0,0.0,0.0,0.0,0.0,0.0,0.0,0.0,0.0,0.0,0.0,0.0,0.0,0.0,0.0,0.0,-1.2773,-1.2921,-1.2469,-1.1265,-0.9963,-0.7608,-0.4049,-0.2016,0.0459,0.3429,0.1056,-0.053,-0.1395,-0.4217,-0.5508,-0.5515,-0.7137,-0.8079,-0.8609,-1.0086,-1.1595,-1.3021,-1.4678,-1.5867,0.0,0.0,0.0,0.0,0.0,0.0,0.0,0.0,0.0,0.0,0.0,0.0,0.0,0.0,0.0,-0.6002,-0.2701,0.0066,0.0,0.0,0.0,0.0,0.0,0.0,0.0,0.0,0.0,0.0,0.0,0.0,0.0,0.0,0.0,0.0,0.0,0.0,0.0,0.0,0.0,0.0,0.0,0.0,0.0,0.0,0.0,0.0,0.0,-0.1902,-0.2962,-0.394,-0.6024,-0.7368,-0.7804,-1.0431,-1.1985,-1.2502,-1.2532,-1.2913,-1.3626,-1.3064,-1.3293,-1.4092,-1.4673,-1.4599,-1.4152,-1.567,-1.586,-1.5322,-1.621,-1.7327,-1.8444,-1.8471,-1.8864,-1.9353,0.0,0.0,0.0,0.0,0.0,0.0,0.0,0.0,0.0,0.0,0.0,0.0,0.0,0.0,0.0,0.0,0.0,0.0,-1.2305,-1.2343,-1.212,-1.1751,-1.1286,-0.9725,-0.6921,-0.7058,-0.4145,0.2012,0.0462,-0.0133,0.0266,-0.1851,-0.271,-0.2567,-0.4906,-0.6044,-0.6485,-0.9333,-1.1022,-1.1881,-1.4024,-1.5338,-1.6061,0.0,0.0,0.0,0.0,0.0,0.0,0.0,0.0,0.0,0.0,0.0,0.0,-0.8084,-0.6408,-0.4572,-0.1325,0.1126,0.0,0.0,0.0,0.0,0.0,0.0,0.0,0.0,0.0,0.0,0.0,0.0,0.0,0.0,0.0,0.0,0.0,0.0,0.0,0.0,0.0,0.0,0.0,0.0,0.0,0.0,0.0,0.0,0.0,-0.1986,-0.3012,-0.4085,-0.546,-0.6486,-0.7001,-0.9722,-1.1432,-1.2115,-1.2893,-1.396,-1.5157,-1.3874,-1.4014,-1.5199,-1.4023,-1.4223,-1.5308,-1.4317,-1.5053,-1.6796,-1.6859,-1.7918,-1.939,-1.9471,-1.9495,-1.9499,0.0,0.0,0.0,0.0,0.0,0.0,0.0,0.0,0.0,0.0,0.0,0.0,0.0,0.0,0.0,0.0,0.0,0.0,-1.3263,-1.3772,-1.395,-1.3738,-1.3548,-1.2683,-1.1085,-1.018,-0.7372,-0.2563,-0.2235,-0.1651,-0.0801,-0.0412,-0.0487,-0.0906,-0.2215,-0.3574,-0.5145,-0.6386,-0.8398,-1.0916,-1.1974,-1.3681,-1.5665,0.0,0.0,0.0,0.0,0.0,0.0,0.0,0.0,0.0,0.0,0.0,0.0,-0.7338,-0.4742,-0.1986,0.1258,0.0,0.0,0.0,0.0,0.0,0.0,0.0,0.0,0.0,0.0,0.0,0.0,0.0,0.0,0.0,0.0,0.0,0.0,0.0,0.0,0.0,0.0,0.0,0.0,0.0,0.0,0.0,0.0,0.0,0.0,-0.1993,-0.325,-0.3994,-0.597,-0.7135,-0.7275,-1.0239,-1.171,-1.1696,-1.2732,-1.3636,-1.4317,-1.3076,-1.2825,-1.342,-1.4795,-1.4905,-1.4142,-1.428,-1.5031,-1.6158,-1.6799,-1.7727,-1.8769,-1.9354,-1.9599,-1.965,0.0,0.0,0.0,0.0,0.0,0.0,0.0,0.0,0.0,0.0,-1.2594,0.0,0.0,0.0,0.0,0.0,0.0,0.0,0.0,-1.4268,-1.4746,-1.4782,-1.4886,-1.4504,-1.3598,-1.2473,-1.0224,-0.6747,-0.495,-0.2978,-0.095,0.028,0.0842,0.0688,-0.0705,-0.212,-0.3704,-0.5093,-0.7321,-1.0047,-1.0824,-1.273,-1.5162,0.0,0.0,0.0,0.0,0.0,0.0,0.0,0.0,0.0,0.0,0.0,0.0,-0.5948,-0.2888,0.0264,0.3374,0.0,0.0,0.0,0.0,0.0,0.0,0.0,0.0,0.0,0.0,0.0,0.0,0.0,0.0,0.0,0.0,0.0,0.0,0.0,0.0,0.0,0.0,0.0,0.0,0.0,0.0,0.0,0.0,0.0,0.0,-0.2234,-0.3594,-0.4649,-0.6168,-0.7274,-0.7921,-1.035,-1.1745,-1.21,-1.2738,-1.3384,-1.4011,-1.291,-1.2814,-1.3536,-1.5093,-1.5038,-1.3938,-1.4733,-1.541,-1.598,-1.6555,-1.7483,-1.8533,-1.9025,-1.9456,-1.9774,0.0,0.0,0.0,0.0,0.0,0.0,0.0,0.0,0.0,0.0,-1.1689,-1.1546,0.0,0.0,0.0,0.0,0.0,0.0,0.0,0.0,-1.4901,-1.523,-1.5487,-1.5373,-1.481,-1.4048,-1.2526,-1.0118,-0.732,-0.4074,-0.0625,0.05,0.1339,0.1947,0.0069,-0.1391,-0.2451,-0.487,-0.7017,-0.9005,-1.0131,-1.2071,-1.4268,-1.4673,0.0,0.0,0.0,0.0,0.0,0.0,0.0,0.0,0.0,0.0,-0.8052,-0.459,-0.1247,0.2043,0.0,0.0,0.0,0.0,0.0,0.0,0.0,0.0,0.0,0.0,0.0,0.0,0.0,0.0,0.0,0.0,0.0,0.0,0.0,0.0,0.0,0.0,0.0,0.0,0.0,0.0,0.0,0.0,0.0,0.0,0.0,-0.2724,-0.4025,-0.5676,-0.6225,-0.7223,-0.8738,-1.0161,-1.1558,-1.2834,-1.2781,-1.3194,-1.3953,-1.3161,-1.3568,-1.4885,-1.4968,-1.4777,-1.446,-1.5421,-1.588,-1.5998,-1.6212,-1.7198,-1.8529,-1.8588,-1.9168,-1.9928,0.0,0.0,0.0,0.0,0.0,0.0,0.0,0.0,0.0,0.0,0.0,0.0,0.0,0.0,0.0,0.0,0.0,0.0,0.0,0.0,-1.5669,-1.6046,-1.5588,-1.5359,-1.5584,-1.447,-1.2825,-1.0578,-0.742,-0.4461,-0.1666,0.1165,0.2103,0.1344,0.1417,0.0,-0.2311,-0.3018,-0.4848,-0.7282,-0.8294,-0.984,-1.1729,-1.3208,-1.4238,0.0,0.0,0.0,0.0,0.0,0.0,0.0,-1.4495,-1.1985,-0.8859,-0.5907,-0.1858,0.0,0.0,0.0,0.0,0.0,0.0,0.0,0.0,0.0,0.0,0.0,0.0,0.0,0.0,0.0,0.0,0.0,0.0,0.0,0.0,0.0,0.0,0.0,0.0,0.0,0.0,0.0,0.0,0.0,0.0,0.0,-0.1778,-0.3508,-0.4903,-0.5892,-0.7348,-0.8393,-0.8997,-1.0277,-1.1168,0.0,-1.2215,-1.2728,-1.3135,-1.2847,-1.3459,-1.4722,-1.4379,-1.4588,-1.5157,-1.5018,-1.5008,-1.517,-1.5911,-1.6875,-1.789,-1.8517,-1.9307,-2.006,0.0,0.0,0.0,0.0,0.0,0.0,0.0,0.0,0.0,0.0,0.0,0.0,0.0,0.0,0.0,0.0,0.0,0.0,0.0,0.0,-1.6022,-1.6587,-1.5894,-1.5566,-1.5833,-1.4434,-1.2676,-1.0439,-0.7633,-0.4909,-0.2161,0.0556,0.1575,0.1097,0.108,-0.0206,-0.2426,-0.282,-0.4522,-0.6885,-0.7635,-0.9049,-1.0832,-1.2063,-1.317,-1.431,-1.5549,0.0,0.0,0.0,0.0,0.0,0.0,0.0,-1.0108,-0.7466,0.0,0.0,0.0,0.0,0.0,0.0,0.0,0.0,0.0,0.0,0.0,0.0,0.0,0.0,0.0,0.0,0.0,0.0,0.0,0.0,0.0,0.0,0.0,0.0,0.0,0.0,0.0,0.0,0.0,0.0,0.0,-0.0703,-0.2066,-0.4429,-0.6208,-0.7198,-0.8912,-1.0161,-1.0899,-1.138,-1.1953,-1.2588,-1.2629,-1.2842,-1.3227,-1.3159,-1.3312,-1.3658,-1.3853,-1.4239,-1.4715,-1.4646,-1.4656,-1.4812,-1.5357,-1.6155,-1.7024,-1.746,-1.8401,-1.9477,0.0,0.0,0.0,0.0,0.0,0.0,0.0,0.0,0.0,0.0,0.0,0.0,0.0,0.0,0.0,0.0,0.0,0.0,0.0,0.0,0.0,-1.6473,-1.5833,-1.5401,-1.5401,-1.389,-1.2031,-0.9911,-0.7508,-0.499,-0.2323,-0.0429,0.0699,0.0973,0.0406,-0.083,-0.2546,-0.3112,-0.4604,-0.6649,-0.722,-0.85,-1.003,-1.0987,-1.2084,-1.3341,-1.4673,-1.5498,-1.6151,-1.6696,0.0,0.0,0.0,0.0,-1.1682,-0.9225,0.0,0.0,0.0,0.0,0.0,0.0,0.0,0.0,0.0,0.0,0.0,0.0,0.0,0.0,0.0,0.0,0.0,0.0,0.0,0.0,0.0,0.0,0.0,0.0,0.0,0.0,0.0,0.0,0.0,0.0,0.0,-0.1041,-0.2493,-0.5353,-0.7559,-0.8846,-1.0517,-1.1932,-1.3016,-1.2802,-1.3075,-1.3864,-1.3303,-1.3177,-1.343,-1.3553,-1.3261,-1.2739,-1.3564,-1.393,-1.4009,-1.4368,-1.4567,-1.4687,-1.4832,-1.5476,-1.6295,-1.6461,-1.7401,-1.8648,0.0,0.0,0.0,0.0,0.0,0.0,0.0,0.0,0.0,0.0,0.0,0.0,0.0,0.0,0.0,0.0,0.0,0.0,0.0,0.0,0.0,-1.4887,-1.4178,-1.3825,-1.3825,-1.2211,-1.064,-0.912,-0.6257,-0.3964,0.0,0.0,0.0553,0.0608,0.0875,-0.0346,-0.2471,-0.2485,-0.3619,-0.5439,-0.6241,-0.6726,-0.7224,-0.9725,-1.0773,-1.1116,-1.2714,-1.346,-1.3738,-1.3767,-1.4131,0.0,0.0,0.0,-1.3713,0.0,0.0,0.0,0.0,0.0,0.0,0.0,0.0,0.0,0.0,0.0,0.0,0.0,0.0,0.0,0.0,0.0,0.0,0.0,0.0,0.0,0.0,0.0,0.0,0.0,0.0,0.0,0.0,0.0,0.0,0.0,0.2071,-0.05,-0.3051,-0.5961,-0.8322,-0.9939,-1.1661,-1.2862,-1.3494,-1.3762,-1.37,-1.3396,-1.3527,-1.3292,-1.2742,-1.3348,-1.3557,-1.3467,-1.3759,-1.3903,-1.393,-1.4344,-1.4511,-1.4556,-1.4794,-1.544,-1.6317,-1.7138,-1.7572,-1.7979,0.0,0.0,0.0,0.0,0.0,0.0,0.0,0.0,0.0,0.0,0.0,0.0,0.0,0.0,0.0,0.0,0.0,0.0,0.0,0.0,0.0,-1.4887,-1.3988,-1.3543,-1.3718,-1.2446,-1.087,-0.8974,-0.6486,0.0,0.0,0.0432,0.1127,0.0,0.0,0.0137,-0.1492,-0.1688,-0.2785,-0.4496,-0.5372,-0.5972,-0.6611,-0.8394,-0.9507,-1.0282,-1.1106,-1.2072,-1.287,-1.2998,-1.3486,-1.4098,-1.4378,0.0,0.0,0.0,0.0,0.0,0.0,0.0,0.0,0.0,0.0,0.0,0.0,0.0,0.0,0.0,0.0,0.0,0.0,0.0,0.0,0.0,0.0,0.0,0.0,0.0,0.0,0.0,0.0,0.0,0.0,0.0,0.0,0.0,0.152,-0.1874,-0.4354,-0.8455,-1.1271,-1.2468,-1.4148,-1.5026,-1.4993,-1.4964,-1.4554,-1.3754,-1.3949,-1.3789,-1.3341,-1.3619,-1.3489,-1.3033,-1.3619,-1.3888,-1.3933,-1.4293,-1.4469,-1.4512,-1.4747,-1.5111,-1.5586,-1.5988,-1.6451,-1.7047,0.0,0.0,0.0,0.0,0.0,0.0,0.0,0.0,0.0,0.0,0.0,0.0,0.0,0.0,0.0,0.0,0.0,0.0,0.0,0.0,0.0,0.0,0.0,-1.3425,-1.3806,-1.2628,-1.1236,-0.9637,0.0,0.0,-0.1222,0.1011,0.1783,0.0,0.1492,0.0752,0.0,0.0,0.0,-0.3591,-0.4512,-0.5212,-0.5859,-0.7091,-0.8278,-0.9346,-0.9738,-1.0693,-1.1783,-1.1976,-1.2563,-1.3355,-1.3761,-1.5159,0.0,0.0,0.0,0.0,0.0,0.0,0.0,0.0,0.0,0.0,0.0,0.0,0.0,0.0,0.0,0.0,0.0,0.0,0.0,0.0,0.0,0.0,0.0,0.0,0.0,0.0,0.0,0.0,0.0,0.0,0.0,0.0,0.3069,-0.0216,-0.2321,-0.8067,-1.1663,-1.2463,-1.5204,-1.6551,-1.6378,-1.5679,-1.4935,-1.4154,-1.4203,-1.4132,-1.3945,-1.392,-1.3517,-1.2927,-1.3593,-1.393,-1.4002,-1.4301,-1.4451,-1.4526,-1.4718,-1.485,-1.4984,-1.5239,-1.5605,-1.6124,0.0,0.0,0.0,0.0,0.0,0.0,0.0,0.0,0.0,0.0,0.0,0.0,-0.9572,-0.9534,-0.9668,-1.0102,-1.0185,-1.081,-1.2278,-1.2372,-1.2452,-1.2472,0.0,0.0,-1.3695,-1.207,-1.123,0.0,0.0,0.0,-0.2727,0.072,0.2259,0.2158,0.2482,0.1656,-0.0072,0.0,0.0,0.0,-0.3494,-0.392,-0.4097,0.0,0.0,0.0,0.0,0.0,-0.9649,-0.9649,-1.0518,-1.1685,-1.2003,-1.448,-1.7203,0.0,0.0,0.0,0.0,0.0,0.0,0.0,0.0,0.0,0.0,0.0,0.0,0.0,0.0,0.0,0.0,0.0,0.0,0.0,0.0,0.0,0.0,0.0,0.0,0.0,0.0,0.0,0.0,0.0,0.0,0.0,0.8584,0.7618,0.5794,-0.1975,-0.6747,-0.7551,-1.3208,-1.652,-1.7138,-1.5414,-1.4467,-1.4291,-1.4091,-1.4046,-1.4096,-1.3945,-1.3917,-1.3924,-1.3902,-1.4019,-1.4206,-1.4399,-1.4492,-1.4523,-1.4718,-1.4804,-1.4926,-1.5869,-1.5746,-1.5323,0.0,0.0,0.0,0.0,0.0,0.0,0.0,0.0,0.0,0.0,0.0,0.0,0.0,-0.896,-0.9335,-1.0079,-1.0887,-1.1592,-1.2291,-1.2305,-1.2385,-1.2579,-1.3187,-1.3554,-1.3837,-1.3762,0.0,0.0,0.0,-0.6027,-0.3368,-0.0434,0.1575,0.2826,0.3259,0.2548,0.1039,0.1419,0.0,0.0,-0.1207,-0.1758,-0.2339,0.0,0.0,0.0,0.0,0.0,0.0,0.0,0.0,-1.1578,-1.1888,-1.4215,-1.7022,-1.7768,0.0,0.0,0.0,0.0,0.0,0.0,0.0,0.0,0.0,0.0,0.0,0.0,0.0,0.0,0.0,0.0,0.0,0.0,0.0,0.0,0.0,0.0,0.0,0.0,0.0,0.0,0.0,0.0,0.0,0.0,0.0,0.7195,0.5561,0.0014,-0.4912,-0.8865,-1.1582,-1.427,-1.6984,-1.5306,-1.4386,-1.4304,-1.37,-1.3648,-1.4074,-1.3521,-1.3604,-1.4196,-1.4127,-1.4127,-1.4232,-1.4429,-1.4549,-1.4637,-1.4756,-1.4841,-1.4976,-1.5334,-1.5282,-1.5175,0.0,0.0,0.0,0.0,0.0,0.0,0.0,0.0,0.0,-0.7464,0.0,0.0,0.0,0.0,-0.8595,-0.9644,-1.1131,-1.2077,-1.2157,-1.2224,-1.2392,-1.2585,-1.3601,-1.4178,-1.4456,-1.5103,-1.4762,0.0,0.0,0.0,0.0,-0.2119,0.0073,0.174,0.2873,0.2814,0.0,0.0,0.0,0.1104,0.0354,-0.0352,-0.1102,0.0,0.0,0.0,0.0,0.0,0.0,0.0,0.0,0.0,0.0,0.0,0.0,0.0,0.0,0.0,0.0,0.0,0.0,0.0,0.0,0.0,0.0,0.0,0.0,0.0,0.0,0.0,0.0,0.0,0.0,0.0,0.0,0.0,0.0,0.0,0.0,0.0,0.0,0.0,0.0,0.0,0.0,0.0,0.0,0.0,0.9011,0.409,-0.205,-0.9436,-1.0723,-1.2202,-1.4062,-1.1599,-1.0989,-1.2269,-1.1457,-1.2185,-1.4268,-1.3431,-1.3424,-1.4048,-1.427,-1.4386,-1.4444,-1.4504,-1.4632,-1.4776,-1.4794,-1.4877,-1.4971,-1.4992,-1.5015,-1.5133,0.0,0.0,0.0,0.0,0.0,0.0,0.0,0.0,-0.577,-0.7173,0.0,0.0,0.0,0.0,0.0,-0.868,-1.0728,-1.2003,-1.2003,-1.2157,-1.2305,-1.2305,-1.3493,-1.4561,-1.5495,-1.5786,-1.5794,0.0,0.0,0.0,0.0,0.0,-0.221,-0.1089,0.1116,0.2346,0.2804,0.0,0.2486,0.2087,0.0,0.0481,-0.0336,0.0,0.0,0.0,-0.4089,-0.503,0.0,-0.7123,0.0,0.0,0.0,0.0,0.0,0.0,0.0,0.0,0.0,0.0,0.0,0.0,0.0,0.0,0.0,0.0,0.0,0.0,0.0,0.0,0.0,0.0,0.0,0.0,0.0,0.0,0.0,0.0,0.0,0.0,0.0,0.0,0.0,0.0,0.0,0.0,1.8065,1.7906,1.6834,1.0512,0.2171,-0.8213,-1.0291,-1.0294,-0.8366,-0.4329,-0.4249,-0.8109,-0.7353,-0.9635,-1.4478,-1.3736,-1.3448,-1.3576,-1.4345,-1.4757,-1.4895,-1.4695,-1.4707,-1.4895,-1.4822,-1.4841,-1.4919,-1.4984,-1.5049,-1.5112,0.0,0.0,0.0,0.0,0.0,0.0,-0.7302,-0.5449,-0.4373,0.0,0.0,0.0,-0.5631,-0.6743,-0.7858,-0.8835,-1.0157,-1.1242,-1.1929,-1.2157,-1.2592,-1.3171,-1.4599,-1.5622,-1.6164,-1.7339,-1.7348,0.0,-1.4328,-1.1896,-0.8867,-0.6818,0.0,0.0,-0.1397,-0.0363,0.0502,0.2908,0.0,0.0,0.3479,0.3195,0.0,0.0,0.0,0.0,0.0,-0.4179,-0.5579,0.0,-0.7841,-0.9962,0.0,0.0,0.0,0.0,0.0,0.0,-1.7311,0.0,0.0,0.0,0.0,0.0,0.0,0.0,0.0,0.0,0.0,0.0,0.0,0.0,0.0,0.0,0.0,0.0,0.0,0.0,0.0,0.0,0.0,0.0,0.0,0.0,0.0,0.0,1.9158,1.8388,1.8158,1.1403,0.5892,0.2255,-0.2307,-0.4755,-0.4886,-0.3115,-0.2708,-0.3704,-0.5928,-0.8046,-1.0071,-1.2367,-1.3724,-1.4274,-1.397,-1.4268,-1.496,-1.4757,-1.4794,-1.4947,-1.4859,-1.4859,-1.4971,-1.4992,-1.5033,-1.5101,0.0,0.0,0.0,0.0,0.0,-0.7544,-0.6472,-0.4603,-0.3377,0.0,0.0,0.0,-0.4859,-0.6472,-0.7833,-0.8721,-0.9766,-1.0801,-1.1781,-1.2077,-1.2445,-1.2952,-1.4826,-1.5943,-1.6179,-1.7997,-1.8168,-1.6633,-1.5399,-1.3379,-1.0633,-0.8584,-0.6675,0.0,0.0,0.0,0.0,0.0,0.0,0.0,0.433,0.0,0.0,0.1886,0.0943,0.0,0.0,0.0,-0.4406,-0.5008,-0.7369,0.0,0.0,0.0,0.0,0.0,0.0,0.0,0.0,0.0,0.0,0.0,0.0,0.0,-0.5286,-0.0663,0.3951,0.0,0.0,0.0,0.0,0.0,0.0,0.0,0.0,0.0,0.0,0.0,0.0,0.0,0.0,0.0,0.0,2.3511,2.2939,2.2051,2.0618,1.9367,1.841,1.1992,0.8085,0.7554,0.35,0.1239,0.1091,0.2652,0.2626,0.0978,-0.2701,-0.5834,-0.8474,-1.1864,-1.3659,-1.4137,-1.4036,-1.4128,-1.439,-1.4588,-1.4794,-1.4987,-1.485,-1.4859,-1.4963,-1.4992,-1.5047,-1.5114,0.0,0.0,0.0,-1.0948,-0.8611,-0.6874,-0.5578,-0.3692,-0.2615,0.0,-0.3632,-0.4006,-0.4638,-0.6328,-0.7643,-0.8434,-0.9489,-1.0513,-1.1632,-1.1855,-1.215,-1.2445,-1.4569,-1.5755,-1.5823,-1.8064,-1.8488,-1.7058,-1.6135,-1.4569,-1.2338,-0.9841,-0.8116,-0.7141,0.0,0.0,0.0,0.0,0.0,0.3063,0.439,0.4455,0.0,0.0,0.249,0.0,0.0827,-0.0735,-0.2977,-0.3946,-0.7017,0.0,0.0,0.0,0.0,0.0,-1.681,0.0,0.0,0.0,0.0,0.0,0.0,0.0,-0.8708,-0.519,-0.142,0.1728,0.0,0.0,0.0,0.0,0.0,0.0,0.0,0.0,0.0,0.0,0.0,0.0,0.0,0.0,2.6004,2.6267,2.5457,2.3138,2.2179,2.0728,1.852,1.327,1.0264,1.0105,0.8263,0.7604,0.8308,1.048,0.9421,0.5195,0.1054,-0.3598,-0.8662,-1.2007,-1.3554,-1.3597,-1.426,-1.4176,-1.3634,-1.4208,-1.4654,-1.4976,-1.4841,-1.4841,-1.4928,-1.5,-1.5068,-1.5143,0.0,0.0,-1.3612,-1.1282,-0.9022,-0.6826,-0.4426,-0.2655,-0.1367,-0.1029,-0.2601,-0.3878,-0.4017,-0.5535,-0.7088,-0.8566,-0.8978,-0.9906,-1.1558,-1.1855,-1.2372,-1.3244,-1.4572,-1.5617,-1.6275,-1.7644,-1.8035,-1.7397,-1.5988,-1.4572,-1.3128,-1.1372,-0.9739,-0.8309,0.0,0.0,0.0,0.0,0.0,0.2397,0.5263,0.0,0.4455,0.4405,0.3469,0.2085,0.1398,-0.0232,-0.2513,-0.5177,-0.7559,-0.9598,0.0,0.0,0.0,0.0,0.0,0.0,0.0,0.0,0.0,0.0,0.0,0.0,-1.0997,-0.8146,-0.4912,0.0,0.0,0.0,0.0,0.0,0.0,0.0,0.0,0.0,0.0,0.0,0.0,0.0,0.0,0.0,2.6326,2.6456,2.5781,2.4139,2.2854,2.1941,2.1468,1.9226,1.7484,1.6455,1.5213,1.4176,1.3385,1.3229,1.0814,0.6174,0.1278,-0.3574,-0.8338,-1.2488,-1.4254,-1.4035,-1.3666,-1.3764,-1.4191,-1.3622,-1.3957,-1.4839,-1.4747,-1.4832,-1.4984,-1.5061,-1.5163,-1.5255,0.0,0.0,-1.3432,-1.1254,-0.9151,-0.6881,-0.4395,-0.2495,-0.1216,-0.0881,-0.255,-0.3836,-0.3802,-0.5314,-0.6949,-0.8551,-0.8775,-0.9679,-1.1558,-1.1781,-1.215,-1.2879,-1.4,-1.5001,-1.5806,-1.6928,-1.7539,-1.7495,-1.5953,-1.4804,-1.3932,-1.1833,0.0,0.0,0.0,0.0,0.0,0.0,0.1839,0.2404,0.5211,0.0,0.5295,0.5266,0.4297,0.2888,0.2161,0.0076,-0.2653,-0.521,-0.7265,0.0,0.0,-1.0931,-1.1894,0.0,-1.2887,-1.2839,0.0,0.0,0.0,-1.1982,0.0,0.0,0.0,-0.9809,-0.7756,-0.5854,0.0,0.0,0.0,0.0,0.0,0.0,0.0,0.0,0.0,0.0,0.0,0.0,0.0,0.0,2.6386,2.6546,2.5959,2.4378,2.3212,2.2481,2.2209,2.1242,2.0246,1.9274,1.7985,1.6908,1.6062,1.4126,1.1544,0.8316,0.1465,-0.3271,-0.6202,-1.1709,-1.3993,-1.3651,-1.34,-1.3538,-1.388,-1.3507,-1.3786,-1.4475,-1.4629,-1.4776,-1.4928,-1.5049,-1.5185,-1.5295,0.0,0.0,0.0,-1.1215,-0.9137,-0.6881,-0.4624,-0.2572,-0.1301,-0.1294,-0.265,-0.3519,-0.3519,-0.5007,0.0,-0.8045,-0.8426,-0.9345,-1.1249,-1.155,-1.1771,-1.2145,-1.3319,-1.4201,-1.4796,-1.6112,-1.6902,-1.7162,-1.5926,-1.5041,-1.4522,-1.2121,0.0,0.0,0.0,0.0,0.0,0.0,0.0,0.2827,0.0,0.5813,0.567,0.58,0.4873,0.3302,0.2401,0.0144,-0.2768,-0.4551,0.0,-0.7879,-0.8562,-0.9471,0.0,0.0,0.0,0.0,0.0,0.0,0.0,0.0,0.0,-1.0292,0.0,0.0,0.0,0.0,0.0,0.0,0.0,0.0,0.0,0.0,0.0,0.0,0.0,0.0,0.0,0.0,0.0,0.0,0.0,2.6426,2.5895,2.453,2.3729,2.3027,2.2442,2.1913,2.1233,2.0359,1.9014,1.8121,1.7693,1.4599,1.1874,0.9452,0.1769,-0.2967,-0.5125,-1.0722,-1.3125,-1.2905,-1.3093,-1.321,-1.3276,-1.3441,-1.3706,-1.4051,-1.446,-1.4699,-1.4839,-1.5049,-1.5196,-1.5303,-1.5794,-1.4741,0.0,0.0,-0.9155,-0.678,-0.4076,-0.2298,-0.1293,-0.1266,-0.2088,-0.2667,0.0,0.0,0.0,0.0,0.0,0.0,-1.0092,0.0,-1.1488,-1.1703,-1.2912,-1.3454,-1.323,-1.498,-1.5945,-1.5972,-1.5822,-1.5371,-1.4522,-1.2742,0.0,0.0,-0.5878,0.0,0.0,0.0,0.3188,0.0,0.5591,0.5684,0.0,0.5504,0.4779,0.3141,0.1354,-0.0415,-0.2087,0.0,-0.4266,-0.5502,0.0,-0.7671,-0.8447,0.0,0.0,0.0,0.0,0.0,0.0,0.0,-0.8922,0.0,0.0,0.0,-1.0947,-1.0143,0.0,0.0,0.0,0.0,0.0,0.0,0.0,0.0,0.0,0.0,0.0,0.0,0.0,0.0,0.0,2.5863,2.5537,2.5288,2.4909,2.4325,2.356,2.3072,2.2058,2.045,1.9824,1.9366,1.9072,1.5894,1.1795,0.6787,0.2364,-0.2894,-0.8732,-1.0514,-1.1655,-1.2218,-1.2291,-1.2491,-1.2791,-1.3039,-1.3344,-1.3706,-1.4172,-1.4534,-1.4831,-1.5094,-1.5245,-1.53,-1.5433,-1.4741,0.0,0.0,-0.9563,-0.7558,-0.4456,-0.2501,-0.1271,-0.1338,-0.1998,0.0,0.0,0.0,0.0,0.0,0.0,-0.8155,0.0,0.0,-1.093,-1.182,-1.2378,-1.2816,-1.3258,-1.4458,-1.5321,-1.5833,-1.5833,-1.5292,-1.4369,-1.2972,0.0,0.0,-0.5914,0.0,-0.083,0.0,0.0,0.0,0.0,0.0,0.0,0.5615,0.4662,0.2839,0.1348,-0.0131,-0.1472,0.0,-0.3268,0.0,0.0,0.0,0.0,0.0,0.0,0.0,0.0,0.0,0.0,0.0,0.0,0.0,-0.9311,0.0,-1.0677,0.0,0.0,0.0,0.0,0.0,0.0,0.0,0.0,0.0,0.0,0.0,0.0,0.0,0.0,0.0,0.0,0.0,0.0,0.0,2.4999,2.4581,2.4234,2.3258,2.2126,2.0843,2.0084,1.9399,1.8788,1.5655,1.2361,0.8893,0.3503,-0.1252,-0.5391,-0.8097,-0.9781,-1.0597,-1.0911,-1.1502,-1.2258,-1.2473,-1.304,-1.3748,-1.4049,-1.4407,-1.4779,-1.5094,-1.5231,-1.5303,-1.4504,0.0,0.0,0.0,0.0,0.0,0.0,0.0,0.0,0.0,0.0,0.0,-0.2173,-0.3431,0.0,0.0,-0.622,-0.7495,0.0,0.0,-0.9935,0.0,0.0,0.0,-1.2548,-1.3558,-1.4577,-1.5471,-1.5692,-1.5356,0.0,-1.339,0.0,0.0,0.0,-0.326,-0.0414,0.0,0.0,0.5262,0.6187,0.6069,0.5322,0.5347,0.4286,0.2576,0.172,0.0496,-0.0732,-0.0997,-0.2003,0.0,-0.3808,0.0,0.0,0.0,0.0,0.0,-0.5303,0.0,0.0,0.0,0.0,0.0,0.0,0.0,0.0,0.0,0.0,0.0,0.0,0.0,0.0,0.0,0.0,0.0,0.0,0.0,0.0,0.0,0.0,0.0,0.0,0.0,0.0,2.5469,2.4937,2.4556,2.449,2.3434,2.2395,2.147,2.0471,1.9634,1.8983,1.5754,1.3095,1.1015,0.5217,0.0841,-0.224,-0.5561,-0.7865,-0.9298,-0.9742,-1.0647,-1.1815,-1.2077,-1.278,-1.376,-1.4069,-1.4415,-1.4782,-1.5094,-1.5235,-1.53,-1.2522,-1.296,0.0,0.0,0.0,0.0,0.0,0.0,0.0,0.0,0.0,0.0,0.0,0.0,0.0,0.0,0.0,-0.656,-0.689,0.0,-0.8414,0.0,0.0,-1.0159,0.0,-1.192,-1.3424,-1.4673,-1.5401,-1.5574,0.0,0.0,0.0,0.0,0.0,-0.3457,-0.1807,0.296,0.4818,0.4792,0.6667,0.6633,0.5293,0.0,0.3506,0.23,0.223,0.0,0.0,0.0354,-0.0177,0.0,0.0,0.0,0.0,0.0,0.0,0.0,0.0,0.0,0.0,-0.4929,0.0,0.0,0.0,0.0,-0.8846,0.0,0.0,0.0,0.0,0.0,0.0,0.0,0.0,0.0,0.0,0.0,0.0,0.0,0.0,0.0,0.0,0.0,0.0,2.5395,2.4903,2.4489,2.4225,2.385,2.3232,2.2289,2.1235,2.059,2.0438,1.6773,1.3901,1.1731,0.753,0.3099,-0.149,-0.3514,-0.5984,-0.8747,-0.9088,-1.0095,-1.1542,-1.1943,-1.2653,-1.358,-1.4168,-1.46,-1.4914,-1.512,-1.524,-1.5316,0.0,0.0,0.0,0.0,0.0,0.0,0.0,-0.2349,0.0,0.0,0.0,0.0,0.0,-0.1868,-0.271,0.0,0.0,-0.5543,-0.6736,-0.7147,0.0,0.0,0.0,-0.9845,0.0,0.0,0.0,-1.4337,-1.4798,0.0,0.0,0.0,0.0,0.0,0.0,-0.3731,0.0,0.0,0.0,0.0,0.0,0.6472,0.5215,0.0,0.0,0.2653,0.2546,0.1824,0.0,0.0856,0.0463,-0.0117,-0.0928,-0.1513,-0.1983,-0.2571,-0.2625,0.0,0.0,0.0,-0.312,-0.3981,0.0,0.0,0.0,0.0,0.0,0.0,0.0,0.0,0.0,0.0,0.0,0.0,0.0,0.0,0.0,0.0,0.0,0.0,0.0,0.0,0.0,0.0,0.0,1.8319,2.1511,2.3733,2.4425,2.4063,2.3489,2.2777,2.1807,2.1089,2.065,1.732,1.4856,1.322,0.9158,0.5267,0.1547,-0.1278,-0.4276,-0.7249,-0.8427,-1.0063,-1.1923,-1.2277,-1.3058,-1.4069,-1.4397,-1.4764,-1.5181,-1.5824,-1.5776,-1.5368,-1.1123,0.0,0.0,0.0,0.0,0.0,0.0,0.0,0.0,0.0,-0.1111,0.0,-0.0984,0.0,-0.2306,0.0,-0.3751,-0.4788,-0.5827,-0.6234,0.0,-0.7358,-0.8054,0.0,0.0,0.0,0.0,0.0,0.0,-1.4433,0.0,0.0,0.0,0.0,0.0,0.0,-0.0985,0.0,0.4488,0.0,0.0,0.6142,0.0,0.0,0.3895,0.2822,0.0,0.2352,0.168,0.168,0.1476,0.1036,0.0,-0.0341,-0.0517,-0.1349,-0.1429,-0.1296,-0.1625,-0.184,0.0,-0.2972,-0.3938,0.0,-0.5565,0.0,0.0,0.0,0.0,0.0,0.0,0.0,0.0,0.0,0.0,0.0,0.0,-1.6633,0.0,0.0,0.0,0.0,0.0,0.0,1.1204,1.3989,1.7926,2.1261,0.0,0.0,2.3861,2.3398,2.2243,2.1407,2.0891,1.7833,1.5381,1.3569,1.0194,0.663,0.2925,-0.0031,-0.3269,-0.6687,-0.8541,-1.0454,-1.2332,-1.2975,-1.3678,-1.4372,-1.4588,-1.4896,-1.5274,-1.5865,-1.5784,-1.5396,0.0,0.0,0.0,0.0,-0.6521,0.0,0.0,0.0,-0.1244,0.0,-0.1183,-0.1153,-0.1123,-0.1746,-0.2141,-0.2084,-0.3349,0.0,-0.4278,-0.508,0.0,0.0,-0.6059,-0.692,-0.8038,0.0,0.0,0.0,0.0,0.0,0.0,0.0,0.0,0.0,-0.8274,0.0,-0.2826,0.1708,0.3818,0.4345,0.5771,0.5662,0.4544,0.4347,0.3607,0.2691,0.2965,0.2905,0.2681,0.2681,0.2681,0.2514,0.1456,0.1122,0.101,0.0561,0.0168,-0.0168,-0.0168,-0.1005,-0.1898,-0.1953,0.0,0.0,0.0,0.0,-0.6745,0.0,0.0,0.0,0.0,0.0,0.0,0.0,0.0,0.0,0.0,0.0,0.0,0.0,0.0,0.0,0.0,0.4368,0.7119,1.1941,1.4258,0.0,0.0,0.0,2.4321,2.4095,2.252,2.1498,2.1102,1.8194,1.5443,1.2864,1.0677,0.7235,0.2723,0.0281,-0.3078,-0.7044,-0.9396,-1.1295,-1.2842,-1.399,-1.4502,-1.4577,-1.4746,-1.4984,-1.5214,-1.5272,-1.5363,-1.5451,-0.8772,-0.7967,-0.6639,0.0,-0.362,-0.2958,0.0,0.0,0.0,0.0,-0.1079,-0.1051,-0.0888,-0.1156,-0.1557,-0.208,-0.2414,0.0,0.0,0.0,0.0,-0.5043,-0.5828,-0.6606,-0.7311,-0.8651,0.0,-1.2719,0.0,0.0,-1.5093,0.0,0.0,0.0,0.0,0.0,-0.1805,0.104,0.3151,0.4683,0.5832,0.5295,0.0,0.0,0.3254,0.2352,0.2689,0.2575,0.235,0.2631,0.2687,0.2575,0.1734,0.1455,0.1344,0.0617,0.0561,0.0669,0.0326,0.0054,-0.0377,-0.1292,-0.2265,-0.3182,0.0,0.0,0.0,0.0,0.0,0.0,0.0,0.0,0.0,0.0,0.0,0.0,0.0,0.0,0.0,0.0,0.0,0.0,0.0,-0.4856,-0.2688,0.0672,0.9668,0.0,0.0,0.0,0.0,2.384,2.2138,2.073,1.9651,1.72,1.4921,1.2781,1.0147,0.7317,0.4262,0.0213,-0.3651,-0.7378,-1.0452,-1.2973,-1.4917,-1.5178,-1.5857,-1.6592,-1.5464,-1.5152,-1.5345,-1.5368,-1.5808,-1.6279,-0.6752,0.0,0.0,-0.2508,0.0,0.0,-0.1807,0.0,0.0,-0.095,-0.0997,0.0,-0.0961,-0.1017,-0.1276,-0.1612,-0.1924,0.0,-0.3205,0.0,0.0,-0.4516,-0.4957,-0.5724,-0.6947,-0.7795,0.0,-1.204,0.0,0.0,-1.4653,0.0,0.0,0.0,0.0,-0.5936,0.0,0.0755,0.287,0.4206,0.4685,0.0,0.0,0.3537,0.2982,0.224,0.2689,0.2742,0.2629,0.2965,0.3021,0.2742,0.2071,0.1792,0.1625,0.1122,0.1055,0.0983,0.0749,0.0421,0.0,-0.0726,-0.1735,-0.2681,-0.3265,-0.4954,-0.6602,0.0,0.0,0.0,0.0,0.0,0.0,0.0,0.0,0.0,0.0,0.0,0.0,0.0,0.0,0.0,0.0,0.0,-0.8782,-0.5757,0.0,0.0,0.0,0.0,0.0,2.2592,1.9805,1.8063,1.7577,1.5219,1.3038,1.1058,0.8973,0.6446,0.3447,-0.0245,-0.4202,-0.839,-1.1241,-1.3663,-1.5625,-1.5757,-1.63,-1.6923,-1.6087,-1.5355,-1.4824,-1.5212,-1.5683,-1.6054,0.0,0.0,0.0,0.0,0.0,0.0,0.0,-0.0601,0.0,-0.0873,0.0,-0.1045,-0.1045,-0.1024,-0.1008,-0.1008,0.0,-0.1958,-0.2066,-0.2745,-0.3466,-0.3995,-0.3977,-0.4763,-0.657,-0.6707,0.0,0.0,0.0,0.0,0.0,0.0,0.0,0.0,0.0,0.0,0.0,0.0606,0.2568,0.3249,0.3115,0.2955,0.2806,0.3087,0.2764,0.2238,0.2852,0.3074,0.313,0.3461,0.335,0.3019,0.2464,0.2068,0.184,0.1785,0.1469,0.1056,0.1,0.041,-0.02,-0.025,-0.1344,-0.2366,-0.2407,-0.4275,-0.6118,-0.6613,-0.8566,-1.0632,0.0,0.0,0.0,0.0,0.0,0.0,0.0,0.0,0.0,0.0,0.0,0.0,0.0,0.0,0.0,0.0,0.0,0.0,0.0,0.0,0.0,2.0143,1.667,1.4876,1.5192,0.0,1.0913,0.8976,0.7608,0.5151,0.175,-0.0947,-0.4828,-0.9541,-1.1974,-1.4107,-1.5907,-1.6307,-1.6374,-1.6254,-1.6491,-1.5524,-1.4079,-1.4934,-1.5279,-1.5352,0.0,0.0,0.0,0.0,0.0,0.1792,0.1762,0.0432,-0.0638,-0.0635,-0.0621,-0.0611,-0.0611,-0.0608,-0.0606,-0.0606,-0.0872,0.0,0.0,0.0,0.0,-0.3646,-0.4318,-0.4974,-0.5545,-0.6763,-0.8201,0.0,0.0,0.0,0.0,0.0,0.0,0.0,0.0,0.0,-0.0806,0.067,0.0,0.2309,0.2309,0.2079,0.1835,0.2358,0.2247,0.1958,0.2794,0.3074,0.3132,0.3469,0.3355,0.3019,0.2689,0.2362,0.2095,0.1774,0.1626,0.1418,0.1079,0.0628,0.0192,-0.0144,-0.117,-0.2225,-0.2505,-0.4212,-0.596,-0.6766,-0.8684,-1.0481,-1.1301,0.0,0.0,0.0,0.0,0.0,0.0,0.0,0.0,0.0,0.0,0.0,0.0,0.0,0.0,0.0,0.0,0.0,0.0,0.0,0.0,0.0,1.4853,0.0,0.0,0.0,1.0989,0.9371,0.6879,0.4609,0.2452,-0.1713,-0.5759,-0.9677,-1.3166,-1.5907,-1.7927,-1.8262,-1.7192,-1.541,-1.6205,-1.5424,-1.3921,-1.4693,-1.5005,-1.508,0.0,0.0,0.0,0.0,0.0,0.0,0.0,0.1393,0.0,0.021,-0.0277,-0.055,-0.055,-0.0537,-0.0528,-0.0528,-0.0569,-0.0738,-0.1046,-0.1534,-0.1982,-0.2464,-0.3243,0.0,-0.4725,-0.6119,-0.7615,-0.9176,0.0,0.0,0.0,0.0,0.0,0.0,0.0,-0.4399,0.0,0.0,0.0,0.114,0.138,0.1487,0.1525,0.1961,0.1873,0.1621,0.2237,0.2432,0.2567,0.334,0.3152,0.2615,0.2619,0.2399,0.202,0.1711,0.1616,0.1464,0.11,0.0703,0.0323,-0.0092,-0.118,-0.2178,-0.2457,-0.3983,-0.5596,-0.6326,-0.7832,-0.9455,-1.0864,-1.2411,0.0,0.0,0.0,0.0,0.0,0.0,0.0,0.0,0.0,0.0,0.0,0.0,0.0,0.0,0.0,0.0,0.0,0.0,0.0,0.0,0.0,0.0,0.0,0.0,0.0,0.8287,0.6259,0.4047,0.1656,-0.2032,-0.6169,-1.0588,-1.3369,-1.5627,-1.7374,-1.7533,-1.6313,-1.4461,-1.581,-1.5234,-1.3749,-1.4514,-1.4801,-1.4831,0.0,0.2316,0.0,0.0,0.2704,0.0,0.2656,0.2446,0.2016,0.1175,0.0276,-0.0206,-0.0206,-0.0328,-0.038,-0.038,-0.0412,-0.0454,-0.0466,-0.0626,-0.0952,-0.1398,-0.2118,-0.2976,-0.3947,-0.5101,-0.6616,0.0,0.0,0.0,0.0,0.0,0.0,0.0,0.0,0.0,0.0,0.0,-0.0654,0.0,0.0523,0.0872,0.1218,0.1526,0.1455,0.1285,0.1664,0.174,0.1812,0.2993,0.2797,0.2155,0.2525,0.2362,0.1995,0.1746,0.1553,0.1363,0.0987,0.0597,0.0179,-0.0222,-0.1192,-0.2085,-0.2275,-0.3662,-0.5065,-0.5591,-0.6873,-0.847,-1.0499,-1.1832,0.0,0.0,0.0,0.0,0.0,0.0,0.0,0.0,0.0,0.0,0.0,0.0,0.0,0.0,0.0,-1.2082,-0.6853,-0.409,0.0054,0.0,0.0,0.7109,0.7568,0.0,0.7616,0.7067,0.5566,0.3334,0.048,-0.2474,-0.6477,-1.1176,-1.3412,-1.5362,-1.6888,-1.6524,-1.5351,-1.3909,-1.5264,-1.4784,-1.3458,-1.4247,-1.4521,-1.4489,0.0,0.0,0.0,0.0,0.0,0.0,0.4261,0.3476,0.2676,0.208,0.1385,0.0908,0.0908,0.037,-0.0059,-0.0059,-0.023,-0.0337,-0.0338,-0.1065,-0.1454,-0.1398,-0.2128,-0.2745,-0.3183,-0.3889,-0.5088,0.0,0.0,0.0,0.0,0.0,0.0,0.0,0.0,0.0,0.0,-0.2085,-0.1353,-0.0732,-0.0169,0.0113,0.0225,0.0786,0.0953,0.1005,0.1567,0.144,0.1166,0.2263,0.2385,0.2175,0.2633,0.2518,0.2152,0.1917,0.163,0.1172,0.063,0.018,-0.0223,-0.0557,-0.1308,-0.1918,-0.1933,-0.3174,-0.4379,-0.4727,-0.639,-0.8212,-0.9911,-1.0074,-1.0581,0.0,0.0,0.0,0.0,0.0,0.0,0.0,0.0,0.0,0.0,0.0,0.0,0.0,0.0,-1.6702,-1.2316,-0.74,-0.2804,0.1412,0.0,0.651,0.6799,0.6982,0.6962,0.6638,0.4625,0.2286,-0.0321,-0.3664,-0.7038,-1.0391,-1.3803,-1.6565,-1.8546,-1.6906,-1.5466,-1.4346,-1.4441,-1.3816,-1.2955,-1.3765,-1.4051,-1.4065,0.0,0.0,0.0,0.0,0.0,0.0,0.0,0.3814,0.3437,0.3164,0.2087,0.1281,0.1036,0.0646,0.0286,0.0,-0.0055,-0.0108,-0.0106,-0.0422,-0.0632,-0.058,-0.1287,-0.1749,-0.1899,-0.3277,-0.4426,0.0,0.0,0.0,0.0,0.0,0.0,0.0,0.0,-0.3955,-0.3244,-0.2237,-0.1679,-0.1344,-0.0392,0.0,0.0,0.028,0.0332,0.038,0.0641,0.0724,0.0895,0.1616,0.1753,0.1802,0.2532,0.2467,0.2056,0.1649,0.1312,0.0902,0.0292,0.0,-0.0207,-0.0568,-0.1088,-0.1572,-0.1712,-0.2398,-0.3253,-0.3916,-0.5946,-0.7983,-0.9173,-1.0363,-1.1389,0.0,0.0,0.0,0.0,0.0,0.0,0.0,0.0,0.0,0.0,0.0,0.0,0.0,0.0,-1.7387,-1.3053,-0.876,-0.4789,-0.1224,0.0,0.4661,0.4984,0.5624,0.601,0.6029,0.4197,0.183,-0.0987,-0.3944,-0.8017,-1.2854,-1.5013,-1.6448,-1.7178,-1.5717,-1.4762,-1.4201,-1.41,-1.3841,-1.3538,-1.376,-1.3865,-1.3941,0.555,0.0,0.5176,0.0,0.48,0.4565,0.4275,0.4088,0.396,0.3835,0.2826,0.1927,0.15,0.1171,0.0873,0.0551,0.0374,0.0258,0.0248,0.0099,0.0,0.0,-0.0517,0.0,-0.1062,-0.2393,-0.3373,-0.3912,-0.4766,0.0,0.0,0.0,0.0,0.0,-0.3818,-0.3408,-0.3246,-0.2069,-0.1512,-0.1455,-0.0224,0.0223,0.0221,0.0387,0.0378,0.0209,0.0207,0.0399,0.076,0.1221,0.1486,0.1704,0.2516,0.2547,0.2142,0.1567,0.1165,0.0737,0.0079,-0.0157,-0.0313,-0.054,-0.0921,-0.1273,-0.1416,-0.1913,-0.2572,-0.3446,-0.5485,-0.7397,-0.8328,-1.0195,-1.1705,-1.196,0.0,0.0,0.0,0.0,0.0,0.0,-1.5916,-1.701,-1.7921,0.0,0.0,0.0,0.0,0.0,-1.3101,-0.9214,0.0,0.0,0.0,0.0,0.0,0.4348,0.4745,0.4674,0.3252,0.0934,-0.2207,-0.5462,-1.0049,-1.545,-1.5749,-1.5989,-1.6099,-1.4869,-1.4217,-1.4026,-1.3836,-1.3776,-1.3776,-1.3686,-1.3704,-1.375,0.699,0.6634,0.6379,0.614,0.5867,0.5509,0.4995,0.4498,0.4133,0.3946,0.3502,0.3054,0.2717,0.205,0.1635,0.1748,0.1236,0.0894,0.0907,0.0334,0.0,0.0,0.0,-0.0314,-0.0896,-0.0898,-0.151,-0.2726,0.0,0.0,-0.273,0.0,-0.274,-0.274,-0.2738,-0.2736,-0.2625,-0.14,-0.0898,-0.0785,0.0393,0.0824,0.0746,0.1329,0.1196,0.0703,0.0676,0.0714,0.0757,0.1227,0.1656,0.208,0.27,0.2786,0.256,0.189,0.13,0.0744,0.0078,-0.0354,-0.0582,-0.0591,-0.084,-0.1117,-0.1094,-0.1789,-0.2652,-0.353,-0.4946,-0.6327,-0.7422,-0.9059,-1.0714,-1.2155,0.0,0.0,0.0,0.0,0.0,0.0,-1.7422,-1.7962,-1.8439,0.0,0.0,0.0,0.0,0.0,0.0,0.0,0.0,-0.3083,0.0524,0.0,0.2913,0.333,0.3108,0.2211,0.1391,-0.0725,-0.413,-0.8886,-1.3448,-1.7567,-1.5652,-1.5335,-1.6105,-1.4749,-1.4072,-1.3877,-1.3544,-1.3379,-1.3312,-1.3446,-1.3462,-1.3429,0.669,0.6449,0.6297,0.5979,0.5705,0.5433,0.5043,0.4662,0.4347,0.4094,0.3781,0.3548,0.3473,0.2711,0.2101,0.0,0.1613,0.1321,0.0,0.0743,0.0449,0.0,0.0,-0.0104,-0.028,-0.0673,-0.1064,-0.1454,0.0,0.0,0.0,-0.2068,-0.2012,-0.1956,-0.2068,-0.2012,-0.19,-0.1176,-0.0898,-0.0784,0.0328,0.0753,0.0743,0.1293,0.1351,0.1162,0.1196,0.1332,0.1617,0.1767,0.2038,0.2367,0.2566,0.2472,0.2151,0.15,0.1055,0.0666,-0.0036,-0.0319,-0.0423,-0.045,-0.0552,-0.0619,-0.0675,-0.1124,-0.1756,-0.2701,-0.393,-0.5338,-0.6902,-0.8873,-1.0653,-1.181,-1.2986,0.0,0.0,0.0,0.0,-1.5937,-1.6639,-1.7438,0.0,-1.9444,0.0,0.0,0.0,0.0,0.0,0.0,0.0,0.0,-0.0059,0.0,0.2169,0.185,0.1598,0.128,-0.0422,-0.3497,-0.7848,-1.2142,-1.452,-1.5248,-1.5405,-1.5298,-1.4898,-1.402,-1.3674,-1.3667,-1.3278,-1.3208,-1.3312,-1.3346,-1.3379,-1.3412,0.7203,0.7136,0.7079,0.6737,0.638,0.6014,0.5687,0.5153,0.4633,0.4275,0.4117,0.3997,0.391,0.3479,0.0,0.2543,0.2265,0.1901,0.1265,0.1008,0.0652,0.0049,0.02,0.0309,0.027,-0.0055,0.0,-0.0324,-0.0873,-0.1106,-0.1064,-0.1287,-0.1287,-0.1175,-0.1231,-0.1231,-0.1119,-0.0442,-0.0165,-0.011,0.0952,0.1293,0.1273,0.1788,0.1876,0.1673,0.1673,0.1828,0.2017,0.2017,0.2176,0.2438,0.2438,0.2259,0.196,0.1312,0.0968,0.0668,-0.0102,-0.0202,-0.0101,-0.0134,-0.0034,-0.0034,-0.0369,-0.0785,-0.1354,-0.2248,-0.3425,-0.474,-0.6248,-0.8234,-0.999,-1.1148,-1.2693,-1.3662,-1.3424,0.0,0.0,0.0,0.0,0.0,0.0,-1.8878,-1.9009,0.0,0.0,0.0,0.0,0.0,0.0,-0.2679,-0.0978,0.0,0.0518,0.0222,-0.0165,-0.0612,-0.3074,-0.6667,-1.1244,-1.3506,-1.4951,-1.5704,-1.5504,-1.4991,-1.425,-1.3701,-1.3473,-1.3444,-1.3087,-1.3051,-1.3192,-1.3295,-1.3329,-1.3345,0.8294,0.8394,0.8442,0.0,0.7654,0.0,0.6798,0.5867,0.5011,0.4578,0.4484,0.438,0.4115,0.4374,0.4254,0.3671,0.0,0.0,0.0,0.1359,0.0744,0.0144,0.0641,0.0855,0.0756,0.0886,0.0887,0.0706,0.0261,0.0108,0.0223,-0.0335,-0.0503,-0.0279,-0.0279,-0.0279,-0.0167,0.0753,0.1061,0.1057,0.2088,0.2356,0.2184,0.2753,0.2638,0.2144,0.2138,0.208,0.2049,0.2042,0.2158,0.2283,0.2283,0.2205,0.1967,0.1317,0.1047,0.0773,0.0,0.0067,0.037,0.0336,0.0571,0.0604,-0.02,-0.073,-0.128,-0.206,-0.3253,-0.4448,-0.5408,-0.7114,-0.881,-1.0281,-1.1773,-1.2923,-1.334,0.0,0.0,0.0,0.0,0.0,0.0,-1.8167,-1.7932,0.0,0.0,0.0,0.0,0.0,-0.7516,-0.4171,-0.2215,-0.1387,-0.1781,-0.1613,-0.2147,-0.3479,-0.634,-0.9925,-1.4025,-1.3408,-1.4963,-1.8014,-1.5769,-1.4526,-1.4065,-1.3704,-1.344,-1.3244,-1.2982,-1.2908,-1.2997,-1.3294,-1.3312,-1.3261,0.0,0.0,0.8584,0.8303,0.7907,0.7576,0.7284,0.643,0.5754,0.5696,0.5528,0.5247,0.4935,0.4847,0.4537,0.3818,0.3741,0.3522,0.3216,0.2607,0.1929,0.1098,0.1202,0.1272,0.1256,0.1369,0.127,0.1009,0.0458,0.0208,0.0323,0.0216,0.0431,0.0914,0.0808,0.1008,0.1445,0.1587,0.1631,0.1625,0.2252,0.2396,0.2319,0.2799,0.2887,0.2719,0.2588,0.2483,0.2376,0.2254,0.2208,0.216,0.216,0.2141,0.2019,0.1599,0.1456,0.1341,0.0874,0.0841,0.0875,0.0773,0.0773,0.0638,0.0033,-0.0337,-0.0747,-0.134,-0.2153,-0.3141,-0.4416,-0.5839,-0.7441,-0.9361,-1.113,-1.2308,-1.2477,-1.4095,0.0,0.0,-1.6795,-1.7612,-1.8144,-1.8481,-1.8551,0.0,0.0,0.0,0.0,-1.2405,-0.9549,-0.5124,-0.3097,-0.2491,-0.3351,-0.2914,-0.4041,-0.6659,-0.941,-1.1706,-1.3469,-1.4905,-1.5573,-1.5547,-1.4866,-1.4325,-1.3892,-1.3311,-1.3071,-1.3051,-1.2778,-1.2649,-1.2687,-1.3208,-1.3277,-1.3191,0.7895,0.8183,0.8461,0.8342,0.8038,0.7756,0.7646,0.6899,0.6361,0.631,0.6107,0.5914,0.5576,0.5411,0.5263,0.4989,0.4481,0.402,0.3529,0.3269,0.283,0.2079,0.2115,0.214,0.2095,0.2086,0.186,0.1423,0.1079,0.1,0.1141,0.1141,0.1348,0.171,0.1659,0.1797,0.2111,0.2221,0.2397,0.2534,0.2817,0.2955,0.3032,0.306,0.3211,0.3328,0.2983,0.289,0.2905,0.2551,0.2321,0.2183,0.2183,0.2183,0.215,0.1981,0.1778,0.1542,0.1177,0.1211,0.1343,0.1444,0.1403,0.1246,0.0774,0.034,-0.0103,-0.0571,-0.1398,-0.2317,-0.3208,-0.482,-0.6504,-0.8176,-1.0263,-1.1865,-1.2355,-1.3642,0.0,-1.5275,-1.551,-1.6037,-1.7097,-1.7131,-1.7131,-1.7262,-1.6498,0.0,-1.3688,-1.1953,-0.9724,-0.6919,-0.5739,-0.53,-0.5766,-0.5839,-0.6829,-0.889,-1.1118,-1.2959,-1.4482,-1.592,-1.631,-1.5844,-1.5725,-1.497,-1.3793,-1.4022,-1.3667,-1.2975,-1.3173,-1.298,-1.2703,-1.3208,-1.3277,-1.319,0.8246,0.843,0.8624,0.8766,0.8371,0.8049,0.8024,0.7404,0.6875,0.6666,0.6601,0.6398,0.6049,0.594,0.5939,0.6055,0.5209,0.4381,0.3795,0.3868,0.3658,0.3108,0.3175,0.3233,0.3164,0.2903,0.2488,0.1975,0.1881,0.192,0.2045,0.2045,0.2144,0.2295,0.2295,0.2387,0.2565,0.2955,0.333,0.3642,0.3664,0.3785,0.3993,0.3605,0.3635,0.381,0.3288,0.3219,0.329,0.2733,0.2439,0.2323,0.2343,0.2349,0.2352,0.2373,0.2099,0.1712,0.1385,0.1477,0.1742,0.2081,0.212,0.1988,0.1693,0.1144,0.06,0.0202,-0.0667,-0.1597,-0.2189,-0.4009,-0.5913,-0.7415,-0.9627,-1.1492,-1.2443,0.0,-1.3532,-1.4134,-1.3407,-1.3496,-1.5183,-1.4947,-1.4904,-1.5438,-1.4524,-1.3504,-1.2561,-1.0807,-0.9705,-0.9314,-0.8731,-0.8339,-0.8313,-0.9041,-0.9832,-1.0585,-1.2146,-1.3994,-1.6062,-1.6678,-1.6988,-1.7028,-1.7025,-1.5797,-1.3894,-1.4946,-1.4484,-1.3139,-1.3631,-1.341,-1.285,-1.3243,-1.3311,-1.326,1.016,0.9978,0.991,1.0407,0.9755,0.9055,0.8721,0.8076,0.7618,0.7454,0.7206,0.6947,0.6603,0.6182,0.5677,0.5079,0.5232,0.5385,0.5494,0.5079,0.4674,0.4355,0.4332,0.4336,0.4351,0.3534,0.301,0.2747,0.2207,0.2027,0.2158,0.2158,0.2394,0.2775,0.2775,0.324,0.3991,0.4054,0.4353,0.4741,0.4757,0.47,0.4648,0.4561,0.4209,0.3689,0.3482,0.3135,0.2694,0.2484,0.2426,0.2396,0.251,0.2546,0.257,0.2763,0.2756,0.2595,0.2207,0.2083,0.2081,0.2377,0.2426,0.2368,0.2211,0.1916,0.1518,0.0874,0.0336,-0.0468,-0.2016,-0.3547,-0.56,-0.8725,-1.0244,-1.1291,-1.2022,0.0,-1.243,-1.1236,-1.1948,-1.2392,-1.1908,-1.2987,-1.3373,-1.2598,-1.3133,-1.3242,-1.2626,-1.2182,-1.1966,-1.2078,-0.9968,-0.9043,-0.9612,-1.0538,-1.1456,-1.2233,-1.3623,-1.5136,-1.6686,-1.7401,-1.7203,-1.6278,-1.6495,-1.5908,-1.4755,-1.4514,-1.4219,-1.3873,-1.3287,-1.2969,-1.2836,-1.326,-1.3446,-1.3573,1.0663,1.0554,1.0489,1.0628,1.0169,0.9532,0.8849,0.8564,0.8278,0.7802,0.7285,0.6942,0.6781,0.6161,0.5661,0.547,0.5807,0.6169,0.6431,0.5869,0.5551,0.5615,0.5221,0.4787,0.4443,0.4001,0.3609,0.3262,0.2993,0.2889,0.2944,0.2944,0.3081,0.3309,0.353,0.3898,0.432,0.4574,0.4961,0.5351,0.5091,0.5135,0.526,0.5,0.4744,0.4464,0.3879,0.3548,0.3314,0.2822,0.2659,0.265,0.2756,0.28,0.2854,0.2921,0.2844,0.2683,0.2522,0.2435,0.2417,0.238,0.2447,0.2444,0.2245,0.1873,0.1505,0.1173,0.0638,-0.0268,-0.1753,-0.363,-0.5733,-0.8168,-0.9852,0.0,0.0,-1.109,-1.0724,-0.9846,-0.9869,-1.0164,-1.073,-1.1432,-1.1828,-1.17,-1.237,-1.2487,-1.1828,-1.1815,-1.1984,-1.2401,-1.1249,-1.0832,-1.1257,-1.2039,-1.2753,-1.3291,-1.5692,-1.723,-1.7952,-1.8615,-1.8276,-1.715,-1.661,-1.5607,-1.4338,-1.4697,-1.4393,-1.3675,-1.3743,-1.3438,-1.3,-1.3445,-1.3606,-1.3652,1.1243,1.1214,1.1138,1.1004,1.0712,1.0132,0.9098,0.9031,0.8775,0.7964,0.7267,0.6805,0.6805,0.6137,0.5811,0.6098,0.6441,0.674,0.701,0.6615,0.6483,0.6689,0.6044,0.5326,0.4556,0.4465,0.4232,0.3755,0.3796,0.3796,0.3796,0.3796,0.384,0.3972,0.4188,0.4403,0.4661,0.5009,0.5437,0.5867,0.5486,0.5572,0.5819,0.5423,0.522,0.5076,0.4314,0.3926,0.3734,0.3175,0.2943,0.2864,0.3011,0.3066,0.3073,0.3109,0.2988,0.2835,0.2766,0.2757,0.2712,0.255,0.258,0.2577,0.2281,0.1809,0.1438,0.1338,0.0704,-0.0234,-0.1689,-0.376,-0.5942,-0.7935,0.0,0.0,0.0,-1.0003,-0.9351,-0.8884,-0.8204,-0.834,-0.9769,-1.0068,-1.04,-1.0846,-1.1445,-1.1554,-1.1115,-1.1182,-1.1541,-1.2193,-1.2286,-1.2429,-1.2543,-1.3253,-1.3838,-1.4275,-1.6954,-1.8413,-1.8752,-1.9033,-1.8698,-1.7816,-1.6739,-1.5482,-1.4258,-1.4958,-1.4592,-1.365,-1.4127,-1.3871,-1.3278,-1.3639,-1.3715,-1.3728,1.2623,1.2555,1.2441,1.2599,1.2122,1.1249,0.9931,0.9545,0.8976,0.7949,0.7288,0.6883,0.6805,0.6349,0.6178,0.6448,0.6784,0.7104,0.7422,0.7529,0.7523,0.7328,0.6999,0.6276,0.5254,0.5037,0.4705,0.4228,0.4308,0.4347,0.4347,0.4347,0.457,0.4971,0.4491,0.4792,0.561,0.5653,0.5959,0.6435,0.6319,0.6361,0.641,0.6125,0.5471,0.4731,0.4716,0.3926,0.2955,0.3271,0.3151,0.2921,0.3202,0.3293,0.3319,0.3507,0.3544,0.3494,0.3304,0.3067,0.2937,0.3109,0.3142,0.3043,0.2577,0.2206,0.1835,0.1405,0.0871,-0.01,-0.2016,-0.3759,-0.6037,-0.9389,0.0,0.0,-1.1229,-1.0301,-0.9106,-0.7777,-0.7659,-0.7819,-0.8139,-0.8803,-0.9188,-0.9111,-0.992,-1.062,-1.1081,-1.1058,-1.1408,-1.2266,-1.2786,-1.3023,-1.3041,-1.3899,-1.4738,-1.5574,-1.6251,-1.7158,-1.8232,-1.7597,-1.7254,-1.713,-1.6493,-1.6045,-1.5677,-1.502,-1.4641,-1.4452,-1.3951,-1.3723,-1.3655,-1.3626,-1.3717,-1.3891,1.3707,1.3159,1.2513,1.2449,1.1968,1.1081,0.944,0.9665,0.9529,0.8145,0.7736,0.7488,0.7201,0.6713,0.6386,0.6382,0.6934,0.7452,0.7716,0.7992,0.7819,0.7076,0.6547,0.6049,0.5504,0.5312,0.5092,0.4797,0.4749,0.4791,0.4952,0.4787,0.4809,0.4986,0.5247,0.5445,0.5649,0.6114,0.6447,0.6617,0.6581,0.6517,0.6401,0.6435,0.5921,0.5144,0.513,0.4437,0.3581,0.3718,0.3522,0.325,0.3563,0.387,0.4183,0.4552,0.4554,0.4359,0.4203,0.372,0.3266,0.3171,0.2838,0.2438,0.2075,0.184,0.1638,0.1471,0.1071,0.02,-0.1576,-0.3313,-0.5363,-0.8159,0.0,-0.9983,-0.9873,-0.917,-0.8263,-0.7203,-0.6691,-0.6704,-0.7251,-0.7859,-0.8336,-0.8643,-0.9593,-1.0368,-1.0772,-1.0997,-1.1567,-1.2567,-1.2305,-1.2732,-1.3893,-1.4523,-1.5416,-1.6588,-1.8059,-1.8943,-1.9293,-1.8772,-1.8374,-1.8024,-1.685,-1.6216,-1.5976,-1.5158,-1.4761,-1.4607,-1.4045,-1.3793,-1.3791,-1.3909,-1.3966,-1.3991,1.4313,1.3628,1.2827,1.2401,1.1976,1.1091,0.9453,0.9733,0.9671,0.8424,0.8149,0.7938,0.7614,0.7295,0.7081,0.698,0.7493,0.785,0.8062,0.8056,0.7674,0.6862,0.6495,0.6155,0.5691,0.5663,0.5427,0.5106,0.5142,0.5183,0.5303,0.511,0.5156,0.5432,0.5722,0.5901,0.6019,0.6507,0.6814,0.6976,0.6678,0.6625,0.6633,0.642,0.5965,0.5429,0.5305,0.4728,0.4044,0.4053,0.38,0.3525,0.3806,0.4186,0.4587,0.4892,0.4963,0.4945,0.4785,0.4428,0.3988,0.347,0.2937,0.2534,0.2398,0.2197,0.2098,0.2128,0.1762,0.0888,-0.0796,-0.2595,-0.4646,-0.719,-0.8413,-0.9071,-0.9081,-0.8431,-0.7669,-0.691,-0.6254,-0.6137,-0.6759,-0.6996,-0.7392,-0.7995,-0.8774,-0.9426,-0.9921,-1.0628,-1.1348,-1.2108,-1.1933,-1.2822,-1.4894,-1.5293,-1.6112,-1.7371,-1.8925,-1.9609,-1.9483,-1.8922,-1.8584,-1.8341,-1.7028,-1.6362,-1.6113,-1.5337,-1.4803,-1.4432,-1.4081,-1.3897,-1.3818,-1.3977,-1.3977,-1.3906,1.4393,1.4069,1.3512,1.2736,1.227,1.1518,1.0208,0.976,0.9341,0.8676,0.8388,0.8177,0.8021,0.8144,0.83,0.848,0.8454,0.8387,0.8387,0.7723,0.7181,0.6917,0.7145,0.6853,0.5916,0.604,0.5767,0.5098,0.5505,0.5583,0.5303,0.5297,0.5745,0.649,0.5874,0.6046,0.6789,0.6789,0.7093,0.7533,0.667,0.6796,0.7368,0.6016,0.5502,0.5474,0.5287,0.475,0.4106,0.4197,0.4,0.372,0.3863,0.4148,0.4375,0.4271,0.4691,0.5156,0.4893,0.5156,0.5247,0.4103,0.3705,0.3626,0.3764,0.3533,0.3366,0.3556,0.3029,0.2002,0.0331,-0.1638,-0.3944,-0.6896,-0.7802,-0.8349,-0.91,-0.8298,-0.7415,-0.6875,-0.6515,-0.6386,-0.6581,-0.6156,-0.6201,-0.6926,-0.7194,-0.7654,-0.8457,-0.9846,-1.0638,-1.0704,-1.1749,-1.353,-1.608,-1.6238,-1.6851,-1.7925,-1.831,-1.847,-1.8375,-1.75,-1.7361,-1.7754,-1.6968,-1.6507,-1.6264,-1.5589,-1.4748,-1.3936,-1.4044,-1.397,-1.3793,-1.3728,-1.3667,-1.362,1.5243,1.3779,1.2425,1.2527,1.1711,1.0837,1.0031,1.0007,0.99,0.9319,0.9238,0.9096,0.8724,0.8724,0.8643,0.8398,0.8384,0.8284,0.7997,0.778,0.7489,0.7112,0.6832,0.6752,0.6939,0.6578,0.6433,0.6485,0.6446,0.6491,0.6709,0.6428,0.6547,0.7057,0.6789,0.6663,0.6754,0.6914,0.7147,0.7378,0.7088,0.7019,0.7044,0.6891,0.6563,0.6199,0.6128,0.5658,0.5062,0.4928,0.4633,0.4423,0.4872,0.5617,0.6283,0.6181,0.6608,0.6966,0.6468,0.6312,0.5917,0.4383,0.3976,0.3874,0.3639,0.3944,0.4351,0.4591,0.434,0.3506,0.1728,-0.0443,-0.2898,-0.5805,-0.7421,-0.8561,-0.9229,-0.9593,-0.9215,-0.7685,-0.7423,-0.6982,-0.6053,-0.5698,-0.573,-0.6201,-0.7088,-0.7997,-0.8933,-1.005,-1.1071,-1.1945,-1.2858,-1.4392,-1.6578,-1.6683,-1.75,-1.9021,-1.8571,-1.8609,-1.8987,-1.7503,-1.7483,-1.8614,-1.7942,-1.7921,-1.824,-1.6947,-1.6157,-1.5622,-1.4585,-1.4078,-1.3941,-1.397,-1.3938,-1.392,1.5563,1.3998,1.255,1.2392,1.1552,1.0762,1.0351,1.0439,1.0406,0.998,1.001,0.9902,0.9457,0.9536,0.9448,0.8926,0.8671,0.835,0.7875,0.785,0.7736,0.75,0.7107,0.7038,0.7379,0.6997,0.6939,0.7243,0.7047,0.7091,0.7378,0.6977,0.703,0.7432,0.7121,0.7,0.7075,0.7296,0.7442,0.7569,0.7408,0.7416,0.75,0.7181,0.6967,0.6819,0.657,0.6237,0.5866,0.5588,0.5346,0.5198,0.5671,0.6369,0.6986,0.7055,0.7425,0.7714,0.7223,0.7087,0.6805,0.5439,0.4916,0.4809,0.4884,0.5318,0.5801,0.6212,0.6137,0.5546,0.4016,0.1173,-0.1905,-0.4885,-0.7297,-0.9001,-0.9606,-1.0298,-0.9774,-0.7203,-0.7124,-0.6572,-0.4733,-0.4208,-0.4072,-0.4315,-0.5399,-0.6678,-0.8068,-0.9196,-1.0592,-1.2332,-1.3299,-1.4588,-1.6234,-1.6459,-1.7599,-1.9569,-1.8688,-1.842,-1.8665,-1.7318,-1.7182,-1.8021,-1.7735,-1.788,-1.8177,-1.6936,-1.6292,-1.5969,-1.4706,-1.4105,-1.3973,-1.4091,-1.406,-1.4005,1.5562,1.4467,1.3353,1.2363,1.1631,1.1145,1.1016,1.0954,1.0878,1.0687,1.058,1.0427,1.0127,1.036,1.033,0.9875,0.9183,0.8519,0.7958,0.7927,0.7927,0.7945,0.7822,0.7717,0.7626,0.7413,0.7408,0.7577,0.7476,0.7495,0.7528,0.7172,0.7312,0.778,0.7195,0.7196,0.7676,0.7792,0.7939,0.8011,0.7624,0.7888,0.8369,0.7111,0.7019,0.7413,0.6832,0.6631,0.6601,0.6228,0.6075,0.606,0.6271,0.6665,0.7047,0.7297,0.7598,0.7831,0.7531,0.7743,0.7839,0.7055,0.643,0.6227,0.6952,0.7218,0.7511,0.8098,0.8185,0.7821,0.6804,0.3214,-0.0677,-0.3935,-0.7063,-0.9338,-1.0063,-1.0672,-0.9685,-0.6011,-0.6086,-0.5448,-0.2959,-0.2062,-0.169,-0.1882,-0.2835,-0.4327,-0.6419,-0.7766,-0.9657,-1.2229,-1.3354,-1.4415,-1.5455,-1.5871,-1.721,-1.9445,-1.8455,-1.7888,-1.7694,-1.6864,-1.6534,-1.6642,-1.6821,-1.6908,-1.6858,-1.6107,-1.5694,-1.5424,-1.4552,-1.4105,-1.393,-1.4149,-1.4105,-1.4001,1.5658,1.397,1.2579,1.2915,1.2036,1.14,1.1785,1.1442,1.118,1.1356,1.0594,1.0264,1.0874,1.0409,1.0059,1.0122,0.9167,0.8438,0.816,0.8119,0.8166,0.8298,0.8645,0.8984,0.927,0.8492,0.8095,0.814,0.8405,0.8308,0.7875,0.7909,0.8137,0.8549,0.8108,0.8023,0.8213,0.8269,0.8322,0.8367,0.8004,0.8144,0.8523,0.8007,0.8045,0.8298,0.7888,0.7743,0.7656,0.7071,0.6952,0.7023,0.6827,0.7652,0.867,0.8557,0.8911,0.9351,0.9396,0.9245,0.9035,0.8838,0.8357,0.7781,0.7231,0.7798,0.8552,0.8955,0.9148,0.905,0.8415,0.6084,0.2749,-0.197,-0.4856,-0.7476,-1.0258,-1.1964,-1.1225,-0.6666,-0.6066,-0.4947,-0.2197,-0.091,-0.0667,-0.165,-0.1786,-0.3274,-0.6708,-0.826,-1.0291,-1.3043,-1.4173,-1.5156,-1.6014,-1.5922,-1.6437,-1.7581,-1.6724,-1.6588,-1.7041,-1.5532,-1.5555,-1.6835,-1.6876,-1.6956,-1.7022,-1.6751,-1.6253,-1.5582,-1.4757,-1.4281,-1.4068,-1.4295,-1.4356,-1.4419,1.5646,1.4287,1.3143,1.3192,1.2446,1.1982,1.2365,1.2066,1.1774,1.1836,1.1322,1.0963,1.0949,1.0734,1.0504,1.0309,0.9507,0.898,0.8933,0.8899,0.9012,0.9249,0.941,0.9757,1.0309,0.9846,0.9577,0.9544,0.9252,0.9041,0.8902,0.8609,0.8642,0.8921,0.849,0.8393,0.8551,0.8595,0.8595,0.8505,0.8598,0.871,0.8828,0.8571,0.8624,0.8795,0.8456,0.8333,0.8287,0.7897,0.7998,0.8247,0.7956,0.859,0.9433,0.9402,0.961,0.99,1.0122,0.9932,0.9662,0.9571,0.9307,0.8919,0.828,0.8656,0.9327,0.9982,1.0079,0.9973,0.9642,0.7266,0.3524,-0.2107,-0.5119,-0.7569,-0.9903,-1.0879,-0.9561,-0.4692,-0.3374,-0.1983,0.0312,0.1249,0.1414,0.0708,0.0859,-0.029,-0.3272,-0.6001,-0.8553,-1.0895,-1.35,-1.5176,-1.5856,-1.538,-1.574,-1.6895,-1.6026,-1.6034,-1.6748,-1.546,-1.5626,-1.6972,-1.7326,-1.7527,-1.7614,-1.7559,-1.7088,-1.6335,-1.5525,-1.4866,-1.4371,-1.4594,-1.4779,-1.4897,1.5509,1.4738,1.3992,1.3408,1.2918,1.2685,1.2838,1.2662,1.2449,1.2222,1.2105,1.1779,1.1045,1.1092,1.101,1.0481,0.9973,0.9713,0.979,0.9816,0.996,1.0318,1.0184,1.0394,1.1069,1.1182,1.1149,1.0914,1.0008,0.9723,0.999,0.9232,0.9023,0.9256,0.897,0.8816,0.8839,0.9163,0.9046,0.8712,0.9113,0.922,0.9127,0.8929,0.8978,0.9135,0.885,0.8739,0.8734,0.8923,0.9218,0.9459,0.9379,0.9676,1.004,1.0084,1.0121,1.0233,1.0559,1.0438,1.0182,1.0045,0.9982,0.9907,0.974,0.964,0.9817,1.0704,1.0848,1.0747,1.0577,0.8261,0.4382,-0.1764,-0.4788,-0.6892,-0.8425,-0.8413,-0.6446,-0.1649,0.0349,0.197,0.3616,0.3943,0.3876,0.3485,0.3938,0.3138,0.0651,-0.3291,-0.6387,-0.8391,-1.2733,-1.5214,-1.5632,-1.5012,-1.5379,-1.6775,-1.6163,-1.6191,-1.6758,-1.6059,-1.623,-1.712,-1.7992,-1.8333,-1.8302,-1.8594,-1.8211,-1.7382,-1.6573,-1.5696,-1.4887,-1.4985,-1.5139,-1.526,1.5074,1.4271,1.3638,1.3788,1.3412,1.3091,1.306,1.3037,1.292,1.2639,1.2161,1.1859,1.1988,1.1271,1.0743,1.0663,1.0219,1.0021,1.021,1.0235,1.0431,1.0864,1.1086,1.1368,1.1757,1.2071,1.1779,1.0904,1.0714,1.0575,1.0482,0.9629,0.9496,0.9974,1.0377,1.012,0.9464,1.0397,1.0266,0.9351,0.9189,0.9259,0.9417,0.9161,0.9232,0.9432,0.9405,0.9217,0.9246,1.0622,1.067,1.0288,1.0952,1.1235,1.1295,1.1021,1.1052,1.1273,1.1623,1.1371,1.1084,1.1209,1.113,1.1056,1.1241,1.0581,1.0035,1.0327,1.1054,1.1515,1.1152,1.1134,0.914,0.2901,0.0768,-0.1204,-0.4316,-0.495,-0.3462,0.0984,0.3575,0.5521,0.686,0.674,0.6014,0.4592,0.6075,0.5162,0.0823,-0.2962,-0.6258,-0.8991,-1.3761,-1.6232,-1.6191,-1.5969,-1.6152,-1.6708,-1.7408,-1.7533,-1.7123,-1.691,-1.6995,-1.7432,-1.8868,-1.916,-1.8743,-2.0196,-1.9898,-1.8414,-1.76,-1.675,-1.5908,-1.5299,-1.5137,-1.5208,1.5113,1.4493,1.3993,1.4105,1.3682,1.3344,1.3323,1.306,1.2815,1.2709,1.2584,1.2451,1.2287,1.1878,1.1613,1.1494,1.1679,1.1875,1.2057,1.1903,1.1993,1.2394,1.2182,1.2227,1.2552,1.2589,1.2366,1.1908,1.1081,1.0514,1.0125,0.9563,0.9436,0.971,1.0032,1.0129,1.0067,1.0393,1.0553,1.0522,0.994,0.9893,1.0138,0.9753,0.9643,0.9658,0.9658,0.9579,0.9625,1.0431,1.0784,1.0877,1.0922,1.1282,1.164,1.1576,1.1607,1.18,1.232,1.22,1.1948,1.1994,1.1938,1.1936,1.217,1.1367,1.0665,1.0973,1.1579,1.1766,1.0724,1.0844,0.91,0.2998,0.2041,0.1099,-0.1611,-0.0836,0.1667,0.611,0.7032,0.7805,0.9113,0.8976,0.8811,0.8727,0.9335,0.9012,0.7387,0.3338,-0.0605,-0.428,-0.9075,-1.3256,-1.6711,-1.6238,-1.6853,-1.855,-1.8804,-1.8586,-1.7937,-1.8459,-1.8713,-1.8888,-2.0505,-2.0812,-2.0259,-2.1473,-2.0996,-1.9406,-1.8608,-1.7509,-1.6322,-1.5995,-1.5585,-1.5208]}]]